<?xml version='1.0' encoding='UTF-8'?>
<gpx version="1.1" creator="https://www.komoot.de" xmlns="http://www.topografix.com/GPX/1/1" xmlns:xsi="http://www.w3.org/2001/XMLSchema-instance" xsi:schemaLocation="http://www.topografix.com/GPX/1/1 http://www.topografix.com/GPX/1/1/gpx.xsd">
  <metadata>
    <name>83_900EndenburgBrombach</name>
    <author>
      <link href="https://www.komoot.de">
        <text>komoot</text>
        <type>text/html</type>
      </link>
    </author>
  </metadata>
  <trk>
    <name>83_900EndenburgBrombach</name>
    <trkseg>
      <trkpt lat="47.541521" lon="7.870517">
        <ele>339.022574</ele>
        <time>2021-11-22T07:53:18.206Z</time>
      </trkpt>
      <trkpt lat="47.541521" lon="7.870517">
        <ele>339.022574</ele>
        <time>2021-11-22T07:53:18.230Z</time>
      </trkpt>
      <trkpt lat="47.541606" lon="7.870424">
        <ele>339.022574</ele>
        <time>2021-11-22T07:53:19.969Z</time>
      </trkpt>
      <trkpt lat="47.541910" lon="7.870106">
        <ele>339.022574</ele>
        <time>2021-11-22T07:53:25.830Z</time>
      </trkpt>
      <trkpt lat="47.542014" lon="7.870126">
        <ele>339.022574</ele>
        <time>2021-11-22T07:53:27.426Z</time>
      </trkpt>
      <trkpt lat="47.542118" lon="7.870135">
        <ele>339.022574</ele>
        <time>2021-11-22T07:53:29.089Z</time>
      </trkpt>
      <trkpt lat="47.542181" lon="7.870131">
        <ele>339.022574</ele>
        <time>2021-11-22T07:53:29.976Z</time>
      </trkpt>
      <trkpt lat="47.542317" lon="7.870012">
        <ele>339.012286</ele>
        <time>2021-11-22T07:53:32.228Z</time>
      </trkpt>
      <trkpt lat="47.542348" lon="7.869983">
        <ele>338.968231</ele>
        <time>2021-11-22T07:53:32.687Z</time>
      </trkpt>
      <trkpt lat="47.542329" lon="7.869820">
        <ele>338.834061</ele>
        <time>2021-11-22T07:53:34.378Z</time>
      </trkpt>
      <trkpt lat="47.542372" lon="7.869746">
        <ele>338.754863</ele>
        <time>2021-11-22T07:53:35.210Z</time>
      </trkpt>
      <trkpt lat="47.542657" lon="7.869354">
        <ele>338.287562</ele>
        <time>2021-11-22T07:53:40.074Z</time>
      </trkpt>
      <trkpt lat="47.542696" lon="7.869257">
        <ele>338.195985</ele>
        <time>2021-11-22T07:53:41.009Z</time>
      </trkpt>
      <trkpt lat="47.542722" lon="7.869201">
        <ele>338.140856</ele>
        <time>2021-11-22T07:53:41.600Z</time>
      </trkpt>
      <trkpt lat="47.543049" lon="7.868759">
        <ele>337.608958</ele>
        <time>2021-11-22T07:53:46.513Z</time>
      </trkpt>
      <trkpt lat="47.543105" lon="7.868711">
        <ele>337.531217</ele>
        <time>2021-11-22T07:53:47.251Z</time>
      </trkpt>
      <trkpt lat="47.543201" lon="7.868657">
        <ele>337.407830</ele>
        <time>2021-11-22T07:53:48.330Z</time>
      </trkpt>
      <trkpt lat="47.543657" lon="7.868359">
        <ele>336.815340</ele>
        <time>2021-11-22T07:53:54.125Z</time>
      </trkpt>
      <trkpt lat="47.543801" lon="7.868269">
        <ele>336.650402</ele>
        <time>2021-11-22T07:53:56.605Z</time>
      </trkpt>
      <trkpt lat="47.544214" lon="7.867988">
        <ele>336.170782</ele>
        <time>2021-11-22T07:54:04.224Z</time>
      </trkpt>
      <trkpt lat="47.544246" lon="7.867967">
        <ele>336.133847</ele>
        <time>2021-11-22T07:54:04.821Z</time>
      </trkpt>
      <trkpt lat="47.544410" lon="7.867825">
        <ele>335.933380</ele>
        <time>2021-11-22T07:54:08.075Z</time>
      </trkpt>
      <trkpt lat="47.544469" lon="7.867776">
        <ele>335.861999</ele>
        <time>2021-11-22T07:54:09.098Z</time>
      </trkpt>
      <trkpt lat="47.544568" lon="7.867693">
        <ele>335.741952</ele>
        <time>2021-11-22T07:54:11.026Z</time>
      </trkpt>
      <trkpt lat="47.545003" lon="7.867278">
        <ele>335.195931</ele>
        <time>2021-11-22T07:54:19.874Z</time>
      </trkpt>
      <trkpt lat="47.545160" lon="7.866985">
        <ele>334.990539</ele>
        <time>2021-11-22T07:54:24.526Z</time>
      </trkpt>
      <trkpt lat="47.545240" lon="7.866887">
        <ele>335.079251</ele>
        <time>2021-11-22T07:54:26.797Z</time>
      </trkpt>
      <trkpt lat="47.545480" lon="7.866680">
        <ele>335.316578</ele>
        <time>2021-11-22T07:54:32.926Z</time>
      </trkpt>
      <trkpt lat="47.546096" lon="7.866147">
        <ele>335.926211</ele>
        <time>2021-11-22T07:54:51.870Z</time>
      </trkpt>
      <trkpt lat="47.546327" lon="7.865959">
        <ele>336.151446</ele>
        <time>2021-11-22T07:54:58.289Z</time>
      </trkpt>
      <trkpt lat="47.546510" lon="7.865766">
        <ele>336.343415</ele>
        <time>2021-11-22T07:55:04.674Z</time>
      </trkpt>
      <trkpt lat="47.546819" lon="7.865489">
        <ele>336.455403</ele>
        <time>2021-11-22T07:55:12.826Z</time>
      </trkpt>
      <trkpt lat="47.546889" lon="7.865225">
        <ele>336.407009</ele>
        <time>2021-11-22T07:55:16.608Z</time>
      </trkpt>
      <trkpt lat="47.546894" lon="7.864837">
        <ele>336.340797</ele>
        <time>2021-11-22T07:55:21.780Z</time>
      </trkpt>
      <trkpt lat="47.546885" lon="7.864500">
        <ele>336.283253</ele>
        <time>2021-11-22T07:55:27.417Z</time>
      </trkpt>
      <trkpt lat="47.546974" lon="7.864423">
        <ele>336.257201</ele>
        <time>2021-11-22T07:55:29.006Z</time>
      </trkpt>
      <trkpt lat="47.547320" lon="7.863864">
        <ele>336.127796</ele>
        <time>2021-11-22T07:55:38.930Z</time>
      </trkpt>
      <trkpt lat="47.547568" lon="7.863151">
        <ele>335.680326</ele>
        <time>2021-11-22T07:55:47.943Z</time>
      </trkpt>
      <trkpt lat="47.547930" lon="7.861711">
        <ele>333.929368</ele>
        <time>2021-11-22T07:56:04.317Z</time>
      </trkpt>
      <trkpt lat="47.548049" lon="7.860929">
        <ele>333.015935</ele>
        <time>2021-11-22T07:56:13.017Z</time>
      </trkpt>
      <trkpt lat="47.548334" lon="7.859801">
        <ele>332.192439</ele>
        <time>2021-11-22T07:56:26.499Z</time>
      </trkpt>
      <trkpt lat="47.548611" lon="7.858381">
        <ele>331.192849</ele>
        <time>2021-11-22T07:56:44.455Z</time>
      </trkpt>
      <trkpt lat="47.548686" lon="7.857973">
        <ele>331.179071</ele>
        <time>2021-11-22T07:56:49.844Z</time>
      </trkpt>
      <trkpt lat="47.548701" lon="7.857893">
        <ele>331.176366</ele>
        <time>2021-11-22T07:56:50.964Z</time>
      </trkpt>
      <trkpt lat="47.548743" lon="7.857692">
        <ele>331.169510</ele>
        <time>2021-11-22T07:56:53.738Z</time>
      </trkpt>
      <trkpt lat="47.548887" lon="7.857308">
        <ele>331.155197</ele>
        <time>2021-11-22T07:56:59.772Z</time>
      </trkpt>
      <trkpt lat="47.549362" lon="7.855774">
        <ele>331.006769</ele>
        <time>2021-11-22T07:57:23.817Z</time>
      </trkpt>
      <trkpt lat="47.549566" lon="7.855225">
        <ele>330.678748</ele>
        <time>2021-11-22T07:57:32.435Z</time>
      </trkpt>
      <trkpt lat="47.549883" lon="7.854434">
        <ele>330.197252</ele>
        <time>2021-11-22T07:57:43.888Z</time>
      </trkpt>
      <trkpt lat="47.550221" lon="7.853833">
        <ele>329.787796</ele>
        <time>2021-11-22T07:57:50.282Z</time>
      </trkpt>
      <trkpt lat="47.551516" lon="7.851950">
        <ele>324.944108</ele>
        <time>2021-11-22T07:58:09.079Z</time>
      </trkpt>
      <trkpt lat="47.551660" lon="7.851725">
        <ele>324.314149</ele>
        <time>2021-11-22T07:58:11.111Z</time>
      </trkpt>
      <trkpt lat="47.551830" lon="7.851603">
        <ele>323.717039</ele>
        <time>2021-11-22T07:58:13.030Z</time>
      </trkpt>
      <trkpt lat="47.551882" lon="7.851736">
        <ele>323.389109</ele>
        <time>2021-11-22T07:58:14.030Z</time>
      </trkpt>
      <trkpt lat="47.551925" lon="7.851845">
        <ele>323.119744</ele>
        <time>2021-11-22T07:58:14.877Z</time>
      </trkpt>
      <trkpt lat="47.552042" lon="7.852007">
        <ele>322.613534</ele>
        <time>2021-11-22T07:58:16.522Z</time>
      </trkpt>
      <trkpt lat="47.552097" lon="7.852063">
        <ele>322.402578</ele>
        <time>2021-11-22T07:58:17.154Z</time>
      </trkpt>
      <trkpt lat="47.552272" lon="7.852167">
        <ele>321.806542</ele>
        <time>2021-11-22T07:58:19.058Z</time>
      </trkpt>
      <trkpt lat="47.552449" lon="7.852231">
        <ele>321.230603</ele>
        <time>2021-11-22T07:58:20.861Z</time>
      </trkpt>
      <trkpt lat="47.552678" lon="7.851709">
        <ele>319.902331</ele>
        <time>2021-11-22T07:58:25.135Z</time>
      </trkpt>
      <trkpt lat="47.552876" lon="7.851300">
        <ele>318.910088</ele>
        <time>2021-11-22T07:58:28.683Z</time>
      </trkpt>
      <trkpt lat="47.553283" lon="7.850634">
        <ele>317.772049</ele>
        <time>2021-11-22T07:58:35.346Z</time>
      </trkpt>
      <trkpt lat="47.553344" lon="7.850525">
        <ele>317.592693</ele>
        <time>2021-11-22T07:58:36.423Z</time>
      </trkpt>
      <trkpt lat="47.553380" lon="7.850453">
        <ele>317.479193</ele>
        <time>2021-11-22T07:58:37.111Z</time>
      </trkpt>
      <trkpt lat="47.553537" lon="7.849904">
        <ele>316.723949</ele>
        <time>2021-11-22T07:58:41.596Z</time>
      </trkpt>
      <trkpt lat="47.553605" lon="7.849629">
        <ele>316.352976</ele>
        <time>2021-11-22T07:58:43.887Z</time>
      </trkpt>
      <trkpt lat="47.553725" lon="7.849291">
        <ele>315.869225</ele>
        <time>2021-11-22T07:58:46.809Z</time>
      </trkpt>
      <trkpt lat="47.554055" lon="7.848586">
        <ele>315.007471</ele>
        <time>2021-11-22T07:58:53.707Z</time>
      </trkpt>
      <trkpt lat="47.554209" lon="7.848300">
        <ele>314.663724</ele>
        <time>2021-11-22T07:58:56.670Z</time>
      </trkpt>
      <trkpt lat="47.554269" lon="7.848188">
        <ele>314.529376</ele>
        <time>2021-11-22T07:58:57.749Z</time>
      </trkpt>
      <trkpt lat="47.554351" lon="7.848049">
        <ele>314.355925</ele>
        <time>2021-11-22T07:58:59.209Z</time>
      </trkpt>
      <trkpt lat="47.554465" lon="7.847858">
        <ele>314.116368</ele>
        <time>2021-11-22T07:59:01.290Z</time>
      </trkpt>
      <trkpt lat="47.554618" lon="7.847626">
        <ele>313.811613</ele>
        <time>2021-11-22T07:59:03.789Z</time>
      </trkpt>
      <trkpt lat="47.554759" lon="7.847388">
        <ele>313.514078</ele>
        <time>2021-11-22T07:59:06.206Z</time>
      </trkpt>
      <trkpt lat="47.554892" lon="7.847148">
        <ele>313.222320</ele>
        <time>2021-11-22T07:59:08.638Z</time>
      </trkpt>
      <trkpt lat="47.554995" lon="7.846915">
        <ele>312.991091</ele>
        <time>2021-11-22T07:59:10.794Z</time>
      </trkpt>
      <trkpt lat="47.555068" lon="7.846672">
        <ele>312.781437</ele>
        <time>2021-11-22T07:59:12.855Z</time>
      </trkpt>
      <trkpt lat="47.555199" lon="7.846687">
        <ele>312.627983</ele>
        <time>2021-11-22T07:59:14.336Z</time>
      </trkpt>
      <trkpt lat="47.555727" lon="7.846715">
        <ele>312.010924</ele>
        <time>2021-11-22T07:59:20.794Z</time>
      </trkpt>
      <trkpt lat="47.555855" lon="7.846815">
        <ele>311.841924</ele>
        <time>2021-11-22T07:59:22.456Z</time>
      </trkpt>
      <trkpt lat="47.555892" lon="7.846856">
        <ele>311.787964</ele>
        <time>2021-11-22T07:59:23.014Z</time>
      </trkpt>
      <trkpt lat="47.555966" lon="7.846932">
        <ele>311.682807</ele>
        <time>2021-11-22T07:59:24.163Z</time>
      </trkpt>
      <trkpt lat="47.555990" lon="7.846965">
        <ele>311.644568</ele>
        <time>2021-11-22T07:59:24.595Z</time>
      </trkpt>
      <trkpt lat="47.556060" lon="7.846859">
        <ele>311.527674</ele>
        <time>2021-11-22T07:59:25.789Z</time>
      </trkpt>
      <trkpt lat="47.556636" lon="7.845928">
        <ele>310.766498</ele>
        <time>2021-11-22T07:59:36.175Z</time>
      </trkpt>
      <trkpt lat="47.557134" lon="7.845095">
        <ele>310.286990</ele>
        <time>2021-11-22T07:59:45.994Z</time>
      </trkpt>
      <trkpt lat="47.557282" lon="7.844832">
        <ele>310.139439</ele>
        <time>2021-11-22T07:59:49.133Z</time>
      </trkpt>
      <trkpt lat="47.557560" lon="7.844433">
        <ele>309.900881</ele>
        <time>2021-11-22T07:59:54.308Z</time>
      </trkpt>
      <trkpt lat="47.557715" lon="7.843940">
        <ele>309.906308</ele>
        <time>2021-11-22T07:59:59.314Z</time>
      </trkpt>
      <trkpt lat="47.557759" lon="7.843839">
        <ele>309.907508</ele>
        <time>2021-11-22T08:00:00.493Z</time>
      </trkpt>
      <trkpt lat="47.557846" lon="7.843756">
        <ele>309.909038</ele>
        <time>2021-11-22T08:00:01.835Z</time>
      </trkpt>
      <trkpt lat="47.557967" lon="7.843683">
        <ele>309.910969</ele>
        <time>2021-11-22T08:00:03.880Z</time>
      </trkpt>
      <trkpt lat="47.558136" lon="7.843582">
        <ele>309.913664</ele>
        <time>2021-11-22T08:00:06.567Z</time>
      </trkpt>
      <trkpt lat="47.558405" lon="7.843371">
        <ele>309.918164</ele>
        <time>2021-11-22T08:00:11.432Z</time>
      </trkpt>
      <trkpt lat="47.558471" lon="7.843365">
        <ele>309.919142</ele>
        <time>2021-11-22T08:00:12.283Z</time>
      </trkpt>
      <trkpt lat="47.558471" lon="7.843365">
        <ele>309.919142</ele>
        <time>2021-11-22T08:00:12.284Z</time>
      </trkpt>
      <trkpt lat="47.558555" lon="7.843392">
        <ele>309.920413</ele>
        <time>2021-11-22T08:00:13.583Z</time>
      </trkpt>
      <trkpt lat="47.558884" lon="7.843836">
        <ele>309.926993</ele>
        <time>2021-11-22T08:00:20.862Z</time>
      </trkpt>
      <trkpt lat="47.559060" lon="7.844197">
        <ele>309.909522</ele>
        <time>2021-11-22T08:00:25.688Z</time>
      </trkpt>
      <trkpt lat="47.559109" lon="7.844229">
        <ele>309.906137</ele>
        <time>2021-11-22T08:00:26.735Z</time>
      </trkpt>
      <trkpt lat="47.559158" lon="7.844233">
        <ele>309.903034</ele>
        <time>2021-11-22T08:00:27.683Z</time>
      </trkpt>
      <trkpt lat="47.559583" lon="7.843813">
        <ele>309.870736</ele>
        <time>2021-11-22T08:00:35.646Z</time>
      </trkpt>
      <trkpt lat="47.559847" lon="7.843604">
        <ele>309.851812</ele>
        <time>2021-11-22T08:00:40.061Z</time>
      </trkpt>
      <trkpt lat="47.560139" lon="7.843433">
        <ele>309.831962</ele>
        <time>2021-11-22T08:00:44.291Z</time>
      </trkpt>
      <trkpt lat="47.560209" lon="7.843393">
        <ele>309.827218</ele>
        <time>2021-11-22T08:00:45.243Z</time>
      </trkpt>
      <trkpt lat="47.560338" lon="7.843341">
        <ele>309.818766</ele>
        <time>2021-11-22T08:00:46.909Z</time>
      </trkpt>
      <trkpt lat="47.560430" lon="7.843341">
        <ele>309.802472</ele>
        <time>2021-11-22T08:00:48.451Z</time>
      </trkpt>
      <trkpt lat="47.560515" lon="7.843379">
        <ele>309.701284</ele>
        <time>2021-11-22T08:00:49.485Z</time>
      </trkpt>
      <trkpt lat="47.560812" lon="7.843560">
        <ele>309.335279</ele>
        <time>2021-11-22T08:00:53.544Z</time>
      </trkpt>
      <trkpt lat="47.560934" lon="7.843550">
        <ele>309.196020</ele>
        <time>2021-11-22T08:00:55.067Z</time>
      </trkpt>
      <trkpt lat="47.561038" lon="7.843502">
        <ele>309.071873</ele>
        <time>2021-11-22T08:00:56.355Z</time>
      </trkpt>
      <trkpt lat="47.561434" lon="7.843181">
        <ele>308.557435</ele>
        <time>2021-11-22T08:01:01.796Z</time>
      </trkpt>
      <trkpt lat="47.561498" lon="7.843130">
        <ele>308.474615</ele>
        <time>2021-11-22T08:01:02.560Z</time>
      </trkpt>
      <trkpt lat="47.562179" lon="7.842500">
        <ele>307.557461</ele>
        <time>2021-11-22T08:01:11.819Z</time>
      </trkpt>
      <trkpt lat="47.562300" lon="7.842326">
        <ele>307.363244</ele>
        <time>2021-11-22T08:01:13.770Z</time>
      </trkpt>
      <trkpt lat="47.562385" lon="7.842183">
        <ele>307.215114</ele>
        <time>2021-11-22T08:01:15.181Z</time>
      </trkpt>
      <trkpt lat="47.562440" lon="7.842083">
        <ele>307.114834</ele>
        <time>2021-11-22T08:01:16.297Z</time>
      </trkpt>
      <trkpt lat="47.562574" lon="7.841873">
        <ele>306.890175</ele>
        <time>2021-11-22T08:01:18.695Z</time>
      </trkpt>
      <trkpt lat="47.562904" lon="7.841632">
        <ele>306.466388</ele>
        <time>2021-11-22T08:01:23.184Z</time>
      </trkpt>
      <trkpt lat="47.562965" lon="7.841597">
        <ele>306.391038</ele>
        <time>2021-11-22T08:01:23.972Z</time>
      </trkpt>
      <trkpt lat="47.563016" lon="7.841568">
        <ele>306.328114</ele>
        <time>2021-11-22T08:01:24.673Z</time>
      </trkpt>
      <trkpt lat="47.563300" lon="7.841391">
        <ele>305.973214</ele>
        <time>2021-11-22T08:01:28.411Z</time>
      </trkpt>
      <trkpt lat="47.563483" lon="7.841269">
        <ele>305.742064</ele>
        <time>2021-11-22T08:01:30.969Z</time>
      </trkpt>
      <trkpt lat="47.563659" lon="7.841150">
        <ele>305.526298</ele>
        <time>2021-11-22T08:01:33.296Z</time>
      </trkpt>
      <trkpt lat="47.563805" lon="7.841046">
        <ele>305.347353</ele>
        <time>2021-11-22T08:01:35.358Z</time>
      </trkpt>
      <trkpt lat="47.563941" lon="7.840948">
        <ele>305.180301</ele>
        <time>2021-11-22T08:01:37.210Z</time>
      </trkpt>
      <trkpt lat="47.563986" lon="7.840916">
        <ele>305.125164</ele>
        <time>2021-11-22T08:01:37.831Z</time>
      </trkpt>
      <trkpt lat="47.564094" lon="7.840838">
        <ele>304.992447</ele>
        <time>2021-11-22T08:01:39.300Z</time>
      </trkpt>
      <trkpt lat="47.564463" lon="7.840580">
        <ele>304.541738</ele>
        <time>2021-11-22T08:01:44.287Z</time>
      </trkpt>
      <trkpt lat="47.564534" lon="7.840532">
        <ele>304.455531</ele>
        <time>2021-11-22T08:01:45.194Z</time>
      </trkpt>
      <trkpt lat="47.564558" lon="7.840516">
        <ele>304.426460</ele>
        <time>2021-11-22T08:01:45.518Z</time>
      </trkpt>
      <trkpt lat="47.564936" lon="7.840261">
        <ele>303.967671</ele>
        <time>2021-11-22T08:01:50.418Z</time>
      </trkpt>
      <trkpt lat="47.565057" lon="7.840213">
        <ele>303.829301</ele>
        <time>2021-11-22T08:01:51.832Z</time>
      </trkpt>
      <trkpt lat="47.565168" lon="7.840179">
        <ele>303.704153</ele>
        <time>2021-11-22T08:01:53.173Z</time>
      </trkpt>
      <trkpt lat="47.565233" lon="7.840176">
        <ele>303.638543</ele>
        <time>2021-11-22T08:01:53.909Z</time>
      </trkpt>
      <trkpt lat="47.565343" lon="7.840185">
        <ele>303.527396</ele>
        <time>2021-11-22T08:01:55.170Z</time>
      </trkpt>
      <trkpt lat="47.565906" lon="7.840272">
        <ele>302.956309</ele>
        <time>2021-11-22T08:02:02.029Z</time>
      </trkpt>
      <trkpt lat="47.566081" lon="7.840309">
        <ele>302.777964</ele>
        <time>2021-11-22T08:02:04.173Z</time>
      </trkpt>
      <trkpt lat="47.566142" lon="7.840322">
        <ele>302.715789</ele>
        <time>2021-11-22T08:02:04.855Z</time>
      </trkpt>
      <trkpt lat="47.566221" lon="7.840340">
        <ele>302.635150</ele>
        <time>2021-11-22T08:02:06.053Z</time>
      </trkpt>
      <trkpt lat="47.566350" lon="7.840350">
        <ele>302.504824</ele>
        <time>2021-11-22T08:02:07.742Z</time>
      </trkpt>
      <trkpt lat="47.566450" lon="7.840326">
        <ele>302.402621</ele>
        <time>2021-11-22T08:02:08.965Z</time>
      </trkpt>
      <trkpt lat="47.566515" lon="7.840312">
        <ele>302.336353</ele>
        <time>2021-11-22T08:02:09.711Z</time>
      </trkpt>
      <trkpt lat="47.566592" lon="7.840279">
        <ele>302.255486</ele>
        <time>2021-11-22T08:02:10.901Z</time>
      </trkpt>
      <trkpt lat="47.566826" lon="7.840179">
        <ele>302.009786</ele>
        <time>2021-11-22T08:02:13.835Z</time>
      </trkpt>
      <trkpt lat="47.567111" lon="7.839998">
        <ele>301.781157</ele>
        <time>2021-11-22T08:02:17.861Z</time>
      </trkpt>
      <trkpt lat="47.567406" lon="7.839778">
        <ele>301.593174</ele>
        <time>2021-11-22T08:02:22.113Z</time>
      </trkpt>
      <trkpt lat="47.567481" lon="7.839664">
        <ele>301.532021</ele>
        <time>2021-11-22T08:02:23.352Z</time>
      </trkpt>
      <trkpt lat="47.567510" lon="7.839548">
        <ele>301.484509</ele>
        <time>2021-11-22T08:02:24.630Z</time>
      </trkpt>
      <trkpt lat="47.567530" lon="7.839459">
        <ele>301.448480</ele>
        <time>2021-11-22T08:02:25.485Z</time>
      </trkpt>
      <trkpt lat="47.567564" lon="7.839283">
        <ele>301.378168</ele>
        <time>2021-11-22T08:02:27.139Z</time>
      </trkpt>
      <trkpt lat="47.567626" lon="7.839064">
        <ele>301.286952</ele>
        <time>2021-11-22T08:02:29.285Z</time>
      </trkpt>
      <trkpt lat="47.567634" lon="7.839037">
        <ele>301.275626</ele>
        <time>2021-11-22T08:02:29.526Z</time>
      </trkpt>
      <trkpt lat="47.567823" lon="7.838648">
        <ele>301.091518</ele>
        <time>2021-11-22T08:02:34.099Z</time>
      </trkpt>
      <trkpt lat="47.567846" lon="7.838609">
        <ele>301.071624</ele>
        <time>2021-11-22T08:02:34.554Z</time>
      </trkpt>
      <trkpt lat="47.567936" lon="7.838380">
        <ele>300.969840</ele>
        <time>2021-11-22T08:02:37.134Z</time>
      </trkpt>
      <trkpt lat="47.567961" lon="7.838248">
        <ele>300.917183</ele>
        <time>2021-11-22T08:02:38.309Z</time>
      </trkpt>
      <trkpt lat="47.567944" lon="7.838073">
        <ele>300.844807</ele>
        <time>2021-11-22T08:02:39.881Z</time>
      </trkpt>
      <trkpt lat="47.567822" lon="7.837479">
        <ele>300.543763</ele>
        <time>2021-11-22T08:02:45.118Z</time>
      </trkpt>
      <trkpt lat="47.567670" lon="7.836721">
        <ele>300.160363</ele>
        <time>2021-11-22T08:02:51.736Z</time>
      </trkpt>
      <trkpt lat="47.567647" lon="7.836576">
        <ele>300.088144</ele>
        <time>2021-11-22T08:02:52.998Z</time>
      </trkpt>
      <trkpt lat="47.567583" lon="7.836155">
        <ele>299.878907</ele>
        <time>2021-11-22T08:02:56.694Z</time>
      </trkpt>
      <trkpt lat="47.567562" lon="7.835760">
        <ele>299.686799</ele>
        <time>2021-11-22T08:03:00.147Z</time>
      </trkpt>
      <trkpt lat="47.567566" lon="7.835567">
        <ele>299.593180</ele>
        <time>2021-11-22T08:03:01.810Z</time>
      </trkpt>
      <trkpt lat="47.567674" lon="7.835182">
        <ele>299.444433</ele>
        <time>2021-11-22T08:03:05.459Z</time>
      </trkpt>
      <trkpt lat="47.567558" lon="7.835042">
        <ele>299.368341</ele>
        <time>2021-11-22T08:03:07.446Z</time>
      </trkpt>
      <trkpt lat="47.567179" lon="7.834275">
        <ele>299.042066</ele>
        <time>2021-11-22T08:03:15.790Z</time>
      </trkpt>
      <trkpt lat="47.566744" lon="7.833235">
        <ele>298.601545</ele>
        <time>2021-11-22T08:03:27.135Z</time>
      </trkpt>
      <trkpt lat="47.566366" lon="7.832333">
        <ele>298.033579</ele>
        <time>2021-11-22T08:03:36.590Z</time>
      </trkpt>
      <trkpt lat="47.566477" lon="7.832241">
        <ele>297.932757</ele>
        <time>2021-11-22T08:03:38.206Z</time>
      </trkpt>
      <trkpt lat="47.566755" lon="7.832115">
        <ele>297.702295</ele>
        <time>2021-11-22T08:03:41.837Z</time>
      </trkpt>
      <trkpt lat="47.566920" lon="7.832056">
        <ele>297.567736</ele>
        <time>2021-11-22T08:03:43.950Z</time>
      </trkpt>
      <trkpt lat="47.567257" lon="7.831926">
        <ele>297.291675</ele>
        <time>2021-11-22T08:03:48.150Z</time>
      </trkpt>
      <trkpt lat="47.568550" lon="7.831407">
        <ele>295.621505</ele>
        <time>2021-11-22T08:04:03.656Z</time>
      </trkpt>
      <trkpt lat="47.568694" lon="7.831293">
        <ele>295.413631</ele>
        <time>2021-11-22T08:04:05.568Z</time>
      </trkpt>
      <trkpt lat="47.568760" lon="7.831139">
        <ele>295.256894</ele>
        <time>2021-11-22T08:04:07.017Z</time>
      </trkpt>
      <trkpt lat="47.568775" lon="7.830924">
        <ele>295.071201</ele>
        <time>2021-11-22T08:04:08.779Z</time>
      </trkpt>
      <trkpt lat="47.568745" lon="7.830356">
        <ele>294.779327</ele>
        <time>2021-11-22T08:04:13.506Z</time>
      </trkpt>
      <trkpt lat="47.568703" lon="7.829453">
        <ele>294.427218</ele>
        <time>2021-11-22T08:04:21.272Z</time>
      </trkpt>
      <trkpt lat="47.568703" lon="7.829421">
        <ele>294.414770</ele>
        <time>2021-11-22T08:04:21.570Z</time>
      </trkpt>
      <trkpt lat="47.568659" lon="7.828544">
        <ele>294.072667</ele>
        <time>2021-11-22T08:04:29.594Z</time>
      </trkpt>
      <trkpt lat="47.568555" lon="7.826544">
        <ele>293.812393</ele>
        <time>2021-11-22T08:04:49.258Z</time>
      </trkpt>
      <trkpt lat="47.568503" lon="7.825849">
        <ele>293.770972</ele>
        <time>2021-11-22T08:04:56.215Z</time>
      </trkpt>
      <trkpt lat="47.568448" lon="7.824552">
        <ele>293.553851</ele>
        <time>2021-11-22T08:05:08.922Z</time>
      </trkpt>
      <trkpt lat="47.568380" lon="7.822935">
        <ele>293.208380</ele>
        <time>2021-11-22T08:05:23.274Z</time>
      </trkpt>
      <trkpt lat="47.568400" lon="7.820924">
        <ele>293.366541</ele>
        <time>2021-11-22T08:05:43.133Z</time>
      </trkpt>
      <trkpt lat="47.568443" lon="7.820342">
        <ele>293.424944</ele>
        <time>2021-11-22T08:06:15.735Z</time>
      </trkpt>
      <trkpt lat="47.568417" lon="7.819772">
        <ele>293.546445</ele>
        <time>2021-11-22T08:06:47.531Z</time>
      </trkpt>
      <trkpt lat="47.568311" lon="7.819210">
        <ele>293.707364</ele>
        <time>2021-11-22T08:07:20.020Z</time>
      </trkpt>
      <trkpt lat="47.568272" lon="7.818798">
        <ele>293.822090</ele>
        <time>2021-11-22T08:07:43.159Z</time>
      </trkpt>
      <trkpt lat="47.568146" lon="7.818228">
        <ele>293.987494</ele>
        <time>2021-11-22T08:08:16.479Z</time>
      </trkpt>
      <trkpt lat="47.568049" lon="7.817619">
        <ele>294.160049</ele>
        <time>2021-11-22T08:08:22.948Z</time>
      </trkpt>
      <trkpt lat="47.567988" lon="7.816752">
        <ele>293.470947</ele>
        <time>2021-11-22T08:08:30.151Z</time>
      </trkpt>
      <trkpt lat="47.568209" lon="7.815459">
        <ele>292.284314</ele>
        <time>2021-11-22T08:08:40.947Z</time>
      </trkpt>
      <trkpt lat="47.568245" lon="7.815273">
        <ele>292.112169</ele>
        <time>2021-11-22T08:08:42.276Z</time>
      </trkpt>
      <trkpt lat="47.568480" lon="7.814364">
        <ele>290.392621</ele>
        <time>2021-11-22T08:08:49.203Z</time>
      </trkpt>
      <trkpt lat="47.568572" lon="7.814114">
        <ele>289.755038</ele>
        <time>2021-11-22T08:08:51.278Z</time>
      </trkpt>
      <trkpt lat="47.568248" lon="7.813814">
        <ele>288.487306</ele>
        <time>2021-11-22T08:08:55.119Z</time>
      </trkpt>
      <trkpt lat="47.568430" lon="7.813371">
        <ele>287.326037</ele>
        <time>2021-11-22T08:08:58.565Z</time>
      </trkpt>
      <trkpt lat="47.568525" lon="7.813167">
        <ele>286.771059</ele>
        <time>2021-11-22T08:09:00.178Z</time>
      </trkpt>
      <trkpt lat="47.568896" lon="7.812282">
        <ele>283.916900</ele>
        <time>2021-11-22T08:09:06.967Z</time>
      </trkpt>
      <trkpt lat="47.570230" lon="7.809116">
        <ele>273.403582</ele>
        <time>2021-11-22T08:09:30.955Z</time>
      </trkpt>
      <trkpt lat="47.570259" lon="7.809051">
        <ele>273.208033</ele>
        <time>2021-11-22T08:09:31.491Z</time>
      </trkpt>
      <trkpt lat="47.570299" lon="7.808969">
        <ele>272.954114</ele>
        <time>2021-11-22T08:09:32.228Z</time>
      </trkpt>
      <trkpt lat="47.570185" lon="7.808855">
        <ele>272.442628</ele>
        <time>2021-11-22T08:09:33.659Z</time>
      </trkpt>
      <trkpt lat="47.569869" lon="7.808528">
        <ele>271.009201</ele>
        <time>2021-11-22T08:09:37.801Z</time>
      </trkpt>
      <trkpt lat="47.569694" lon="7.808347">
        <ele>270.774222</ele>
        <time>2021-11-22T08:09:40.194Z</time>
      </trkpt>
      <trkpt lat="47.568962" lon="7.807589">
        <ele>269.937861</ele>
        <time>2021-11-22T08:09:51.177Z</time>
      </trkpt>
      <trkpt lat="47.568803" lon="7.807323">
        <ele>269.713285</ele>
        <time>2021-11-22T08:09:54.381Z</time>
      </trkpt>
      <trkpt lat="47.567792" lon="7.804628">
        <ele>268.887899</ele>
        <time>2021-11-22T08:10:23.397Z</time>
      </trkpt>
      <trkpt lat="47.567677" lon="7.804308">
        <ele>268.871530</ele>
        <time>2021-11-22T08:10:27.003Z</time>
      </trkpt>
      <trkpt lat="47.567503" lon="7.803912">
        <ele>269.016242</ele>
        <time>2021-11-22T08:10:31.722Z</time>
      </trkpt>
      <trkpt lat="47.567287" lon="7.803523">
        <ele>269.170516</ele>
        <time>2021-11-22T08:10:36.841Z</time>
      </trkpt>
      <trkpt lat="47.566532" lon="7.802465">
        <ele>269.642094</ele>
        <time>2021-11-22T08:10:53.133Z</time>
      </trkpt>
      <trkpt lat="47.566334" lon="7.802192">
        <ele>270.448950</ele>
        <time>2021-11-22T08:10:58.920Z</time>
      </trkpt>
      <trkpt lat="47.565517" lon="7.801041">
        <ele>274.299343</ele>
        <time>2021-11-22T08:11:31.737Z</time>
      </trkpt>
      <trkpt lat="47.565485" lon="7.800897">
        <ele>274.648772</ele>
        <time>2021-11-22T08:11:34.983Z</time>
      </trkpt>
      <trkpt lat="47.565490" lon="7.800752">
        <ele>274.983405</ele>
        <time>2021-11-22T08:11:39.514Z</time>
      </trkpt>
      <trkpt lat="47.565627" lon="7.800333">
        <ele>276.128180</ele>
        <time>2021-11-22T08:11:51.651Z</time>
      </trkpt>
      <trkpt lat="47.565704" lon="7.800090">
        <ele>276.922374</ele>
        <time>2021-11-22T08:11:59.036Z</time>
      </trkpt>
      <trkpt lat="47.566114" lon="7.798822">
        <ele>281.081967</ele>
        <time>2021-11-22T08:12:32.465Z</time>
      </trkpt>
      <trkpt lat="47.566454" lon="7.797771">
        <ele>283.951509</ele>
        <time>2021-11-22T08:12:56.031Z</time>
      </trkpt>
      <trkpt lat="47.566478" lon="7.797694">
        <ele>284.029685</ele>
        <time>2021-11-22T08:12:57.346Z</time>
      </trkpt>
      <trkpt lat="47.567008" lon="7.798425">
        <ele>285.018672</ele>
        <time>2021-11-22T08:13:11.630Z</time>
      </trkpt>
      <trkpt lat="47.567200" lon="7.798690">
        <ele>285.377062</ele>
        <time>2021-11-22T08:13:15.674Z</time>
      </trkpt>
      <trkpt lat="47.567213" lon="7.798707">
        <ele>285.400744</ele>
        <time>2021-11-22T08:13:15.984Z</time>
      </trkpt>
      <trkpt lat="47.567386" lon="7.798946">
        <ele>285.723808</ele>
        <time>2021-11-22T08:13:20.045Z</time>
      </trkpt>
      <trkpt lat="47.567788" lon="7.799488">
        <ele>286.224945</ele>
        <time>2021-11-22T08:13:29.456Z</time>
      </trkpt>
      <trkpt lat="47.567987" lon="7.799745">
        <ele>286.313290</ele>
        <time>2021-11-22T08:13:33.850Z</time>
      </trkpt>
      <trkpt lat="47.568185" lon="7.800003">
        <ele>286.401531</ele>
        <time>2021-11-22T08:13:38.047Z</time>
      </trkpt>
      <trkpt lat="47.568315" lon="7.800179">
        <ele>286.460463</ele>
        <time>2021-11-22T08:13:40.472Z</time>
      </trkpt>
      <trkpt lat="47.568384" lon="7.800059">
        <ele>286.496068</ele>
        <time>2021-11-22T08:13:42.228Z</time>
      </trkpt>
      <trkpt lat="47.569185" lon="7.799810">
        <ele>286.794860</ele>
        <time>2021-11-22T08:13:55.007Z</time>
      </trkpt>
      <trkpt lat="47.569327" lon="7.799762">
        <ele>286.900434</ele>
        <time>2021-11-22T08:13:57.312Z</time>
      </trkpt>
      <trkpt lat="47.569912" lon="7.799564">
        <ele>287.335396</ele>
        <time>2021-11-22T08:14:08.391Z</time>
      </trkpt>
      <trkpt lat="47.571202" lon="7.799089">
        <ele>288.355705</ele>
        <time>2021-11-22T08:14:32.278Z</time>
      </trkpt>
      <trkpt lat="47.571921" lon="7.798830">
        <ele>289.015688</ele>
        <time>2021-11-22T08:14:46.721Z</time>
      </trkpt>
      <trkpt lat="47.571985" lon="7.798809">
        <ele>289.074155</ele>
        <time>2021-11-22T08:14:48.017Z</time>
      </trkpt>
      <trkpt lat="47.572308" lon="7.798703">
        <ele>289.369233</ele>
        <time>2021-11-22T08:14:53.843Z</time>
      </trkpt>
      <trkpt lat="47.572527" lon="7.798632">
        <ele>289.569189</ele>
        <time>2021-11-22T08:14:57.642Z</time>
      </trkpt>
      <trkpt lat="47.572628" lon="7.798599">
        <ele>289.659754</ele>
        <time>2021-11-22T08:14:59.474Z</time>
      </trkpt>
      <trkpt lat="47.573055" lon="7.798459">
        <ele>289.909672</ele>
        <time>2021-11-22T08:15:07.095Z</time>
      </trkpt>
      <trkpt lat="47.573410" lon="7.798344">
        <ele>290.117334</ele>
        <time>2021-11-22T08:15:13.463Z</time>
      </trkpt>
      <trkpt lat="47.573813" lon="7.798212">
        <ele>290.353195</ele>
        <time>2021-11-22T08:15:20.543Z</time>
      </trkpt>
      <trkpt lat="47.574296" lon="7.798050">
        <ele>290.636195</ele>
        <time>2021-11-22T08:15:29.002Z</time>
      </trkpt>
      <trkpt lat="47.574910" lon="7.797787">
        <ele>291.101292</ele>
        <time>2021-11-22T08:15:39.206Z</time>
      </trkpt>
      <trkpt lat="47.575240" lon="7.797626">
        <ele>291.362409</ele>
        <time>2021-11-22T08:15:44.982Z</time>
      </trkpt>
      <trkpt lat="47.575391" lon="7.797551">
        <ele>291.482103</ele>
        <time>2021-11-22T08:15:47.820Z</time>
      </trkpt>
      <trkpt lat="47.575499" lon="7.797497">
        <ele>291.567769</ele>
        <time>2021-11-22T08:15:49.909Z</time>
      </trkpt>
      <trkpt lat="47.575580" lon="7.797470">
        <ele>291.630169</ele>
        <time>2021-11-22T08:15:51.452Z</time>
      </trkpt>
      <trkpt lat="47.575720" lon="7.797458">
        <ele>291.735568</ele>
        <time>2021-11-22T08:15:53.991Z</time>
      </trkpt>
      <trkpt lat="47.575780" lon="7.797475">
        <ele>291.781481</ele>
        <time>2021-11-22T08:15:55.168Z</time>
      </trkpt>
      <trkpt lat="47.575796" lon="7.797494">
        <ele>291.796889</ele>
        <time>2021-11-22T08:15:55.574Z</time>
      </trkpt>
      <trkpt lat="47.575820" lon="7.797521">
        <ele>291.819534</ele>
        <time>2021-11-22T08:15:56.111Z</time>
      </trkpt>
      <trkpt lat="47.575847" lon="7.797547">
        <ele>291.843734</ele>
        <time>2021-11-22T08:15:56.683Z</time>
      </trkpt>
      <trkpt lat="47.575879" lon="7.797550">
        <ele>291.867833</ele>
        <time>2021-11-22T08:15:57.258Z</time>
      </trkpt>
      <trkpt lat="47.575981" lon="7.797492">
        <ele>291.949943</ele>
        <time>2021-11-22T08:15:59.373Z</time>
      </trkpt>
      <trkpt lat="47.576004" lon="7.797461">
        <ele>291.973308</ele>
        <time>2021-11-22T08:15:59.989Z</time>
      </trkpt>
      <trkpt lat="47.576024" lon="7.797407">
        <ele>292.004543</ele>
        <time>2021-11-22T08:16:00.781Z</time>
      </trkpt>
      <trkpt lat="47.576036" lon="7.797357">
        <ele>292.031451</ele>
        <time>2021-11-22T08:16:01.509Z</time>
      </trkpt>
      <trkpt lat="47.576158" lon="7.797249">
        <ele>292.465717</ele>
        <time>2021-11-22T08:16:04.291Z</time>
      </trkpt>
      <trkpt lat="47.576257" lon="7.797179">
        <ele>292.813437</ele>
        <time>2021-11-22T08:16:06.590Z</time>
      </trkpt>
      <trkpt lat="47.576588" lon="7.797053">
        <ele>293.896802</ele>
        <time>2021-11-22T08:16:13.794Z</time>
      </trkpt>
      <trkpt lat="47.576849" lon="7.796996">
        <ele>294.733140</ele>
        <time>2021-11-22T08:16:20.349Z</time>
      </trkpt>
      <trkpt lat="47.576931" lon="7.797009">
        <ele>294.994575</ele>
        <time>2021-11-22T08:16:22.537Z</time>
      </trkpt>
      <trkpt lat="47.576994" lon="7.797117">
        <ele>295.299916</ele>
        <time>2021-11-22T08:16:25.237Z</time>
      </trkpt>
      <trkpt lat="47.577074" lon="7.797194">
        <ele>295.602298</ele>
        <time>2021-11-22T08:16:28.095Z</time>
      </trkpt>
      <trkpt lat="47.577098" lon="7.797205">
        <ele>295.681935</ele>
        <time>2021-11-22T08:16:28.788Z</time>
      </trkpt>
      <trkpt lat="47.577166" lon="7.797236">
        <ele>295.907469</ele>
        <time>2021-11-22T08:16:30.809Z</time>
      </trkpt>
      <trkpt lat="47.577262" lon="7.797239">
        <ele>296.211870</ele>
        <time>2021-11-22T08:16:33.710Z</time>
      </trkpt>
      <trkpt lat="47.577343" lon="7.797210">
        <ele>296.476035</ele>
        <time>2021-11-22T08:16:36.384Z</time>
      </trkpt>
      <trkpt lat="47.577418" lon="7.797151">
        <ele>296.745201</ele>
        <time>2021-11-22T08:16:39.160Z</time>
      </trkpt>
      <trkpt lat="47.577539" lon="7.797107">
        <ele>297.140162</ele>
        <time>2021-11-22T08:16:43.198Z</time>
      </trkpt>
      <trkpt lat="47.577612" lon="7.797087">
        <ele>297.375501</ele>
        <time>2021-11-22T08:16:45.728Z</time>
      </trkpt>
      <trkpt lat="47.577787" lon="7.797122">
        <ele>298.218649</ele>
        <time>2021-11-22T08:16:52.206Z</time>
      </trkpt>
      <trkpt lat="47.577944" lon="7.797172">
        <ele>299.460448</ele>
        <time>2021-11-22T08:16:58.280Z</time>
      </trkpt>
      <trkpt lat="47.578554" lon="7.797534">
        <ele>304.541593</ele>
        <time>2021-11-22T08:17:26.521Z</time>
      </trkpt>
      <trkpt lat="47.578679" lon="7.797723">
        <ele>305.922337</ele>
        <time>2021-11-22T08:17:35.062Z</time>
      </trkpt>
      <trkpt lat="47.578882" lon="7.798252">
        <ele>309.097164</ele>
        <time>2021-11-22T08:17:55.916Z</time>
      </trkpt>
      <trkpt lat="47.579085" lon="7.798411">
        <ele>310.872633</ele>
        <time>2021-11-22T08:18:08.151Z</time>
      </trkpt>
      <trkpt lat="47.579284" lon="7.798330">
        <ele>312.648876</ele>
        <time>2021-11-22T08:18:19.610Z</time>
      </trkpt>
      <trkpt lat="47.579900" lon="7.797779">
        <ele>319.435043</ele>
        <time>2021-11-22T08:18:58.680Z</time>
      </trkpt>
      <trkpt lat="47.580222" lon="7.797578">
        <ele>322.730573</ele>
        <time>2021-11-22T08:19:17.731Z</time>
      </trkpt>
      <trkpt lat="47.580444" lon="7.797575">
        <ele>324.824665</ele>
        <time>2021-11-22T08:19:30.012Z</time>
      </trkpt>
      <trkpt lat="47.580966" lon="7.797737">
        <ele>329.435940</ele>
        <time>2021-11-22T08:19:56.634Z</time>
      </trkpt>
      <trkpt lat="47.581379" lon="7.797757">
        <ele>332.018043</ele>
        <time>2021-11-22T08:20:15.101Z</time>
      </trkpt>
      <trkpt lat="47.581869" lon="7.797750">
        <ele>335.080065</ele>
        <time>2021-11-22T08:20:35.038Z</time>
      </trkpt>
      <trkpt lat="47.582160" lon="7.797772">
        <ele>336.900809</ele>
        <time>2021-11-22T08:20:45.406Z</time>
      </trkpt>
      <trkpt lat="47.582752" lon="7.797833">
        <ele>340.308934</ele>
        <time>2021-11-22T08:21:04.870Z</time>
      </trkpt>
      <trkpt lat="47.583508" lon="7.797910">
        <ele>343.166185</ele>
        <time>2021-11-22T08:21:27.974Z</time>
      </trkpt>
      <trkpt lat="47.584517" lon="7.797802">
        <ele>346.985230</ele>
        <time>2021-11-22T08:21:56.094Z</time>
      </trkpt>
      <trkpt lat="47.584729" lon="7.797820">
        <ele>347.796674</ele>
        <time>2021-11-22T08:22:03.029Z</time>
      </trkpt>
      <trkpt lat="47.585233" lon="7.798047">
        <ele>349.809523</ele>
        <time>2021-11-22T08:22:18.843Z</time>
      </trkpt>
      <trkpt lat="47.585534" lon="7.798199">
        <ele>351.024625</ele>
        <time>2021-11-22T08:22:28.626Z</time>
      </trkpt>
      <trkpt lat="47.585911" lon="7.798303">
        <ele>352.489983</ele>
        <time>2021-11-22T08:22:40.337Z</time>
      </trkpt>
      <trkpt lat="47.586281" lon="7.798381">
        <ele>353.877497</ele>
        <time>2021-11-22T08:22:52.143Z</time>
      </trkpt>
      <trkpt lat="47.586543" lon="7.798436">
        <ele>354.788715</ele>
        <time>2021-11-22T08:22:59.345Z</time>
      </trkpt>
      <trkpt lat="47.587282" lon="7.798453">
        <ele>357.333831</ele>
        <time>2021-11-22T08:23:21.057Z</time>
      </trkpt>
      <trkpt lat="47.587388" lon="7.798430">
        <ele>357.702739</ele>
        <time>2021-11-22T08:23:24.443Z</time>
      </trkpt>
      <trkpt lat="47.587698" lon="7.798426">
        <ele>358.770291</ele>
        <time>2021-11-22T08:23:33.246Z</time>
      </trkpt>
      <trkpt lat="47.588177" lon="7.798477">
        <ele>360.193438</ele>
        <time>2021-11-22T08:23:45.555Z</time>
      </trkpt>
      <trkpt lat="47.588390" lon="7.798556">
        <ele>360.708322</ele>
        <time>2021-11-22T08:23:50.979Z</time>
      </trkpt>
      <trkpt lat="47.588797" lon="7.798670">
        <ele>361.679636</ele>
        <time>2021-11-22T08:24:01.666Z</time>
      </trkpt>
      <trkpt lat="47.589010" lon="7.798691">
        <ele>362.180234</ele>
        <time>2021-11-22T08:24:06.532Z</time>
      </trkpt>
      <trkpt lat="47.589153" lon="7.798651">
        <ele>362.521490</ele>
        <time>2021-11-22T08:24:10.182Z</time>
      </trkpt>
      <trkpt lat="47.589272" lon="7.798569">
        <ele>362.829215</ele>
        <time>2021-11-22T08:24:12.967Z</time>
      </trkpt>
      <trkpt lat="47.589486" lon="7.798387">
        <ele>363.407747</ele>
        <time>2021-11-22T08:24:18.657Z</time>
      </trkpt>
      <trkpt lat="47.589692" lon="7.798248">
        <ele>363.925742</ele>
        <time>2021-11-22T08:24:23.729Z</time>
      </trkpt>
      <trkpt lat="47.589924" lon="7.798072">
        <ele>364.134591</ele>
        <time>2021-11-22T08:24:29.908Z</time>
      </trkpt>
      <trkpt lat="47.590924" lon="7.797504">
        <ele>364.992789</ele>
        <time>2021-11-22T08:24:50.918Z</time>
      </trkpt>
      <trkpt lat="47.591349" lon="7.797193">
        <ele>365.315242</ele>
        <time>2021-11-22T08:24:57.629Z</time>
      </trkpt>
      <trkpt lat="47.591728" lon="7.796915">
        <ele>364.039430</ele>
        <time>2021-11-22T08:25:02.554Z</time>
      </trkpt>
      <trkpt lat="47.592114" lon="7.796545">
        <ele>362.652601</ele>
        <time>2021-11-22T08:25:07.406Z</time>
      </trkpt>
      <trkpt lat="47.592429" lon="7.796406">
        <ele>361.660971</ele>
        <time>2021-11-22T08:25:10.733Z</time>
      </trkpt>
      <trkpt lat="47.592802" lon="7.796368">
        <ele>360.532881</ele>
        <time>2021-11-22T08:25:14.323Z</time>
      </trkpt>
      <trkpt lat="47.593608" lon="7.796793">
        <ele>356.879232</ele>
        <time>2021-11-22T08:25:22.208Z</time>
      </trkpt>
      <trkpt lat="47.594060" lon="7.796856">
        <ele>354.768081</ele>
        <time>2021-11-22T08:25:26.521Z</time>
      </trkpt>
      <trkpt lat="47.594601" lon="7.796746">
        <ele>352.228787</ele>
        <time>2021-11-22T08:25:31.774Z</time>
      </trkpt>
      <trkpt lat="47.594663" lon="7.797229">
        <ele>351.320622</ele>
        <time>2021-11-22T08:25:35.091Z</time>
      </trkpt>
      <trkpt lat="47.594957" lon="7.798605">
        <ele>350.043986</ele>
        <time>2021-11-22T08:25:45.675Z</time>
      </trkpt>
      <trkpt lat="47.595383" lon="7.799322">
        <ele>349.221588</ele>
        <time>2021-11-22T08:25:57.358Z</time>
      </trkpt>
      <trkpt lat="47.595466" lon="7.799497">
        <ele>349.398650</ele>
        <time>2021-11-22T08:26:00.124Z</time>
      </trkpt>
      <trkpt lat="47.595757" lon="7.800208">
        <ele>350.086962</ele>
        <time>2021-11-22T08:26:11.732Z</time>
      </trkpt>
      <trkpt lat="47.595950" lon="7.800596">
        <ele>350.485972</ele>
        <time>2021-11-22T08:26:18.113Z</time>
      </trkpt>
      <trkpt lat="47.596083" lon="7.800764">
        <ele>350.700383</ele>
        <time>2021-11-22T08:26:21.578Z</time>
      </trkpt>
      <trkpt lat="47.596154" lon="7.800842">
        <ele>350.808822</ele>
        <time>2021-11-22T08:26:23.411Z</time>
      </trkpt>
      <trkpt lat="47.596631" lon="7.801307">
        <ele>351.581906</ele>
        <time>2021-11-22T08:26:34.232Z</time>
      </trkpt>
      <trkpt lat="47.596866" lon="7.801508">
        <ele>352.178928</ele>
        <time>2021-11-22T08:26:39.476Z</time>
      </trkpt>
      <trkpt lat="47.597625" lon="7.801971">
        <ele>353.985057</ele>
        <time>2021-11-22T08:26:59.503Z</time>
      </trkpt>
      <trkpt lat="47.597927" lon="7.802250">
        <ele>354.768085</ele>
        <time>2021-11-22T08:27:08.119Z</time>
      </trkpt>
      <trkpt lat="47.598146" lon="7.802509">
        <ele>355.389572</ele>
        <time>2021-11-22T08:27:15.189Z</time>
      </trkpt>
      <trkpt lat="47.598398" lon="7.802889">
        <ele>356.658914</ele>
        <time>2021-11-22T08:27:25.069Z</time>
      </trkpt>
      <trkpt lat="47.599983" lon="7.804755">
        <ele>363.201348</ele>
        <time>2021-11-22T08:28:25.614Z</time>
      </trkpt>
      <trkpt lat="47.600367" lon="7.805144">
        <ele>364.365429</ele>
        <time>2021-11-22T08:28:37.274Z</time>
      </trkpt>
      <trkpt lat="47.600707" lon="7.805537">
        <ele>365.444493</ele>
        <time>2021-11-22T08:28:47.077Z</time>
      </trkpt>
      <trkpt lat="47.600919" lon="7.805847">
        <ele>366.189749</ele>
        <time>2021-11-22T08:28:53.279Z</time>
      </trkpt>
      <trkpt lat="47.601434" lon="7.806809">
        <ele>367.752732</ele>
        <time>2021-11-22T08:29:07.498Z</time>
      </trkpt>
      <trkpt lat="47.601856" lon="7.807444">
        <ele>368.879659</ele>
        <time>2021-11-22T08:29:21.649Z</time>
      </trkpt>
      <trkpt lat="47.602242" lon="7.807771">
        <ele>369.885417</ele>
        <time>2021-11-22T08:29:33.166Z</time>
      </trkpt>
      <trkpt lat="47.602352" lon="7.807799">
        <ele>370.422186</ele>
        <time>2021-11-22T08:29:36.491Z</time>
      </trkpt>
      <trkpt lat="47.602603" lon="7.807841">
        <ele>371.637002</ele>
        <time>2021-11-22T08:29:43.472Z</time>
      </trkpt>
      <trkpt lat="47.603050" lon="7.808058">
        <ele>373.899040</ele>
        <time>2021-11-22T08:29:59.917Z</time>
      </trkpt>
      <trkpt lat="47.603664" lon="7.808428">
        <ele>377.086453</ele>
        <time>2021-11-22T08:30:23.782Z</time>
      </trkpt>
      <trkpt lat="47.603933" lon="7.808453">
        <ele>378.412460</ele>
        <time>2021-11-22T08:30:33.920Z</time>
      </trkpt>
      <trkpt lat="47.604147" lon="7.808404">
        <ele>379.692990</ele>
        <time>2021-11-22T08:30:43.940Z</time>
      </trkpt>
      <trkpt lat="47.604338" lon="7.808356">
        <ele>380.838612</ele>
        <time>2021-11-22T08:30:51.385Z</time>
      </trkpt>
      <trkpt lat="47.605468" lon="7.808045">
        <ele>387.635201</ele>
        <time>2021-11-22T08:31:35.631Z</time>
      </trkpt>
      <trkpt lat="47.605899" lon="7.808010">
        <ele>390.315946</ele>
        <time>2021-11-22T08:31:51.041Z</time>
      </trkpt>
      <trkpt lat="47.606698" lon="7.808066">
        <ele>395.513178</ele>
        <time>2021-11-22T08:32:22.052Z</time>
      </trkpt>
      <trkpt lat="47.607385" lon="7.807967">
        <ele>399.997925</ele>
        <time>2021-11-22T08:32:52.480Z</time>
      </trkpt>
      <trkpt lat="47.607595" lon="7.808039">
        <ele>401.484125</ele>
        <time>2021-11-22T08:33:01.946Z</time>
      </trkpt>
      <trkpt lat="47.607803" lon="7.808223">
        <ele>403.221887</ele>
        <time>2021-11-22T08:33:13.416Z</time>
      </trkpt>
      <trkpt lat="47.608602" lon="7.809088">
        <ele>410.319699</ele>
        <time>2021-11-22T08:33:57.774Z</time>
      </trkpt>
      <trkpt lat="47.609427" lon="7.809753">
        <ele>415.586619</ele>
        <time>2021-11-22T08:34:35.587Z</time>
      </trkpt>
      <trkpt lat="47.609797" lon="7.810201">
        <ele>417.604040</ele>
        <time>2021-11-22T08:34:51.882Z</time>
      </trkpt>
      <trkpt lat="47.610233" lon="7.810909">
        <ele>420.334658</ele>
        <time>2021-11-22T08:35:09.400Z</time>
      </trkpt>
      <trkpt lat="47.610772" lon="7.811907">
        <ele>421.903644</ele>
        <time>2021-11-22T08:35:27.714Z</time>
      </trkpt>
      <trkpt lat="47.611013" lon="7.812221">
        <ele>422.289117</ele>
        <time>2021-11-22T08:35:33.142Z</time>
      </trkpt>
      <trkpt lat="47.612313" lon="7.813004">
        <ele>424.425663</ele>
        <time>2021-11-22T08:35:58.329Z</time>
      </trkpt>
      <trkpt lat="47.612555" lon="7.813076">
        <ele>424.904249</ele>
        <time>2021-11-22T08:36:03.586Z</time>
      </trkpt>
      <trkpt lat="47.612810" lon="7.813060">
        <ele>425.399138</ele>
        <time>2021-11-22T08:36:09.472Z</time>
      </trkpt>
      <trkpt lat="47.613501" lon="7.812899">
        <ele>426.783179</ele>
        <time>2021-11-22T08:36:27.631Z</time>
      </trkpt>
      <trkpt lat="47.613621" lon="7.812859">
        <ele>427.268792</ele>
        <time>2021-11-22T08:36:31.069Z</time>
      </trkpt>
      <trkpt lat="47.613868" lon="7.812544">
        <ele>428.554886</ele>
        <time>2021-11-22T08:36:40.664Z</time>
      </trkpt>
      <trkpt lat="47.614051" lon="7.812407">
        <ele>429.364228</ele>
        <time>2021-11-22T08:36:47.036Z</time>
      </trkpt>
      <trkpt lat="47.614764" lon="7.812475">
        <ele>432.185192</ele>
        <time>2021-11-22T08:37:09.718Z</time>
      </trkpt>
      <trkpt lat="47.614932" lon="7.812637">
        <ele>432.976334</ele>
        <time>2021-11-22T08:37:15.859Z</time>
      </trkpt>
      <trkpt lat="47.615387" lon="7.813324">
        <ele>436.020829</ele>
        <time>2021-11-22T08:37:36.997Z</time>
      </trkpt>
      <trkpt lat="47.615645" lon="7.813447">
        <ele>437.391961</ele>
        <time>2021-11-22T08:37:46.077Z</time>
      </trkpt>
      <trkpt lat="47.615803" lon="7.813616">
        <ele>438.377511</ele>
        <time>2021-11-22T08:37:53.661Z</time>
      </trkpt>
      <trkpt lat="47.616224" lon="7.814793">
        <ele>442.921984</ele>
        <time>2021-11-22T08:38:25.397Z</time>
      </trkpt>
      <trkpt lat="47.616291" lon="7.814920">
        <ele>443.490056</ele>
        <time>2021-11-22T08:38:30.715Z</time>
      </trkpt>
      <trkpt lat="47.616368" lon="7.815112">
        <ele>444.277417</ele>
        <time>2021-11-22T08:38:35.570Z</time>
      </trkpt>
      <trkpt lat="47.616439" lon="7.815458">
        <ele>445.552066</ele>
        <time>2021-11-22T08:38:45.785Z</time>
      </trkpt>
      <trkpt lat="47.616582" lon="7.816196">
        <ele>448.258302</ele>
        <time>2021-11-22T08:39:03.408Z</time>
      </trkpt>
      <trkpt lat="47.616632" lon="7.816335">
        <ele>448.813559</ele>
        <time>2021-11-22T08:39:07.821Z</time>
      </trkpt>
      <trkpt lat="47.616707" lon="7.816445">
        <ele>449.364959</ele>
        <time>2021-11-22T08:39:12.259Z</time>
      </trkpt>
      <trkpt lat="47.617000" lon="7.816677">
        <ele>451.101368</ele>
        <time>2021-11-22T08:39:23.868Z</time>
      </trkpt>
      <trkpt lat="47.617243" lon="7.816840">
        <ele>452.475223</ele>
        <time>2021-11-22T08:39:31.850Z</time>
      </trkpt>
      <trkpt lat="47.617373" lon="7.816786">
        <ele>453.091629</ele>
        <time>2021-11-22T08:39:36.723Z</time>
      </trkpt>
      <trkpt lat="47.617466" lon="7.816748">
        <ele>453.532077</ele>
        <time>2021-11-22T08:39:39.360Z</time>
      </trkpt>
      <trkpt lat="47.617591" lon="7.816685">
        <ele>454.134863</ele>
        <time>2021-11-22T08:39:43.494Z</time>
      </trkpt>
      <trkpt lat="47.617645" lon="7.816658">
        <ele>454.395053</ele>
        <time>2021-11-22T08:39:45.482Z</time>
      </trkpt>
      <trkpt lat="47.617819" lon="7.816612">
        <ele>455.202050</ele>
        <time>2021-11-22T08:39:51.053Z</time>
      </trkpt>
      <trkpt lat="47.618026" lon="7.816656">
        <ele>456.156859</ele>
        <time>2021-11-22T08:39:58.344Z</time>
      </trkpt>
      <trkpt lat="47.618674" lon="7.816980">
        <ele>459.279137</ele>
        <time>2021-11-22T08:40:20.174Z</time>
      </trkpt>
      <trkpt lat="47.618799" lon="7.817081">
        <ele>459.929046</ele>
        <time>2021-11-22T08:40:25.396Z</time>
      </trkpt>
      <trkpt lat="47.619023" lon="7.817353">
        <ele>461.321323</ele>
        <time>2021-11-22T08:40:34.860Z</time>
      </trkpt>
      <trkpt lat="47.619222" lon="7.817606">
        <ele>462.637947</ele>
        <time>2021-11-22T08:40:43.961Z</time>
      </trkpt>
      <trkpt lat="47.619286" lon="7.817698">
        <ele>463.085649</ele>
        <time>2021-11-22T08:40:47.506Z</time>
      </trkpt>
      <trkpt lat="47.619369" lon="7.817884">
        <ele>463.841023</ele>
        <time>2021-11-22T08:40:52.687Z</time>
      </trkpt>
      <trkpt lat="47.619414" lon="7.817980">
        <ele>464.236991</ele>
        <time>2021-11-22T08:40:55.712Z</time>
      </trkpt>
      <trkpt lat="47.619455" lon="7.818047">
        <ele>464.543427</ele>
        <time>2021-11-22T08:40:57.397Z</time>
      </trkpt>
      <trkpt lat="47.619481" lon="7.818077">
        <ele>464.708902</ele>
        <time>2021-11-22T08:40:59.257Z</time>
      </trkpt>
      <trkpt lat="47.619880" lon="7.818346">
        <ele>466.910679</ele>
        <time>2021-11-22T08:41:14.029Z</time>
      </trkpt>
      <trkpt lat="47.619948" lon="7.818387">
        <ele>467.279434</ele>
        <time>2021-11-22T08:41:16.771Z</time>
      </trkpt>
      <trkpt lat="47.619983" lon="7.818525">
        <ele>467.778728</ele>
        <time>2021-11-22T08:41:20.437Z</time>
      </trkpt>
      <trkpt lat="47.620052" lon="7.818861">
        <ele>468.968153</ele>
        <time>2021-11-22T08:41:28.032Z</time>
      </trkpt>
      <trkpt lat="47.620091" lon="7.818898">
        <ele>469.200718</ele>
        <time>2021-11-22T08:41:29.460Z</time>
      </trkpt>
      <trkpt lat="47.620135" lon="7.818917">
        <ele>469.430940</ele>
        <time>2021-11-22T08:41:31.681Z</time>
      </trkpt>
      <trkpt lat="47.620588" lon="7.818608">
        <ele>472.302709</ele>
        <time>2021-11-22T08:41:49.523Z</time>
      </trkpt>
      <trkpt lat="47.621041" lon="7.817725">
        <ele>476.646373</ele>
        <time>2021-11-22T08:42:16.612Z</time>
      </trkpt>
      <trkpt lat="47.621099" lon="7.817634">
        <ele>477.136614</ele>
        <time>2021-11-22T08:42:20.971Z</time>
      </trkpt>
      <trkpt lat="47.621173" lon="7.817554">
        <ele>477.668350</ele>
        <time>2021-11-22T08:42:25.036Z</time>
      </trkpt>
      <trkpt lat="47.621261" lon="7.817493">
        <ele>478.232428</ele>
        <time>2021-11-22T08:42:28.524Z</time>
      </trkpt>
      <trkpt lat="47.621327" lon="7.817470">
        <ele>478.626146</ele>
        <time>2021-11-22T08:42:30.631Z</time>
      </trkpt>
      <trkpt lat="47.621408" lon="7.817443">
        <ele>479.108270</ele>
        <time>2021-11-22T08:42:35.127Z</time>
      </trkpt>
      <trkpt lat="47.622034" lon="7.817274">
        <ele>483.372655</ele>
        <time>2021-11-22T08:43:00.642Z</time>
      </trkpt>
      <trkpt lat="47.622464" lon="7.817228">
        <ele>486.389913</ele>
        <time>2021-11-22T08:43:21.134Z</time>
      </trkpt>
      <trkpt lat="47.622635" lon="7.817204">
        <ele>487.592036</ele>
        <time>2021-11-22T08:43:29.557Z</time>
      </trkpt>
      <trkpt lat="47.623176" lon="7.817016">
        <ele>491.480809</ele>
        <time>2021-11-22T08:43:52.136Z</time>
      </trkpt>
      <trkpt lat="47.623368" lon="7.816962">
        <ele>492.772775</ele>
        <time>2021-11-22T08:44:01.171Z</time>
      </trkpt>
      <trkpt lat="47.623648" lon="7.816926">
        <ele>494.097630</ele>
        <time>2021-11-22T08:44:12.232Z</time>
      </trkpt>
      <trkpt lat="47.624281" lon="7.816985">
        <ele>497.087450</ele>
        <time>2021-11-22T08:44:34.431Z</time>
      </trkpt>
      <trkpt lat="47.625987" lon="7.818025">
        <ele>504.640741</ele>
        <time>2021-11-22T08:45:27.909Z</time>
      </trkpt>
      <trkpt lat="47.626443" lon="7.818467">
        <ele>506.583188</ele>
        <time>2021-11-22T08:45:44.357Z</time>
      </trkpt>
      <trkpt lat="47.626482" lon="7.818488">
        <ele>506.731145</ele>
        <time>2021-11-22T08:45:45.772Z</time>
      </trkpt>
      <trkpt lat="47.626700" lon="7.818602">
        <ele>507.526214</ele>
        <time>2021-11-22T08:45:52.198Z</time>
      </trkpt>
      <trkpt lat="47.626983" lon="7.818622">
        <ele>507.891709</ele>
        <time>2021-11-22T08:46:00.238Z</time>
      </trkpt>
      <trkpt lat="47.627555" lon="7.818559">
        <ele>508.631642</ele>
        <time>2021-11-22T08:46:15.815Z</time>
      </trkpt>
      <trkpt lat="47.628903" lon="7.818442">
        <ele>508.135043</ele>
        <time>2021-11-22T08:46:34.379Z</time>
      </trkpt>
      <trkpt lat="47.629046" lon="7.818276">
        <ele>507.404785</ele>
        <time>2021-11-22T08:46:36.349Z</time>
      </trkpt>
      <trkpt lat="47.629064" lon="7.818245">
        <ele>507.293869</ele>
        <time>2021-11-22T08:46:36.575Z</time>
      </trkpt>
      <trkpt lat="47.629850" lon="7.816905">
        <ele>502.368919</ele>
        <time>2021-11-22T08:46:47.848Z</time>
      </trkpt>
      <trkpt lat="47.630743" lon="7.815987">
        <ele>493.906563</ele>
        <time>2021-11-22T08:46:57.422Z</time>
      </trkpt>
      <trkpt lat="47.631021" lon="7.815514">
        <ele>490.611904</ele>
        <time>2021-11-22T08:47:01.154Z</time>
      </trkpt>
      <trkpt lat="47.631083" lon="7.815420">
        <ele>489.921441</ele>
        <time>2021-11-22T08:47:01.937Z</time>
      </trkpt>
      <trkpt lat="47.631227" lon="7.815205">
        <ele>488.331649</ele>
        <time>2021-11-22T08:47:03.722Z</time>
      </trkpt>
      <trkpt lat="47.631677" lon="7.814692">
        <ele>483.936414</ele>
        <time>2021-11-22T08:47:08.706Z</time>
      </trkpt>
      <trkpt lat="47.631707" lon="7.814641">
        <ele>483.583067</ele>
        <time>2021-11-22T08:47:09.093Z</time>
      </trkpt>
      <trkpt lat="47.632099" lon="7.813963">
        <ele>478.920230</ele>
        <time>2021-11-22T08:47:14.454Z</time>
      </trkpt>
      <trkpt lat="47.632179" lon="7.813790">
        <ele>477.825097</ele>
        <time>2021-11-22T08:47:15.675Z</time>
      </trkpt>
      <trkpt lat="47.632515" lon="7.813155">
        <ele>473.688173</ele>
        <time>2021-11-22T08:47:20.676Z</time>
      </trkpt>
      <trkpt lat="47.632573" lon="7.813067">
        <ele>473.093205</ele>
        <time>2021-11-22T08:47:21.391Z</time>
      </trkpt>
      <trkpt lat="47.632601" lon="7.813004">
        <ele>472.728430</ele>
        <time>2021-11-22T08:47:21.830Z</time>
      </trkpt>
      <trkpt lat="47.632790" lon="7.812277">
        <ele>468.962060</ele>
        <time>2021-11-22T08:47:26.646Z</time>
      </trkpt>
      <trkpt lat="47.632845" lon="7.812246">
        <ele>468.540068</ele>
        <time>2021-11-22T08:47:27.180Z</time>
      </trkpt>
      <trkpt lat="47.632938" lon="7.812283">
        <ele>467.849457</ele>
        <time>2021-11-22T08:47:27.999Z</time>
      </trkpt>
      <trkpt lat="47.633151" lon="7.812590">
        <ele>465.719681</ele>
        <time>2021-11-22T08:47:30.724Z</time>
      </trkpt>
      <trkpt lat="47.633391" lon="7.813533">
        <ele>460.747810</ele>
        <time>2021-11-22T08:47:36.797Z</time>
      </trkpt>
      <trkpt lat="47.633759" lon="7.814194">
        <ele>456.147126</ele>
        <time>2021-11-22T08:47:41.806Z</time>
      </trkpt>
      <trkpt lat="47.633899" lon="7.814255">
        <ele>454.985291</ele>
        <time>2021-11-22T08:47:43.143Z</time>
      </trkpt>
      <trkpt lat="47.634025" lon="7.814248">
        <ele>453.981289</ele>
        <time>2021-11-22T08:47:44.235Z</time>
      </trkpt>
      <trkpt lat="47.634267" lon="7.814103">
        <ele>451.903175</ele>
        <time>2021-11-22T08:47:46.599Z</time>
      </trkpt>
      <trkpt lat="47.634603" lon="7.813838">
        <ele>448.873331</ele>
        <time>2021-11-22T08:47:49.975Z</time>
      </trkpt>
      <trkpt lat="47.634638" lon="7.813802">
        <ele>448.534239</ele>
        <time>2021-11-22T08:47:50.333Z</time>
      </trkpt>
      <trkpt lat="47.634810" lon="7.813677">
        <ele>447.030955</ele>
        <time>2021-11-22T08:47:52.048Z</time>
      </trkpt>
      <trkpt lat="47.635241" lon="7.813237">
        <ele>443.080034</ele>
        <time>2021-11-22T08:47:56.648Z</time>
      </trkpt>
      <trkpt lat="47.635461" lon="7.813093">
        <ele>441.264071</ele>
        <time>2021-11-22T08:47:58.788Z</time>
      </trkpt>
      <trkpt lat="47.635537" lon="7.813043">
        <ele>440.636214</ele>
        <time>2021-11-22T08:47:59.528Z</time>
      </trkpt>
      <trkpt lat="47.635617" lon="7.812948">
        <ele>439.862400</ele>
        <time>2021-11-22T08:48:00.428Z</time>
      </trkpt>
      <trkpt lat="47.635678" lon="7.812872">
        <ele>439.260873</ele>
        <time>2021-11-22T08:48:01.149Z</time>
      </trkpt>
      <trkpt lat="47.635984" lon="7.812598">
        <ele>436.561749</ele>
        <time>2021-11-22T08:48:04.353Z</time>
      </trkpt>
      <trkpt lat="47.636234" lon="7.812469">
        <ele>434.562774</ele>
        <time>2021-11-22T08:48:06.746Z</time>
      </trkpt>
      <trkpt lat="47.636362" lon="7.812419">
        <ele>433.554087</ele>
        <time>2021-11-22T08:48:07.951Z</time>
      </trkpt>
      <trkpt lat="47.636514" lon="7.812384">
        <ele>432.355276</ele>
        <time>2021-11-22T08:48:09.309Z</time>
      </trkpt>
      <trkpt lat="47.637056" lon="7.812257">
        <ele>428.078782</ele>
        <time>2021-11-22T08:48:14.227Z</time>
      </trkpt>
      <trkpt lat="47.637370" lon="7.812117">
        <ele>425.523517</ele>
        <time>2021-11-22T08:48:17.132Z</time>
      </trkpt>
      <trkpt lat="47.637893" lon="7.811811">
        <ele>421.142102</ele>
        <time>2021-11-22T08:48:22.026Z</time>
      </trkpt>
      <trkpt lat="47.638511" lon="7.811552">
        <ele>416.674102</ele>
        <time>2021-11-22T08:48:27.723Z</time>
      </trkpt>
      <trkpt lat="47.638925" lon="7.811482">
        <ele>413.898951</ele>
        <time>2021-11-22T08:48:31.429Z</time>
      </trkpt>
      <trkpt lat="47.639195" lon="7.811442">
        <ele>412.091766</ele>
        <time>2021-11-22T08:48:33.886Z</time>
      </trkpt>
      <trkpt lat="47.639796" lon="7.811469">
        <ele>408.087166</ele>
        <time>2021-11-22T08:48:39.456Z</time>
      </trkpt>
      <trkpt lat="47.639913" lon="7.811500">
        <ele>407.590770</ele>
        <time>2021-11-22T08:48:40.572Z</time>
      </trkpt>
      <trkpt lat="47.639913" lon="7.811500">
        <ele>407.590770</ele>
        <time>2021-11-22T08:48:40.579Z</time>
      </trkpt>
      <trkpt lat="47.640114" lon="7.811584">
        <ele>406.941506</ele>
        <time>2021-11-22T08:48:42.640Z</time>
      </trkpt>
      <trkpt lat="47.640311" lon="7.811772">
        <ele>406.213284</ele>
        <time>2021-11-22T08:48:44.926Z</time>
      </trkpt>
      <trkpt lat="47.640406" lon="7.811979">
        <ele>405.688586</ele>
        <time>2021-11-22T08:48:46.726Z</time>
      </trkpt>
      <trkpt lat="47.640965" lon="7.814694">
        <ele>398.907874</ele>
        <time>2021-11-22T08:49:07.213Z</time>
      </trkpt>
      <trkpt lat="47.641246" lon="7.815390">
        <ele>396.645017</ele>
        <time>2021-11-22T08:49:12.505Z</time>
      </trkpt>
      <trkpt lat="47.641404" lon="7.815775">
        <ele>395.387814</ele>
        <time>2021-11-22T08:49:15.294Z</time>
      </trkpt>
      <trkpt lat="47.641514" lon="7.816229">
        <ele>393.320764</ele>
        <time>2021-11-22T08:49:18.198Z</time>
      </trkpt>
      <trkpt lat="47.641687" lon="7.816751">
        <ele>390.177277</ele>
        <time>2021-11-22T08:49:21.659Z</time>
      </trkpt>
      <trkpt lat="47.641819" lon="7.816919">
        <ele>388.782691</ele>
        <time>2021-11-22T08:49:23.171Z</time>
      </trkpt>
      <trkpt lat="47.641916" lon="7.816921">
        <ele>388.004667</ele>
        <time>2021-11-22T08:49:24.019Z</time>
      </trkpt>
      <trkpt lat="47.642138" lon="7.816906">
        <ele>386.222363</ele>
        <time>2021-11-22T08:49:25.959Z</time>
      </trkpt>
      <trkpt lat="47.642758" lon="7.816795">
        <ele>381.213863</ele>
        <time>2021-11-22T08:49:31.430Z</time>
      </trkpt>
      <trkpt lat="47.642952" lon="7.816765">
        <ele>379.883867</ele>
        <time>2021-11-22T08:49:33.140Z</time>
      </trkpt>
      <trkpt lat="47.643638" lon="7.816626">
        <ele>376.096471</ele>
        <time>2021-11-22T08:49:39.304Z</time>
      </trkpt>
      <trkpt lat="47.643676" lon="7.816507">
        <ele>375.611126</ele>
        <time>2021-11-22T08:49:40.123Z</time>
      </trkpt>
      <trkpt lat="47.643672" lon="7.816390">
        <ele>375.179365</ele>
        <time>2021-11-22T08:49:40.863Z</time>
      </trkpt>
      <trkpt lat="47.643670" lon="7.816306">
        <ele>374.869588</ele>
        <time>2021-11-22T08:49:41.391Z</time>
      </trkpt>
      <trkpt lat="47.643631" lon="7.816174">
        <ele>374.338377</ele>
        <time>2021-11-22T08:49:42.311Z</time>
      </trkpt>
      <trkpt lat="47.643595" lon="7.815574">
        <ele>372.118311</ele>
        <time>2021-11-22T08:49:46.295Z</time>
      </trkpt>
      <trkpt lat="47.643583" lon="7.815386">
        <ele>371.422329</ele>
        <time>2021-11-22T08:49:47.618Z</time>
      </trkpt>
      <trkpt lat="47.643563" lon="7.815022">
        <ele>370.452663</ele>
        <time>2021-11-22T08:49:50.283Z</time>
      </trkpt>
      <trkpt lat="47.643526" lon="7.814068">
        <ele>369.743500</ele>
        <time>2021-11-22T08:49:57.659Z</time>
      </trkpt>
      <trkpt lat="47.643420" lon="7.812903">
        <ele>368.871070</ele>
        <time>2021-11-22T08:50:07.878Z</time>
      </trkpt>
      <trkpt lat="47.643356" lon="7.812369">
        <ele>368.543633</ele>
        <time>2021-11-22T08:50:13.326Z</time>
      </trkpt>
      <trkpt lat="47.643296" lon="7.811717">
        <ele>368.430267</ele>
        <time>2021-11-22T08:50:19.755Z</time>
      </trkpt>
      <trkpt lat="47.643273" lon="7.811468">
        <ele>368.386969</ele>
        <time>2021-11-22T08:50:22.216Z</time>
      </trkpt>
      <trkpt lat="47.643160" lon="7.810537">
        <ele>368.223998</ele>
        <time>2021-11-22T08:50:31.356Z</time>
      </trkpt>
      <trkpt lat="47.643048" lon="7.809936">
        <ele>368.116573</ele>
        <time>2021-11-22T08:50:37.152Z</time>
      </trkpt>
      <trkpt lat="47.643036" lon="7.809874">
        <ele>368.102694</ele>
        <time>2021-11-22T08:50:37.703Z</time>
      </trkpt>
      <trkpt lat="47.642844" lon="7.808839">
        <ele>367.385708</ele>
        <time>2021-11-22T08:50:46.793Z</time>
      </trkpt>
      <trkpt lat="47.642638" lon="7.807938">
        <ele>366.750236</ele>
        <time>2021-11-22T08:50:54.463Z</time>
      </trkpt>
      <trkpt lat="47.642575" lon="7.807502">
        <ele>366.452414</ele>
        <time>2021-11-22T08:50:58.004Z</time>
      </trkpt>
      <trkpt lat="47.642536" lon="7.807284">
        <ele>366.297384</ele>
        <time>2021-11-22T08:50:59.717Z</time>
      </trkpt>
      <trkpt lat="47.642474" lon="7.806929">
        <ele>366.002869</ele>
        <time>2021-11-22T08:51:02.773Z</time>
      </trkpt>
      <trkpt lat="47.642464" lon="7.806840">
        <ele>365.930407</ele>
        <time>2021-11-22T08:51:03.442Z</time>
      </trkpt>
      <trkpt lat="47.642457" lon="7.806775">
        <ele>365.877545</ele>
        <time>2021-11-22T08:51:03.947Z</time>
      </trkpt>
      <trkpt lat="47.642451" lon="7.806725">
        <ele>365.836759</ele>
        <time>2021-11-22T08:51:04.356Z</time>
      </trkpt>
      <trkpt lat="47.642419" lon="7.805794">
        <ele>365.088119</ele>
        <time>2021-11-22T08:51:11.737Z</time>
      </trkpt>
      <trkpt lat="47.642421" lon="7.805765">
        <ele>365.064708</ele>
        <time>2021-11-22T08:51:11.956Z</time>
      </trkpt>
      <trkpt lat="47.642430" lon="7.805613">
        <ele>364.942169</ele>
        <time>2021-11-22T08:51:13.140Z</time>
      </trkpt>
      <trkpt lat="47.642676" lon="7.804538">
        <ele>364.084287</ele>
        <time>2021-11-22T08:51:22.482Z</time>
      </trkpt>
      <trkpt lat="47.642770" lon="7.804334">
        <ele>363.957502</ele>
        <time>2021-11-22T08:51:24.628Z</time>
      </trkpt>
      <trkpt lat="47.642873" lon="7.804157">
        <ele>363.837523</ele>
        <time>2021-11-22T08:51:26.562Z</time>
      </trkpt>
      <trkpt lat="47.643129" lon="7.803855">
        <ele>363.588536</ele>
        <time>2021-11-22T08:51:30.667Z</time>
      </trkpt>
      <trkpt lat="47.643465" lon="7.803575">
        <ele>363.295140</ele>
        <time>2021-11-22T08:51:35.494Z</time>
      </trkpt>
      <trkpt lat="47.643772" lon="7.803319">
        <ele>363.027026</ele>
        <time>2021-11-22T08:51:39.919Z</time>
      </trkpt>
      <trkpt lat="47.644609" lon="7.803001">
        <ele>362.678048</ele>
        <time>2021-11-22T08:51:51.444Z</time>
      </trkpt>
      <trkpt lat="47.644860" lon="7.802911">
        <ele>362.619180</ele>
        <time>2021-11-22T08:51:55.122Z</time>
      </trkpt>
      <trkpt lat="47.645207" lon="7.802812">
        <ele>362.538623</ele>
        <time>2021-11-22T08:52:00.268Z</time>
      </trkpt>
      <trkpt lat="47.645311" lon="7.802799">
        <ele>362.514829</ele>
        <time>2021-11-22T08:52:01.813Z</time>
      </trkpt>
      <trkpt lat="47.645524" lon="7.802783">
        <ele>362.466207</ele>
        <time>2021-11-22T08:52:05.001Z</time>
      </trkpt>
      <trkpt lat="47.645603" lon="7.802779">
        <ele>362.448187</ele>
        <time>2021-11-22T08:52:06.170Z</time>
      </trkpt>
      <trkpt lat="47.645661" lon="7.802777">
        <ele>362.434960</ele>
        <time>2021-11-22T08:52:07.039Z</time>
      </trkpt>
      <trkpt lat="47.645690" lon="7.802775">
        <ele>362.428342</ele>
        <time>2021-11-22T08:52:07.483Z</time>
      </trkpt>
      <trkpt lat="47.645928" lon="7.802756">
        <ele>362.370735</ele>
        <time>2021-11-22T08:52:11.061Z</time>
      </trkpt>
      <trkpt lat="47.646891" lon="7.802749">
        <ele>362.123576</ele>
        <time>2021-11-22T08:52:25.340Z</time>
      </trkpt>
      <trkpt lat="47.646975" lon="7.802793">
        <ele>362.100715</ele>
        <time>2021-11-22T08:52:26.640Z</time>
      </trkpt>
      <trkpt lat="47.647353" lon="7.802987">
        <ele>361.998065</ele>
        <time>2021-11-22T08:52:32.113Z</time>
      </trkpt>
      <trkpt lat="47.647454" lon="7.803115">
        <ele>361.963980</ele>
        <time>2021-11-22T08:52:33.778Z</time>
      </trkpt>
      <trkpt lat="47.647677" lon="7.803299">
        <ele>361.698905</ele>
        <time>2021-11-22T08:52:36.922Z</time>
      </trkpt>
      <trkpt lat="47.647780" lon="7.802900">
        <ele>361.255230</ele>
        <time>2021-11-22T08:52:40.340Z</time>
      </trkpt>
      <trkpt lat="47.647896" lon="7.802634">
        <ele>360.926213</ele>
        <time>2021-11-22T08:52:42.811Z</time>
      </trkpt>
      <trkpt lat="47.648032" lon="7.802295">
        <ele>360.516529</ele>
        <time>2021-11-22T08:52:45.848Z</time>
      </trkpt>
      <trkpt lat="47.648175" lon="7.801942">
        <ele>360.088832</ele>
        <time>2021-11-22T08:52:48.944Z</time>
      </trkpt>
      <trkpt lat="47.648191" lon="7.801903">
        <ele>360.041419</ele>
        <time>2021-11-22T08:52:49.280Z</time>
      </trkpt>
      <trkpt lat="47.648544" lon="7.801029">
        <ele>359.015555</ele>
        <time>2021-11-22T08:52:56.810Z</time>
      </trkpt>
      <trkpt lat="47.648712" lon="7.800751">
        <ele>358.696157</ele>
        <time>2021-11-22T08:52:59.607Z</time>
      </trkpt>
      <trkpt lat="47.648726" lon="7.800730">
        <ele>358.670889</ele>
        <time>2021-11-22T08:52:59.821Z</time>
      </trkpt>
      <trkpt lat="47.648813" lon="7.800640">
        <ele>358.536267</ele>
        <time>2021-11-22T08:53:00.990Z</time>
      </trkpt>
      <trkpt lat="47.648842" lon="7.800639">
        <ele>358.499441</ele>
        <time>2021-11-22T08:53:01.319Z</time>
      </trkpt>
      <trkpt lat="47.648869" lon="7.800620">
        <ele>358.461508</ele>
        <time>2021-11-22T08:53:01.662Z</time>
      </trkpt>
      <trkpt lat="47.648906" lon="7.800592">
        <ele>358.408784</ele>
        <time>2021-11-22T08:53:02.131Z</time>
      </trkpt>
      <trkpt lat="47.648922" lon="7.800561">
        <ele>358.375385</ele>
        <time>2021-11-22T08:53:02.425Z</time>
      </trkpt>
      <trkpt lat="47.649025" lon="7.800505">
        <ele>358.236130</ele>
        <time>2021-11-22T08:53:03.647Z</time>
      </trkpt>
      <trkpt lat="47.649108" lon="7.800464">
        <ele>358.125080</ele>
        <time>2021-11-22T08:53:04.607Z</time>
      </trkpt>
      <trkpt lat="47.649238" lon="7.800402">
        <ele>357.951735</ele>
        <time>2021-11-22T08:53:06.197Z</time>
      </trkpt>
      <trkpt lat="47.649415" lon="7.800336">
        <ele>357.720050</ele>
        <time>2021-11-22T08:53:08.269Z</time>
      </trkpt>
      <trkpt lat="47.649440" lon="7.800327">
        <ele>357.687392</ele>
        <time>2021-11-22T08:53:08.551Z</time>
      </trkpt>
      <trkpt lat="47.649707" lon="7.800227">
        <ele>357.337811</ele>
        <time>2021-11-22T08:53:11.895Z</time>
      </trkpt>
      <trkpt lat="47.650046" lon="7.800072">
        <ele>356.887494</ele>
        <time>2021-11-22T08:53:16.746Z</time>
      </trkpt>
      <trkpt lat="47.650174" lon="7.800012">
        <ele>356.954833</ele>
        <time>2021-11-22T08:53:19.022Z</time>
      </trkpt>
      <trkpt lat="47.650346" lon="7.799933">
        <ele>357.054289</ele>
        <time>2021-11-22T08:53:21.724Z</time>
      </trkpt>
      <trkpt lat="47.650489" lon="7.799868">
        <ele>357.136902</ele>
        <time>2021-11-22T08:53:24.440Z</time>
      </trkpt>
      <trkpt lat="47.650602" lon="7.799816">
        <ele>357.202253</ele>
        <time>2021-11-22T08:53:26.376Z</time>
      </trkpt>
      <trkpt lat="47.650980" lon="7.799643">
        <ele>357.420757</ele>
        <time>2021-11-22T08:53:33.607Z</time>
      </trkpt>
      <trkpt lat="47.651021" lon="7.799621">
        <ele>357.444839</ele>
        <time>2021-11-22T08:53:34.356Z</time>
      </trkpt>
      <trkpt lat="47.651401" lon="7.799445">
        <ele>357.664729</ele>
        <time>2021-11-22T08:53:41.660Z</time>
      </trkpt>
      <trkpt lat="47.651510" lon="7.799390">
        <ele>357.728324</ele>
        <time>2021-11-22T08:53:44.762Z</time>
      </trkpt>
      <trkpt lat="47.651610" lon="7.799288">
        <ele>357.795346</ele>
        <time>2021-11-22T08:53:47.150Z</time>
      </trkpt>
      <trkpt lat="47.651827" lon="7.799068">
        <ele>357.876053</ele>
        <time>2021-11-22T08:53:53.534Z</time>
      </trkpt>
      <trkpt lat="47.652373" lon="7.798474">
        <ele>357.874551</ele>
        <time>2021-11-22T08:54:08.104Z</time>
      </trkpt>
      <trkpt lat="47.652486" lon="7.798377">
        <ele>357.874261</ele>
        <time>2021-11-22T08:54:10.409Z</time>
      </trkpt>
      <trkpt lat="47.652811" lon="7.798152">
        <ele>357.873465</ele>
        <time>2021-11-22T08:54:17.630Z</time>
      </trkpt>
      <trkpt lat="47.653088" lon="7.798043">
        <ele>357.872829</ele>
        <time>2021-11-22T08:54:23.177Z</time>
      </trkpt>
      <trkpt lat="47.653114" lon="7.798036">
        <ele>357.872771</ele>
        <time>2021-11-22T08:54:23.568Z</time>
      </trkpt>
      <trkpt lat="47.653274" lon="7.797996">
        <ele>357.872410</ele>
        <time>2021-11-22T08:54:26.572Z</time>
      </trkpt>
      <trkpt lat="47.653601" lon="7.798001">
        <ele>357.830246</ele>
        <time>2021-11-22T08:54:32.567Z</time>
      </trkpt>
      <trkpt lat="47.653659" lon="7.798008">
        <ele>357.821682</ele>
        <time>2021-11-22T08:54:33.730Z</time>
      </trkpt>
      <trkpt lat="47.653906" lon="7.798052">
        <ele>357.785070</ele>
        <time>2021-11-22T08:54:38.153Z</time>
      </trkpt>
      <trkpt lat="47.654562" lon="7.798220">
        <ele>357.687100</ele>
        <time>2021-11-22T08:54:51.223Z</time>
      </trkpt>
      <trkpt lat="47.654972" lon="7.798325">
        <ele>357.625869</ele>
        <time>2021-11-22T08:55:00.041Z</time>
      </trkpt>
      <trkpt lat="47.655261" lon="7.798389">
        <ele>357.686647</ele>
        <time>2021-11-22T08:55:06.437Z</time>
      </trkpt>
      <trkpt lat="47.655551" lon="7.798461">
        <ele>357.824850</ele>
        <time>2021-11-22T08:55:12.864Z</time>
      </trkpt>
      <trkpt lat="47.656074" lon="7.798592">
        <ele>358.074152</ele>
        <time>2021-11-22T08:55:24.640Z</time>
      </trkpt>
      <trkpt lat="47.656097" lon="7.798598">
        <ele>358.085129</ele>
        <time>2021-11-22T08:55:25.175Z</time>
      </trkpt>
      <trkpt lat="47.656579" lon="7.798702">
        <ele>358.314066</ele>
        <time>2021-11-22T08:55:36.060Z</time>
      </trkpt>
      <trkpt lat="47.656780" lon="7.798744">
        <ele>358.409474</ele>
        <time>2021-11-22T08:55:40.595Z</time>
      </trkpt>
      <trkpt lat="47.656989" lon="7.798756">
        <ele>358.512083</ele>
        <time>2021-11-22T08:55:45.251Z</time>
      </trkpt>
      <trkpt lat="47.657806" lon="7.798860">
        <ele>358.927776</ele>
        <time>2021-11-22T08:56:03.650Z</time>
      </trkpt>
      <trkpt lat="47.658094" lon="7.798895">
        <ele>359.074264</ele>
        <time>2021-11-22T08:56:09.970Z</time>
      </trkpt>
      <trkpt lat="47.658412" lon="7.798888">
        <ele>359.235490</ele>
        <time>2021-11-22T08:56:16.902Z</time>
      </trkpt>
      <trkpt lat="47.658617" lon="7.798885">
        <ele>359.339418</ele>
        <time>2021-11-22T08:56:21.543Z</time>
      </trkpt>
      <trkpt lat="47.658702" lon="7.798884">
        <ele>359.381652</ele>
        <time>2021-11-22T08:56:23.423Z</time>
      </trkpt>
      <trkpt lat="47.658990" lon="7.798898">
        <ele>359.520632</ele>
        <time>2021-11-22T08:56:29.884Z</time>
      </trkpt>
      <trkpt lat="47.659142" lon="7.798947">
        <ele>359.595652</ele>
        <time>2021-11-22T08:56:33.284Z</time>
      </trkpt>
      <trkpt lat="47.659353" lon="7.799038">
        <ele>359.701626</ele>
        <time>2021-11-22T08:56:38.219Z</time>
      </trkpt>
      <trkpt lat="47.659617" lon="7.799151">
        <ele>359.834143</ele>
        <time>2021-11-22T08:56:44.288Z</time>
      </trkpt>
      <trkpt lat="47.659695" lon="7.799185">
        <ele>359.873351</ele>
        <time>2021-11-22T08:56:46.109Z</time>
      </trkpt>
      <trkpt lat="47.659866" lon="7.799258">
        <ele>359.959168</ele>
        <time>2021-11-22T08:56:50.105Z</time>
      </trkpt>
      <trkpt lat="47.660413" lon="7.799490">
        <ele>360.233913</ele>
        <time>2021-11-22T08:57:02.525Z</time>
      </trkpt>
      <trkpt lat="47.660755" lon="7.799654">
        <ele>360.460561</ele>
        <time>2021-11-22T08:57:10.369Z</time>
      </trkpt>
      <trkpt lat="47.660793" lon="7.799673">
        <ele>360.485847</ele>
        <time>2021-11-22T08:57:11.285Z</time>
      </trkpt>
      <trkpt lat="47.661187" lon="7.799870">
        <ele>360.748029</ele>
        <time>2021-11-22T08:57:20.592Z</time>
      </trkpt>
      <trkpt lat="47.661224" lon="7.799885">
        <ele>360.772216</ele>
        <time>2021-11-22T08:57:21.552Z</time>
      </trkpt>
      <trkpt lat="47.661603" lon="7.800090">
        <ele>361.026594</ele>
        <time>2021-11-22T08:57:30.807Z</time>
      </trkpt>
      <trkpt lat="47.662007" lon="7.800299">
        <ele>361.296393</ele>
        <time>2021-11-22T08:57:40.592Z</time>
      </trkpt>
      <trkpt lat="47.662416" lon="7.800534">
        <ele>361.574990</ele>
        <time>2021-11-22T08:57:51.209Z</time>
      </trkpt>
      <trkpt lat="47.663470" lon="7.800659">
        <ele>362.248352</ele>
        <time>2021-11-22T08:58:15.364Z</time>
      </trkpt>
      <trkpt lat="47.663623" lon="7.800669">
        <ele>362.345882</ele>
        <time>2021-11-22T08:58:18.880Z</time>
      </trkpt>
      <trkpt lat="47.663648" lon="7.800671">
        <ele>362.361826</ele>
        <time>2021-11-22T08:58:19.434Z</time>
      </trkpt>
      <trkpt lat="47.663842" lon="7.800716">
        <ele>362.486870</ele>
        <time>2021-11-22T08:58:23.636Z</time>
      </trkpt>
      <trkpt lat="47.664106" lon="7.800746">
        <ele>362.553894</ele>
        <time>2021-11-22T08:58:29.388Z</time>
      </trkpt>
      <trkpt lat="47.664689" lon="7.800933">
        <ele>362.664637</ele>
        <time>2021-11-22T08:58:42.108Z</time>
      </trkpt>
      <trkpt lat="47.664798" lon="7.800967">
        <ele>362.685317</ele>
        <time>2021-11-22T08:58:44.411Z</time>
      </trkpt>
      <trkpt lat="47.664827" lon="7.800841">
        <ele>362.701967</ele>
        <time>2021-11-22T08:58:45.736Z</time>
      </trkpt>
      <trkpt lat="47.664908" lon="7.800883">
        <ele>362.717897</ele>
        <time>2021-11-22T08:58:47.118Z</time>
      </trkpt>
      <trkpt lat="47.665300" lon="7.801038">
        <ele>362.793216</ele>
        <time>2021-11-22T08:58:53.070Z</time>
      </trkpt>
      <trkpt lat="47.668652" lon="7.801735">
        <ele>363.351398</ele>
        <time>2021-11-22T08:59:44.760Z</time>
      </trkpt>
      <trkpt lat="47.669483" lon="7.801983">
        <ele>363.685883</ele>
        <time>2021-11-22T08:59:59.015Z</time>
      </trkpt>
      <trkpt lat="47.670462" lon="7.802451">
        <ele>364.325269</ele>
        <time>2021-11-22T09:00:16.930Z</time>
      </trkpt>
      <trkpt lat="47.670527" lon="7.802447">
        <ele>364.365713</ele>
        <time>2021-11-22T09:00:18.237Z</time>
      </trkpt>
      <trkpt lat="47.671143" lon="7.802769">
        <ele>364.763386</ele>
        <time>2021-11-22T09:00:29.451Z</time>
      </trkpt>
      <trkpt lat="47.672785" lon="7.803622">
        <ele>365.993319</ele>
        <time>2021-11-22T09:00:59.188Z</time>
      </trkpt>
      <trkpt lat="47.672874" lon="7.803578">
        <ele>366.126192</ele>
        <time>2021-11-22T09:01:00.947Z</time>
      </trkpt>
      <trkpt lat="47.673221" lon="7.803029">
        <ele>366.844398</ele>
        <time>2021-11-22T09:01:10.920Z</time>
      </trkpt>
      <trkpt lat="47.673257" lon="7.802852">
        <ele>367.020759</ele>
        <time>2021-11-22T09:01:13.617Z</time>
      </trkpt>
      <trkpt lat="47.673277" lon="7.802799">
        <ele>367.078709</ele>
        <time>2021-11-22T09:01:14.507Z</time>
      </trkpt>
      <trkpt lat="47.673308" lon="7.802785">
        <ele>367.124607</ele>
        <time>2021-11-22T09:01:15.379Z</time>
      </trkpt>
      <trkpt lat="47.673363" lon="7.802809">
        <ele>367.205809</ele>
        <time>2021-11-22T09:01:16.912Z</time>
      </trkpt>
      <trkpt lat="47.673416" lon="7.802881">
        <ele>367.307557</ele>
        <time>2021-11-22T09:01:18.833Z</time>
      </trkpt>
      <trkpt lat="47.673666" lon="7.802454">
        <ele>367.847268</ele>
        <time>2021-11-22T09:01:27.296Z</time>
      </trkpt>
      <trkpt lat="47.673827" lon="7.802204">
        <ele>368.177226</ele>
        <time>2021-11-22T09:01:32.536Z</time>
      </trkpt>
      <trkpt lat="47.673974" lon="7.801975">
        <ele>368.584277</ele>
        <time>2021-11-22T09:01:37.318Z</time>
      </trkpt>
      <trkpt lat="47.674327" lon="7.801371">
        <ele>369.637085</ele>
        <time>2021-11-22T09:01:49.549Z</time>
      </trkpt>
      <trkpt lat="47.674474" lon="7.801183">
        <ele>370.016336</ele>
        <time>2021-11-22T09:01:54.129Z</time>
      </trkpt>
      <trkpt lat="47.674792" lon="7.800871">
        <ele>370.761428</ele>
        <time>2021-11-22T09:02:02.894Z</time>
      </trkpt>
      <trkpt lat="47.675532" lon="7.800539">
        <ele>372.136965</ele>
        <time>2021-11-22T09:02:20.313Z</time>
      </trkpt>
      <trkpt lat="47.675630" lon="7.800465">
        <ele>372.299277</ele>
        <time>2021-11-22T09:02:22.980Z</time>
      </trkpt>
      <trkpt lat="47.675794" lon="7.800362">
        <ele>372.562162</ele>
        <time>2021-11-22T09:02:43.555Z</time>
      </trkpt>
      <trkpt lat="47.675978" lon="7.800212">
        <ele>372.872049</ele>
        <time>2021-11-22T09:03:08.196Z</time>
      </trkpt>
      <trkpt lat="47.675982" lon="7.800209">
        <ele>372.878664</ele>
        <time>2021-11-22T09:03:08.732Z</time>
      </trkpt>
      <trkpt lat="47.676167" lon="7.800066">
        <ele>373.186572</ele>
        <time>2021-11-22T09:03:32.509Z</time>
      </trkpt>
      <trkpt lat="47.676231" lon="7.800074">
        <ele>373.281394</ele>
        <time>2021-11-22T09:03:40.468Z</time>
      </trkpt>
      <trkpt lat="47.678027" lon="7.799442">
        <ele>375.476479</ele>
        <time>2021-11-22T09:07:14.626Z</time>
      </trkpt>
      <trkpt lat="47.679151" lon="7.799219">
        <ele>376.310117</ele>
        <time>2021-11-22T09:09:23.910Z</time>
      </trkpt>
      <trkpt lat="47.679352" lon="7.799059">
        <ele>376.383909</ele>
        <time>2021-11-22T09:09:49.754Z</time>
      </trkpt>
      <trkpt lat="47.679706" lon="7.798620">
        <ele>376.533136</ele>
        <time>2021-11-22T09:10:41.790Z</time>
      </trkpt>
      <trkpt lat="47.680009" lon="7.798422">
        <ele>376.640252</ele>
        <time>2021-11-22T09:11:18.828Z</time>
      </trkpt>
      <trkpt lat="47.681013" lon="7.798798">
        <ele>376.605212</ele>
        <time>2021-11-22T09:13:13.394Z</time>
      </trkpt>
      <trkpt lat="47.681280" lon="7.798801">
        <ele>376.550074</ele>
        <time>2021-11-22T09:13:42.674Z</time>
      </trkpt>
      <trkpt lat="47.682090" lon="7.798811">
        <ele>376.382801</ele>
        <time>2021-11-22T09:15:11.873Z</time>
      </trkpt>
      <trkpt lat="47.682143" lon="7.798819">
        <ele>376.384373</ele>
        <time>2021-11-22T09:15:17.575Z</time>
      </trkpt>
      <trkpt lat="47.682432" lon="7.798569">
        <ele>376.456290</ele>
        <time>2021-11-22T09:15:54.462Z</time>
      </trkpt>
      <trkpt lat="47.683513" lon="7.798053">
        <ele>376.700455</ele>
        <time>2021-11-22T09:18:01.176Z</time>
      </trkpt>
      <trkpt lat="47.683994" lon="7.798044">
        <ele>376.962169</ele>
        <time>2021-11-22T09:18:56.490Z</time>
      </trkpt>
      <trkpt lat="47.684400" lon="7.797862">
        <ele>377.421944</ele>
        <time>2021-11-22T09:19:45.536Z</time>
      </trkpt>
      <trkpt lat="47.684465" lon="7.797824">
        <ele>377.497676</ele>
        <time>2021-11-22T09:19:53.684Z</time>
      </trkpt>
      <trkpt lat="47.684548" lon="7.797775">
        <ele>377.594507</ele>
        <time>2021-11-22T09:20:04.132Z</time>
      </trkpt>
      <trkpt lat="47.684907" lon="7.797433">
        <ele>378.056885</ele>
        <time>2021-11-22T09:20:53.292Z</time>
      </trkpt>
      <trkpt lat="47.684934" lon="7.797356">
        <ele>378.120251</ele>
        <time>2021-11-22T09:21:00.226Z</time>
      </trkpt>
      <trkpt lat="47.685144" lon="7.797223">
        <ele>378.367755</ele>
        <time>2021-11-22T09:21:05.941Z</time>
      </trkpt>
      <trkpt lat="47.685475" lon="7.797037">
        <ele>378.766975</ele>
        <time>2021-11-22T09:21:14.721Z</time>
      </trkpt>
      <trkpt lat="47.685759" lon="7.796930">
        <ele>379.219240</ele>
        <time>2021-11-22T09:21:22.091Z</time>
      </trkpt>
      <trkpt lat="47.686089" lon="7.796835">
        <ele>379.738107</ele>
        <time>2021-11-22T09:21:30.879Z</time>
      </trkpt>
      <trkpt lat="47.686357" lon="7.796753">
        <ele>380.160478</ele>
        <time>2021-11-22T09:21:38.497Z</time>
      </trkpt>
      <trkpt lat="47.686604" lon="7.796684">
        <ele>380.548432</ele>
        <time>2021-11-22T09:21:44.912Z</time>
      </trkpt>
      <trkpt lat="47.686833" lon="7.796632">
        <ele>380.906024</ele>
        <time>2021-11-22T09:21:51.119Z</time>
      </trkpt>
      <trkpt lat="47.687014" lon="7.796595">
        <ele>381.188049</ele>
        <time>2021-11-22T09:21:56.377Z</time>
      </trkpt>
      <trkpt lat="47.687125" lon="7.796572">
        <ele>381.361049</ele>
        <time>2021-11-22T09:21:59.356Z</time>
      </trkpt>
      <trkpt lat="47.687299" lon="7.796542">
        <ele>381.741364</ele>
        <time>2021-11-22T09:22:03.812Z</time>
      </trkpt>
      <trkpt lat="47.687343" lon="7.796539">
        <ele>381.862627</ele>
        <time>2021-11-22T09:22:05.132Z</time>
      </trkpt>
      <trkpt lat="47.687384" lon="7.796535">
        <ele>381.975746</ele>
        <time>2021-11-22T09:22:06.487Z</time>
      </trkpt>
      <trkpt lat="47.687595" lon="7.796515">
        <ele>382.557825</ele>
        <time>2021-11-22T09:22:11.716Z</time>
      </trkpt>
      <trkpt lat="47.687607" lon="7.796514">
        <ele>382.590914</ele>
        <time>2021-11-22T09:22:12.050Z</time>
      </trkpt>
      <trkpt lat="47.687671" lon="7.796516">
        <ele>382.767149</ele>
        <time>2021-11-22T09:22:13.832Z</time>
      </trkpt>
      <trkpt lat="47.687769" lon="7.796519">
        <ele>383.037008</ele>
        <time>2021-11-22T09:22:16.947Z</time>
      </trkpt>
      <trkpt lat="47.688322" lon="7.796634">
        <ele>384.574301</ele>
        <time>2021-11-22T09:22:31.970Z</time>
      </trkpt>
      <trkpt lat="47.688430" lon="7.796592">
        <ele>384.881652</ele>
        <time>2021-11-22T09:22:37.667Z</time>
      </trkpt>
      <trkpt lat="47.688376" lon="7.796471">
        <ele>385.150701</ele>
        <time>2021-11-22T09:22:40.077Z</time>
      </trkpt>
      <trkpt lat="47.688243" lon="7.796236">
        <ele>385.719689</ele>
        <time>2021-11-22T09:22:44.815Z</time>
      </trkpt>
      <trkpt lat="47.688225" lon="7.796220">
        <ele>385.777439</ele>
        <time>2021-11-22T09:22:45.402Z</time>
      </trkpt>
      <trkpt lat="47.688100" lon="7.796113">
        <ele>386.174617</ele>
        <time>2021-11-22T09:22:51.503Z</time>
      </trkpt>
      <trkpt lat="47.687750" lon="7.795967">
        <ele>388.148182</ele>
        <time>2021-11-22T09:23:02.937Z</time>
      </trkpt>
      <trkpt lat="47.687733" lon="7.795960">
        <ele>388.261241</ele>
        <time>2021-11-22T09:23:03.474Z</time>
      </trkpt>
      <trkpt lat="47.687589" lon="7.795875">
        <ele>389.254308</ele>
        <time>2021-11-22T09:23:07.096Z</time>
      </trkpt>
      <trkpt lat="47.687244" lon="7.795566">
        <ele>391.836166</ele>
        <time>2021-11-22T09:23:23.353Z</time>
      </trkpt>
      <trkpt lat="47.687249" lon="7.795522">
        <ele>392.028681</ele>
        <time>2021-11-22T09:23:26.559Z</time>
      </trkpt>
      <trkpt lat="47.687118" lon="7.794989">
        <ele>394.476680</ele>
        <time>2021-11-22T09:23:42.609Z</time>
      </trkpt>
      <trkpt lat="47.687098" lon="7.794479">
        <ele>396.680713</ele>
        <time>2021-11-22T09:23:57.399Z</time>
      </trkpt>
      <trkpt lat="47.687138" lon="7.794064">
        <ele>398.637598</ele>
        <time>2021-11-22T09:24:07.516Z</time>
      </trkpt>
      <trkpt lat="47.687191" lon="7.793851">
        <ele>399.896933</ele>
        <time>2021-11-22T09:24:16.825Z</time>
      </trkpt>
      <trkpt lat="47.687361" lon="7.793342">
        <ele>403.047983</ele>
        <time>2021-11-22T09:24:36.294Z</time>
      </trkpt>
      <trkpt lat="47.687464" lon="7.792610">
        <ele>407.195116</ele>
        <time>2021-11-22T09:25:00.481Z</time>
      </trkpt>
      <trkpt lat="47.687407" lon="7.792415">
        <ele>408.374062</ele>
        <time>2021-11-22T09:25:07.272Z</time>
      </trkpt>
      <trkpt lat="47.687158" lon="7.792068">
        <ele>411.186672</ele>
        <time>2021-11-22T09:25:24.137Z</time>
      </trkpt>
      <trkpt lat="47.687038" lon="7.791877">
        <ele>412.635535</ele>
        <time>2021-11-22T09:25:32.224Z</time>
      </trkpt>
      <trkpt lat="47.687040" lon="7.791794">
        <ele>413.096023</ele>
        <time>2021-11-22T09:25:36.146Z</time>
      </trkpt>
      <trkpt lat="47.687103" lon="7.791534">
        <ele>414.627973</ele>
        <time>2021-11-22T09:25:43.764Z</time>
      </trkpt>
      <trkpt lat="47.687215" lon="7.791427">
        <ele>415.724625</ele>
        <time>2021-11-22T09:25:49.299Z</time>
      </trkpt>
      <trkpt lat="47.687813" lon="7.791654">
        <ele>420.807653</ele>
        <time>2021-11-22T09:26:20.186Z</time>
      </trkpt>
      <trkpt lat="47.687969" lon="7.791654">
        <ele>422.092379</ele>
        <time>2021-11-22T09:26:27.684Z</time>
      </trkpt>
      <trkpt lat="47.688121" lon="7.791525">
        <ele>423.534046</ele>
        <time>2021-11-22T09:26:36.524Z</time>
      </trkpt>
      <trkpt lat="47.688316" lon="7.791155">
        <ele>426.139112</ele>
        <time>2021-11-22T09:26:51.926Z</time>
      </trkpt>
      <trkpt lat="47.688559" lon="7.790888">
        <ele>428.587589</ele>
        <time>2021-11-22T09:27:03.027Z</time>
      </trkpt>
      <trkpt lat="47.688615" lon="7.790837">
        <ele>429.107150</ele>
        <time>2021-11-22T09:27:07.595Z</time>
      </trkpt>
      <trkpt lat="47.688719" lon="7.790743">
        <ele>430.070066</ele>
        <time>2021-11-22T09:27:14.513Z</time>
      </trkpt>
      <trkpt lat="47.688799" lon="7.790640">
        <ele>430.907435</ele>
        <time>2021-11-22T09:27:18.079Z</time>
      </trkpt>
      <trkpt lat="47.688847" lon="7.790430">
        <ele>432.088286</ele>
        <time>2021-11-22T09:27:25.407Z</time>
      </trkpt>
      <trkpt lat="47.688671" lon="7.790034">
        <ele>434.614913</ele>
        <time>2021-11-22T09:27:40.170Z</time>
      </trkpt>
      <trkpt lat="47.688652" lon="7.789780">
        <ele>435.975671</ele>
        <time>2021-11-22T09:27:49.423Z</time>
      </trkpt>
      <trkpt lat="47.688823" lon="7.789278">
        <ele>438.971325</ele>
        <time>2021-11-22T09:28:06.733Z</time>
      </trkpt>
      <trkpt lat="47.688888" lon="7.789165">
        <ele>439.762744</ele>
        <time>2021-11-22T09:28:09.899Z</time>
      </trkpt>
      <trkpt lat="47.688994" lon="7.789125">
        <ele>440.627809</ele>
        <time>2021-11-22T09:28:15.700Z</time>
      </trkpt>
      <trkpt lat="47.689053" lon="7.789168">
        <ele>441.147624</ele>
        <time>2021-11-22T09:28:19.334Z</time>
      </trkpt>
      <trkpt lat="47.689075" lon="7.789206">
        <ele>441.414493</ele>
        <time>2021-11-22T09:28:21.576Z</time>
      </trkpt>
      <trkpt lat="47.689060" lon="7.789389">
        <ele>442.547192</ele>
        <time>2021-11-22T09:28:25.512Z</time>
      </trkpt>
      <trkpt lat="47.688948" lon="7.789669">
        <ele>444.741871</ele>
        <time>2021-11-22T09:28:34.454Z</time>
      </trkpt>
      <trkpt lat="47.688941" lon="7.789940">
        <ele>446.569291</ele>
        <time>2021-11-22T09:28:41.501Z</time>
      </trkpt>
      <trkpt lat="47.689112" lon="7.790189">
        <ele>448.966179</ele>
        <time>2021-11-22T09:28:56.934Z</time>
      </trkpt>
      <trkpt lat="47.689457" lon="7.790508">
        <ele>453.033940</ele>
        <time>2021-11-22T09:29:19.740Z</time>
      </trkpt>
      <trkpt lat="47.689560" lon="7.790697">
        <ele>454.672501</ele>
        <time>2021-11-22T09:29:28.996Z</time>
      </trkpt>
      <trkpt lat="47.689594" lon="7.790998">
        <ele>456.729058</ele>
        <time>2021-11-22T09:29:42.606Z</time>
      </trkpt>
      <trkpt lat="47.689483" lon="7.791571">
        <ele>460.921096</ele>
        <time>2021-11-22T09:30:05.711Z</time>
      </trkpt>
      <trkpt lat="47.689478" lon="7.791714">
        <ele>462.069730</ele>
        <time>2021-11-22T09:30:12.299Z</time>
      </trkpt>
      <trkpt lat="47.689493" lon="7.791819">
        <ele>462.930756</ele>
        <time>2021-11-22T09:30:18.846Z</time>
      </trkpt>
      <trkpt lat="47.689562" lon="7.791973">
        <ele>464.414706</ele>
        <time>2021-11-22T09:30:24.940Z</time>
      </trkpt>
      <trkpt lat="47.689723" lon="7.792013">
        <ele>466.359914</ele>
        <time>2021-11-22T09:30:34.954Z</time>
      </trkpt>
      <trkpt lat="47.690160" lon="7.791653">
        <ele>472.314528</ele>
        <time>2021-11-22T09:31:08.424Z</time>
      </trkpt>
      <trkpt lat="47.690673" lon="7.791691">
        <ele>478.435305</ele>
        <time>2021-11-22T09:31:40.411Z</time>
      </trkpt>
      <trkpt lat="47.690878" lon="7.791600">
        <ele>480.984920</ele>
        <time>2021-11-22T09:31:56.082Z</time>
      </trkpt>
      <trkpt lat="47.690962" lon="7.791506">
        <ele>482.038307</ele>
        <time>2021-11-22T09:32:01.540Z</time>
      </trkpt>
      <trkpt lat="47.691191" lon="7.790978">
        <ele>486.042115</ele>
        <time>2021-11-22T09:32:23.525Z</time>
      </trkpt>
      <trkpt lat="47.691292" lon="7.790910">
        <ele>487.092200</ele>
        <time>2021-11-22T09:32:29.285Z</time>
      </trkpt>
      <trkpt lat="47.691492" lon="7.790912">
        <ele>488.986200</ele>
        <time>2021-11-22T09:32:39.234Z</time>
      </trkpt>
      <trkpt lat="47.691895" lon="7.791101">
        <ele>492.988167</ele>
        <time>2021-11-22T09:33:00.291Z</time>
      </trkpt>
      <trkpt lat="47.692274" lon="7.791152">
        <ele>496.591909</ele>
        <time>2021-11-22T09:33:19.310Z</time>
      </trkpt>
      <trkpt lat="47.692357" lon="7.791249">
        <ele>497.591948</ele>
        <time>2021-11-22T09:33:24.675Z</time>
      </trkpt>
      <trkpt lat="47.692453" lon="7.791760">
        <ele>501.545966</ele>
        <time>2021-11-22T09:33:42.740Z</time>
      </trkpt>
      <trkpt lat="47.692577" lon="7.791966">
        <ele>503.684265</ele>
        <time>2021-11-22T09:33:52.396Z</time>
      </trkpt>
      <trkpt lat="47.692958" lon="7.792103">
        <ele>508.190360</ele>
        <time>2021-11-22T09:34:14.853Z</time>
      </trkpt>
      <trkpt lat="47.693130" lon="7.792245">
        <ele>510.452288</ele>
        <time>2021-11-22T09:34:27.069Z</time>
      </trkpt>
      <trkpt lat="47.693282" lon="7.792508">
        <ele>513.134421</ele>
        <time>2021-11-22T09:34:41.912Z</time>
      </trkpt>
      <trkpt lat="47.693458" lon="7.792642">
        <ele>515.407757</ele>
        <time>2021-11-22T09:34:55.237Z</time>
      </trkpt>
      <trkpt lat="47.693702" lon="7.792693">
        <ele>518.240186</ele>
        <time>2021-11-22T09:35:12.452Z</time>
      </trkpt>
      <trkpt lat="47.693919" lon="7.792585">
        <ele>521.454281</ele>
        <time>2021-11-22T09:35:28.944Z</time>
      </trkpt>
      <trkpt lat="47.694013" lon="7.792371">
        <ele>524.039330</ele>
        <time>2021-11-22T09:35:41.900Z</time>
      </trkpt>
      <trkpt lat="47.694064" lon="7.791324">
        <ele>534.658599</ele>
        <time>2021-11-22T09:36:35.788Z</time>
      </trkpt>
      <trkpt lat="47.693979" lon="7.790379">
        <ele>544.303310</ele>
        <time>2021-11-22T09:37:28.188Z</time>
      </trkpt>
      <trkpt lat="47.693998" lon="7.789148">
        <ele>554.306469</ele>
        <time>2021-11-22T09:38:23.968Z</time>
      </trkpt>
      <trkpt lat="47.693993" lon="7.788872">
        <ele>556.462397</ele>
        <time>2021-11-22T09:38:37.546Z</time>
      </trkpt>
      <trkpt lat="47.693980" lon="7.788494">
        <ele>559.417862</ele>
        <time>2021-11-22T09:38:51.593Z</time>
      </trkpt>
      <trkpt lat="47.694047" lon="7.788220">
        <ele>561.694202</ele>
        <time>2021-11-22T09:39:02.930Z</time>
      </trkpt>
      <trkpt lat="47.694456" lon="7.787953">
        <ele>566.874701</ele>
        <time>2021-11-22T09:39:24.763Z</time>
      </trkpt>
      <trkpt lat="47.694478" lon="7.787914">
        <ele>567.101849</ele>
        <time>2021-11-22T09:39:26.324Z</time>
      </trkpt>
      <trkpt lat="47.694417" lon="7.787167">
        <ele>570.460847</ele>
        <time>2021-11-22T09:39:51.094Z</time>
      </trkpt>
      <trkpt lat="47.694107" lon="7.785943">
        <ele>576.298702</ele>
        <time>2021-11-22T09:40:22.501Z</time>
      </trkpt>
      <trkpt lat="47.694144" lon="7.785593">
        <ele>577.880235</ele>
        <time>2021-11-22T09:40:32.363Z</time>
      </trkpt>
      <trkpt lat="47.694397" lon="7.785583">
        <ele>579.631768</ele>
        <time>2021-11-22T09:40:42.743Z</time>
      </trkpt>
      <trkpt lat="47.694834" lon="7.785803">
        <ele>582.986583</ele>
        <time>2021-11-22T09:41:00.632Z</time>
      </trkpt>
      <trkpt lat="47.695081" lon="7.786017">
        <ele>585.065536</ele>
        <time>2021-11-22T09:41:12.527Z</time>
      </trkpt>
      <trkpt lat="47.695162" lon="7.786020">
        <ele>585.654658</ele>
        <time>2021-11-22T09:41:15.988Z</time>
      </trkpt>
      <trkpt lat="47.695230" lon="7.785993">
        <ele>586.166427</ele>
        <time>2021-11-22T09:41:19.073Z</time>
      </trkpt>
      <trkpt lat="47.695490" lon="7.785615">
        <ele>588.811357</ele>
        <time>2021-11-22T09:41:35.848Z</time>
      </trkpt>
      <trkpt lat="47.695771" lon="7.785532">
        <ele>590.894448</ele>
        <time>2021-11-22T09:41:49.599Z</time>
      </trkpt>
      <trkpt lat="47.695906" lon="7.785323">
        <ele>592.332845</ele>
        <time>2021-11-22T09:42:00.379Z</time>
      </trkpt>
      <trkpt lat="47.696013" lon="7.785035">
        <ele>594.019886</ele>
        <time>2021-11-22T09:42:11.176Z</time>
      </trkpt>
      <trkpt lat="47.696342" lon="7.784550">
        <ele>597.551224</ele>
        <time>2021-11-22T09:42:34.489Z</time>
      </trkpt>
      <trkpt lat="47.696383" lon="7.784288">
        <ele>598.930682</ele>
        <time>2021-11-22T09:42:43.083Z</time>
      </trkpt>
      <trkpt lat="47.696366" lon="7.783565">
        <ele>602.640716</ele>
        <time>2021-11-22T09:43:04.746Z</time>
      </trkpt>
      <trkpt lat="47.696408" lon="7.783395">
        <ele>603.569408</ele>
        <time>2021-11-22T09:43:11.194Z</time>
      </trkpt>
      <trkpt lat="47.696486" lon="7.783198">
        <ele>604.741529</ele>
        <time>2021-11-22T09:43:16.374Z</time>
      </trkpt>
      <trkpt lat="47.696640" lon="7.782774">
        <ele>606.075837</ele>
        <time>2021-11-22T09:43:28.690Z</time>
      </trkpt>
      <trkpt lat="47.696767" lon="7.782153">
        <ele>607.082962</ele>
        <time>2021-11-22T09:43:41.890Z</time>
      </trkpt>
      <trkpt lat="47.696801" lon="7.781858">
        <ele>607.547384</ele>
        <time>2021-11-22T09:43:48.121Z</time>
      </trkpt>
      <trkpt lat="47.696836" lon="7.781652">
        <ele>607.877068</ele>
        <time>2021-11-22T09:43:50.824Z</time>
      </trkpt>
      <trkpt lat="47.696845" lon="7.781614">
        <ele>607.939577</ele>
        <time>2021-11-22T09:43:51.457Z</time>
      </trkpt>
      <trkpt lat="47.696884" lon="7.781453">
        <ele>608.205093</ele>
        <time>2021-11-22T09:43:55.075Z</time>
      </trkpt>
      <trkpt lat="47.696944" lon="7.781257">
        <ele>608.539211</ele>
        <time>2021-11-22T09:43:58.324Z</time>
      </trkpt>
      <trkpt lat="47.696990" lon="7.781173">
        <ele>608.707249</ele>
        <time>2021-11-22T09:43:59.518Z</time>
      </trkpt>
      <trkpt lat="47.697264" lon="7.780663">
        <ele>609.719835</ele>
        <time>2021-11-22T09:44:07.515Z</time>
      </trkpt>
      <trkpt lat="47.697658" lon="7.780323">
        <ele>609.433699</ele>
        <time>2021-11-22T09:44:16.549Z</time>
      </trkpt>
      <trkpt lat="47.697945" lon="7.780189">
        <ele>609.236553</ele>
        <time>2021-11-22T09:44:21.716Z</time>
      </trkpt>
      <trkpt lat="47.698154" lon="7.780123">
        <ele>609.096531</ele>
        <time>2021-11-22T09:44:25.247Z</time>
      </trkpt>
      <trkpt lat="47.698447" lon="7.779902">
        <ele>608.881197</ele>
        <time>2021-11-22T09:44:30.903Z</time>
      </trkpt>
      <trkpt lat="47.698475" lon="7.779880">
        <ele>608.860440</ele>
        <time>2021-11-22T09:44:31.429Z</time>
      </trkpt>
      <trkpt lat="47.698587" lon="7.779726">
        <ele>608.760438</ele>
        <time>2021-11-22T09:44:34.152Z</time>
      </trkpt>
      <trkpt lat="47.698642" lon="7.779650">
        <ele>608.711217</ele>
        <time>2021-11-22T09:44:35.561Z</time>
      </trkpt>
      <trkpt lat="47.698710" lon="7.779556">
        <ele>608.650352</ele>
        <time>2021-11-22T09:44:37.071Z</time>
      </trkpt>
      <trkpt lat="47.698808" lon="7.779539">
        <ele>608.585694</ele>
        <time>2021-11-22T09:44:38.727Z</time>
      </trkpt>
      <trkpt lat="47.698885" lon="7.779548">
        <ele>608.606070</ele>
        <time>2021-11-22T09:44:40.236Z</time>
      </trkpt>
      <trkpt lat="47.699125" lon="7.779997">
        <ele>609.492460</ele>
        <time>2021-11-22T09:44:47.726Z</time>
      </trkpt>
      <trkpt lat="47.699178" lon="7.780072">
        <ele>609.660576</ele>
        <time>2021-11-22T09:44:50.951Z</time>
      </trkpt>
      <trkpt lat="47.699303" lon="7.780284">
        <ele>610.096287</ele>
        <time>2021-11-22T09:44:55.111Z</time>
      </trkpt>
      <trkpt lat="47.699485" lon="7.780907">
        <ele>611.146196</ele>
        <time>2021-11-22T09:45:09.935Z</time>
      </trkpt>
      <trkpt lat="47.699567" lon="7.781770">
        <ele>612.493529</ele>
        <time>2021-11-22T09:45:29.553Z</time>
      </trkpt>
      <trkpt lat="47.699571" lon="7.781795">
        <ele>612.533253</ele>
        <time>2021-11-22T09:45:29.997Z</time>
      </trkpt>
      <trkpt lat="47.699595" lon="7.781921">
        <ele>612.803844</ele>
        <time>2021-11-22T09:45:32.694Z</time>
      </trkpt>
      <trkpt lat="47.699627" lon="7.782061">
        <ele>613.323836</ele>
        <time>2021-11-22T09:45:38.308Z</time>
      </trkpt>
      <trkpt lat="47.700372" lon="7.783081">
        <ele>618.617650</ele>
        <time>2021-11-22T09:46:18.042Z</time>
      </trkpt>
      <trkpt lat="47.700330" lon="7.783587">
        <ele>620.410676</ele>
        <time>2021-11-22T09:46:32.151Z</time>
      </trkpt>
      <trkpt lat="47.700262" lon="7.783863">
        <ele>621.444335</ele>
        <time>2021-11-22T09:46:44.247Z</time>
      </trkpt>
      <trkpt lat="47.700199" lon="7.784178">
        <ele>622.693361</ele>
        <time>2021-11-22T09:46:52.736Z</time>
      </trkpt>
      <trkpt lat="47.700180" lon="7.784393">
        <ele>623.593171</ele>
        <time>2021-11-22T09:47:00.396Z</time>
      </trkpt>
      <trkpt lat="47.700183" lon="7.784447">
        <ele>623.818008</ele>
        <time>2021-11-22T09:47:01.346Z</time>
      </trkpt>
      <trkpt lat="47.700199" lon="7.784739">
        <ele>625.033683</ele>
        <time>2021-11-22T09:47:09.939Z</time>
      </trkpt>
      <trkpt lat="47.700227" lon="7.784927">
        <ele>625.832670</ele>
        <time>2021-11-22T09:47:16.117Z</time>
      </trkpt>
      <trkpt lat="47.700237" lon="7.784995">
        <ele>626.121497</ele>
        <time>2021-11-22T09:47:17.236Z</time>
      </trkpt>
      <trkpt lat="47.700352" lon="7.784986">
        <ele>626.831528</ele>
        <time>2021-11-22T09:47:21.915Z</time>
      </trkpt>
      <trkpt lat="47.700744" lon="7.784880">
        <ele>629.288158</ele>
        <time>2021-11-22T09:47:39.713Z</time>
      </trkpt>
      <trkpt lat="47.700779" lon="7.784852">
        <ele>629.533245</ele>
        <time>2021-11-22T09:47:42.657Z</time>
      </trkpt>
      <trkpt lat="47.700812" lon="7.784743">
        <ele>630.029198</ele>
        <time>2021-11-22T09:47:47.834Z</time>
      </trkpt>
      <trkpt lat="47.700881" lon="7.784381">
        <ele>631.590396</ele>
        <time>2021-11-22T09:47:56.355Z</time>
      </trkpt>
      <trkpt lat="47.701216" lon="7.783890">
        <ele>634.703511</ele>
        <time>2021-11-22T09:48:18.449Z</time>
      </trkpt>
      <trkpt lat="47.701335" lon="7.783549">
        <ele>636.553110</ele>
        <time>2021-11-22T09:48:29.167Z</time>
      </trkpt>
      <trkpt lat="47.701368" lon="7.783411">
        <ele>637.258305</ele>
        <time>2021-11-22T09:48:36.100Z</time>
      </trkpt>
      <trkpt lat="47.701380" lon="7.783310">
        <ele>637.752158</ele>
        <time>2021-11-22T09:48:38.701Z</time>
      </trkpt>
      <trkpt lat="47.701377" lon="7.783226">
        <ele>638.157201</ele>
        <time>2021-11-22T09:48:40.818Z</time>
      </trkpt>
      <trkpt lat="47.701369" lon="7.782972">
        <ele>639.381594</ele>
        <time>2021-11-22T09:48:49.237Z</time>
      </trkpt>
      <trkpt lat="47.701237" lon="7.782362">
        <ele>642.466955</ele>
        <time>2021-11-22T09:49:09.240Z</time>
      </trkpt>
      <trkpt lat="47.701196" lon="7.780571">
        <ele>652.286588</ele>
        <time>2021-11-22T09:50:15.096Z</time>
      </trkpt>
      <trkpt lat="47.701247" lon="7.780305">
        <ele>653.932027</ele>
        <time>2021-11-22T09:50:23.732Z</time>
      </trkpt>
      <trkpt lat="47.701342" lon="7.780162">
        <ele>655.127421</ele>
        <time>2021-11-22T09:50:33.159Z</time>
      </trkpt>
      <trkpt lat="47.701637" lon="7.779988">
        <ele>657.933099</ele>
        <time>2021-11-22T09:50:50.397Z</time>
      </trkpt>
      <trkpt lat="47.701726" lon="7.779970">
        <ele>658.727094</ele>
        <time>2021-11-22T09:50:57.482Z</time>
      </trkpt>
      <trkpt lat="47.702101" lon="7.780072">
        <ele>662.096970</ele>
        <time>2021-11-22T09:51:18.509Z</time>
      </trkpt>
      <trkpt lat="47.702259" lon="7.780163">
        <ele>663.593710</ele>
        <time>2021-11-22T09:51:25.473Z</time>
      </trkpt>
      <trkpt lat="47.702323" lon="7.780178">
        <ele>664.165994</ele>
        <time>2021-11-22T09:51:29.849Z</time>
      </trkpt>
      <trkpt lat="47.702403" lon="7.780229">
        <ele>664.934900</ele>
        <time>2021-11-22T09:51:36.345Z</time>
      </trkpt>
      <trkpt lat="47.703200" lon="7.780360">
        <ele>672.017530</ele>
        <time>2021-11-22T09:52:21.711Z</time>
      </trkpt>
      <trkpt lat="47.703463" lon="7.780169">
        <ele>674.603138</ele>
        <time>2021-11-22T09:52:37.671Z</time>
      </trkpt>
      <trkpt lat="47.703606" lon="7.779919">
        <ele>676.553440</ele>
        <time>2021-11-22T09:52:48.502Z</time>
      </trkpt>
      <trkpt lat="47.703620" lon="7.779806">
        <ele>677.236415</ele>
        <time>2021-11-22T09:52:53.349Z</time>
      </trkpt>
      <trkpt lat="47.703537" lon="7.778998">
        <ele>682.649972</ele>
        <time>2021-11-22T09:53:22.053Z</time>
      </trkpt>
      <trkpt lat="47.703561" lon="7.778786">
        <ele>684.094014</ele>
        <time>2021-11-22T09:53:30.291Z</time>
      </trkpt>
      <trkpt lat="47.703633" lon="7.778652">
        <ele>685.245815</ele>
        <time>2021-11-22T09:53:37.148Z</time>
      </trkpt>
      <trkpt lat="47.703803" lon="7.778607">
        <ele>686.969364</ele>
        <time>2021-11-22T09:53:47.845Z</time>
      </trkpt>
      <trkpt lat="47.704882" lon="7.779266">
        <ele>697.692863</ele>
        <time>2021-11-22T09:55:04.184Z</time>
      </trkpt>
      <trkpt lat="47.705185" lon="7.779390">
        <ele>699.810751</ele>
        <time>2021-11-22T09:55:23.899Z</time>
      </trkpt>
      <trkpt lat="47.705483" lon="7.779457">
        <ele>701.841783</ele>
        <time>2021-11-22T09:55:41.550Z</time>
      </trkpt>
      <trkpt lat="47.705864" lon="7.779393">
        <ele>704.425637</ele>
        <time>2021-11-22T09:55:58.656Z</time>
      </trkpt>
      <trkpt lat="47.706167" lon="7.779414">
        <ele>706.469728</ele>
        <time>2021-11-22T09:56:10.078Z</time>
      </trkpt>
      <trkpt lat="47.706622" lon="7.779645">
        <ele>706.566354</ele>
        <time>2021-11-22T09:56:18.563Z</time>
      </trkpt>
      <trkpt lat="47.706835" lon="7.779679">
        <ele>705.502078</ele>
        <time>2021-11-22T09:56:23.683Z</time>
      </trkpt>
      <trkpt lat="47.707164" lon="7.779461">
        <ele>703.712479</ele>
        <time>2021-11-22T09:56:28.595Z</time>
      </trkpt>
      <trkpt lat="47.707188" lon="7.779421">
        <ele>703.533319</ele>
        <time>2021-11-22T09:56:29.046Z</time>
      </trkpt>
      <trkpt lat="47.707216" lon="7.779325">
        <ele>703.183533</ele>
        <time>2021-11-22T09:56:29.858Z</time>
      </trkpt>
      <trkpt lat="47.707375" lon="7.778429">
        <ele>700.085735</ele>
        <time>2021-11-22T09:56:37.950Z</time>
      </trkpt>
      <trkpt lat="47.707656" lon="7.777856">
        <ele>697.415868</ele>
        <time>2021-11-22T09:56:43.759Z</time>
      </trkpt>
      <trkpt lat="47.707959" lon="7.777497">
        <ele>695.029011</ele>
        <time>2021-11-22T09:56:48.538Z</time>
      </trkpt>
      <trkpt lat="47.708005" lon="7.777449">
        <ele>694.682808</ele>
        <time>2021-11-22T09:56:49.313Z</time>
      </trkpt>
      <trkpt lat="47.708316" lon="7.777132">
        <ele>692.359949</ele>
        <time>2021-11-22T09:56:54.301Z</time>
      </trkpt>
      <trkpt lat="47.708539" lon="7.776943">
        <ele>690.778728</ele>
        <time>2021-11-22T09:56:57.752Z</time>
      </trkpt>
      <trkpt lat="47.708637" lon="7.776787">
        <ele>689.894190</ele>
        <time>2021-11-22T09:56:59.745Z</time>
      </trkpt>
      <trkpt lat="47.708793" lon="7.776065">
        <ele>687.615402</ele>
        <time>2021-11-22T09:57:06.927Z</time>
      </trkpt>
      <trkpt lat="47.708969" lon="7.775711">
        <ele>687.180233</ele>
        <time>2021-11-22T09:57:11.699Z</time>
      </trkpt>
      <trkpt lat="47.709008" lon="7.775122">
        <ele>686.595081</ele>
        <time>2021-11-22T09:57:18.694Z</time>
      </trkpt>
      <trkpt lat="47.709105" lon="7.774951">
        <ele>686.373957</ele>
        <time>2021-11-22T09:57:21.508Z</time>
      </trkpt>
      <trkpt lat="47.709263" lon="7.774850">
        <ele>686.121240</ele>
        <time>2021-11-22T09:57:25.034Z</time>
      </trkpt>
      <trkpt lat="47.709477" lon="7.774812">
        <ele>685.804572</ele>
        <time>2021-11-22T09:57:29.584Z</time>
      </trkpt>
      <trkpt lat="47.709762" lon="7.774915">
        <ele>685.373615</ele>
        <time>2021-11-22T09:57:35.957Z</time>
      </trkpt>
      <trkpt lat="47.710099" lon="7.775135">
        <ele>684.269045</ele>
        <time>2021-11-22T09:57:41.728Z</time>
      </trkpt>
      <trkpt lat="47.710322" lon="7.775177">
        <ele>683.485268</ele>
        <time>2021-11-22T09:57:45.033Z</time>
      </trkpt>
      <trkpt lat="47.711031" lon="7.775005">
        <ele>680.980403</ele>
        <time>2021-11-22T09:57:55.421Z</time>
      </trkpt>
      <trkpt lat="47.711239" lon="7.774801">
        <ele>680.111455</ele>
        <time>2021-11-22T09:57:58.973Z</time>
      </trkpt>
      <trkpt lat="47.711283" lon="7.774725">
        <ele>679.876229</ele>
        <time>2021-11-22T09:57:59.801Z</time>
      </trkpt>
      <trkpt lat="47.711327" lon="7.774552">
        <ele>679.442317</ele>
        <time>2021-11-22T09:58:01.596Z</time>
      </trkpt>
      <trkpt lat="47.711333" lon="7.774466">
        <ele>679.239466</ele>
        <time>2021-11-22T09:58:02.340Z</time>
      </trkpt>
      <trkpt lat="47.711464" lon="7.774407">
        <ele>678.603413</ele>
        <time>2021-11-22T09:58:04.148Z</time>
      </trkpt>
      <trkpt lat="47.711930" lon="7.774081">
        <ele>675.447591</ele>
        <time>2021-11-22T09:58:10.917Z</time>
      </trkpt>
      <trkpt lat="47.712046" lon="7.774031">
        <ele>674.707538</ele>
        <time>2021-11-22T09:58:12.475Z</time>
      </trkpt>
      <trkpt lat="47.712168" lon="7.774078">
        <ele>673.935305</ele>
        <time>2021-11-22T09:58:14.046Z</time>
      </trkpt>
      <trkpt lat="47.712286" lon="7.774181">
        <ele>673.096808</ele>
        <time>2021-11-22T09:58:15.883Z</time>
      </trkpt>
      <trkpt lat="47.712376" lon="7.774269">
        <ele>672.436712</ele>
        <time>2021-11-22T09:58:17.232Z</time>
      </trkpt>
      <trkpt lat="47.712647" lon="7.774491">
        <ele>670.540687</ele>
        <time>2021-11-22T09:58:21.105Z</time>
      </trkpt>
      <trkpt lat="47.713430" lon="7.775192">
        <ele>667.602709</ele>
        <time>2021-11-22T09:58:33.441Z</time>
      </trkpt>
      <trkpt lat="47.713608" lon="7.775269">
        <ele>667.471301</ele>
        <time>2021-11-22T09:58:36.139Z</time>
      </trkpt>
      <trkpt lat="47.713668" lon="7.775286">
        <ele>667.428005</ele>
        <time>2021-11-22T09:58:36.924Z</time>
      </trkpt>
      <trkpt lat="47.713843" lon="7.775322">
        <ele>667.302776</ele>
        <time>2021-11-22T09:58:41.448Z</time>
      </trkpt>
      <trkpt lat="47.713932" lon="7.775337">
        <ele>667.239286</ele>
        <time>2021-11-22T09:58:42.890Z</time>
      </trkpt>
      <trkpt lat="47.713977" lon="7.775345">
        <ele>667.207161</ele>
        <time>2021-11-22T09:58:43.609Z</time>
      </trkpt>
      <trkpt lat="47.714158" lon="7.775376">
        <ele>667.078013</ele>
        <time>2021-11-22T09:58:48.940Z</time>
      </trkpt>
      <trkpt lat="47.714374" lon="7.775352">
        <ele>666.924477</ele>
        <time>2021-11-22T09:58:53.414Z</time>
      </trkpt>
      <trkpt lat="47.714479" lon="7.775293">
        <ele>666.844908</ele>
        <time>2021-11-22T09:58:58.552Z</time>
      </trkpt>
      <trkpt lat="47.714599" lon="7.775218">
        <ele>666.752634</ele>
        <time>2021-11-22T09:59:02.756Z</time>
      </trkpt>
      <trkpt lat="47.714709" lon="7.775124">
        <ele>666.824389</ele>
        <time>2021-11-22T09:59:05.753Z</time>
      </trkpt>
      <trkpt lat="47.714661" lon="7.774975">
        <ele>667.694033</ele>
        <time>2021-11-22T09:59:11.958Z</time>
      </trkpt>
      <trkpt lat="47.714572" lon="7.774613">
        <ele>669.722929</ele>
        <time>2021-11-22T09:59:21.061Z</time>
      </trkpt>
      <trkpt lat="47.714325" lon="7.773966">
        <ele>673.638977</ele>
        <time>2021-11-22T09:59:48.023Z</time>
      </trkpt>
      <trkpt lat="47.713713" lon="7.772531">
        <ele>682.186391</ele>
        <time>2021-11-22T10:00:57.638Z</time>
      </trkpt>
      <trkpt lat="47.713013" lon="7.771093">
        <ele>689.509596</ele>
        <time>2021-11-22T10:01:55.549Z</time>
      </trkpt>
      <trkpt lat="47.712784" lon="7.770624">
        <ele>691.740780</ele>
        <time>2021-11-22T10:02:06.404Z</time>
      </trkpt>
      <trkpt lat="47.712674" lon="7.770495">
        <ele>691.474114</ele>
        <time>2021-11-22T10:02:09.172Z</time>
      </trkpt>
      <trkpt lat="47.712515" lon="7.770367">
        <ele>691.129978</ele>
        <time>2021-11-22T10:02:13.687Z</time>
      </trkpt>
      <trkpt lat="47.712441" lon="7.770288">
        <ele>690.956580</ele>
        <time>2021-11-22T10:02:14.983Z</time>
      </trkpt>
      <trkpt lat="47.712373" lon="7.770214">
        <ele>690.796184</ele>
        <time>2021-11-22T10:02:16.682Z</time>
      </trkpt>
      <trkpt lat="47.712369" lon="7.770124">
        <ele>690.680686</ele>
        <time>2021-11-22T10:02:17.780Z</time>
      </trkpt>
      <trkpt lat="47.712377" lon="7.770047">
        <ele>690.580918</ele>
        <time>2021-11-22T10:02:19.057Z</time>
      </trkpt>
      <trkpt lat="47.712406" lon="7.769971">
        <ele>690.469038</ele>
        <time>2021-11-22T10:02:20.131Z</time>
      </trkpt>
      <trkpt lat="47.712317" lon="7.769895">
        <ele>690.273692</ele>
        <time>2021-11-22T10:02:21.105Z</time>
      </trkpt>
      <trkpt lat="47.711976" lon="7.769448">
        <ele>689.408365</ele>
        <time>2021-11-22T10:02:25.653Z</time>
      </trkpt>
      <trkpt lat="47.711641" lon="7.768676">
        <ele>688.290356</ele>
        <time>2021-11-22T10:02:31.635Z</time>
      </trkpt>
      <trkpt lat="47.711558" lon="7.768253">
        <ele>687.992451</ele>
        <time>2021-11-22T10:02:34.639Z</time>
      </trkpt>
      <trkpt lat="47.711522" lon="7.767707">
        <ele>687.621528</ele>
        <time>2021-11-22T10:02:38.591Z</time>
      </trkpt>
      <trkpt lat="47.711535" lon="7.767521">
        <ele>687.495096</ele>
        <time>2021-11-22T10:02:39.944Z</time>
      </trkpt>
      <trkpt lat="47.711594" lon="7.766979">
        <ele>687.123881</ele>
        <time>2021-11-22T10:02:45.145Z</time>
      </trkpt>
      <trkpt lat="47.711544" lon="7.766597">
        <ele>686.860767</ele>
        <time>2021-11-22T10:02:49.921Z</time>
      </trkpt>
      <trkpt lat="47.711280" lon="7.766040">
        <ele>687.077548</ele>
        <time>2021-11-22T10:02:58.302Z</time>
      </trkpt>
      <trkpt lat="47.710793" lon="7.765513">
        <ele>689.240126</ele>
        <time>2021-11-22T10:03:14.563Z</time>
      </trkpt>
      <trkpt lat="47.709779" lon="7.764609">
        <ele>693.379660</ele>
        <time>2021-11-22T10:03:54.910Z</time>
      </trkpt>
      <trkpt lat="47.709606" lon="7.764460">
        <ele>693.940001</ele>
        <time>2021-11-22T10:04:01.523Z</time>
      </trkpt>
      <trkpt lat="47.709431" lon="7.764294">
        <ele>694.521801</ele>
        <time>2021-11-22T10:04:07.242Z</time>
      </trkpt>
      <trkpt lat="47.709325" lon="7.764019">
        <ele>695.119420</ele>
        <time>2021-11-22T10:04:13.582Z</time>
      </trkpt>
      <trkpt lat="47.709385" lon="7.763694">
        <ele>695.754917</ele>
        <time>2021-11-22T10:04:18.547Z</time>
      </trkpt>
      <trkpt lat="47.709432" lon="7.763572">
        <ele>696.020007</ele>
        <time>2021-11-22T10:04:22.277Z</time>
      </trkpt>
      <trkpt lat="47.709462" lon="7.763486">
        <ele>696.202672</ele>
        <time>2021-11-22T10:04:23.349Z</time>
      </trkpt>
      <trkpt lat="47.709753" lon="7.762866">
        <ele>697.628109</ele>
        <time>2021-11-22T10:04:33.642Z</time>
      </trkpt>
      <trkpt lat="47.710158" lon="7.762372">
        <ele>698.314996</ele>
        <time>2021-11-22T10:04:45.853Z</time>
      </trkpt>
      <trkpt lat="47.710244" lon="7.762179">
        <ele>698.426927</ele>
        <time>2021-11-22T10:04:47.458Z</time>
      </trkpt>
      <trkpt lat="47.710263" lon="7.762018">
        <ele>698.505966</ele>
        <time>2021-11-22T10:04:49.741Z</time>
      </trkpt>
      <trkpt lat="47.710195" lon="7.761616">
        <ele>698.706397</ele>
        <time>2021-11-22T10:04:53.641Z</time>
      </trkpt>
      <trkpt lat="47.710335" lon="7.761409">
        <ele>698.848313</ele>
        <time>2021-11-22T10:04:56.997Z</time>
      </trkpt>
      <trkpt lat="47.710427" lon="7.761335">
        <ele>698.923488</ele>
        <time>2021-11-22T10:04:58.196Z</time>
      </trkpt>
      <trkpt lat="47.710553" lon="7.761250">
        <ele>699.022925</ele>
        <time>2021-11-22T10:05:00.868Z</time>
      </trkpt>
      <trkpt lat="47.710690" lon="7.761172">
        <ele>699.128352</ele>
        <time>2021-11-22T10:05:03.614Z</time>
      </trkpt>
      <trkpt lat="47.711202" lon="7.760857">
        <ele>699.814985</ele>
        <time>2021-11-22T10:05:14.467Z</time>
      </trkpt>
      <trkpt lat="47.711645" lon="7.760532">
        <ele>700.713177</ele>
        <time>2021-11-22T10:05:25.214Z</time>
      </trkpt>
      <trkpt lat="47.711708" lon="7.760492">
        <ele>700.837730</ele>
        <time>2021-11-22T10:05:26.807Z</time>
      </trkpt>
      <trkpt lat="47.712488" lon="7.760312">
        <ele>702.272821</ele>
        <time>2021-11-22T10:05:48.005Z</time>
      </trkpt>
      <trkpt lat="47.712549" lon="7.760281">
        <ele>702.390027</ele>
        <time>2021-11-22T10:05:49.996Z</time>
      </trkpt>
      <trkpt lat="47.712622" lon="7.760244">
        <ele>702.530252</ele>
        <time>2021-11-22T10:05:51.003Z</time>
      </trkpt>
      <trkpt lat="47.712905" lon="7.760024">
        <ele>701.682329</ele>
        <time>2021-11-22T10:05:57.493Z</time>
      </trkpt>
      <trkpt lat="47.712940" lon="7.760005">
        <ele>701.557591</ele>
        <time>2021-11-22T10:05:57.844Z</time>
      </trkpt>
      <trkpt lat="47.713023" lon="7.759961">
        <ele>701.262591</ele>
        <time>2021-11-22T10:05:58.801Z</time>
      </trkpt>
      <trkpt lat="47.713181" lon="7.759935">
        <ele>700.730433</ele>
        <time>2021-11-22T10:06:01.635Z</time>
      </trkpt>
      <trkpt lat="47.713444" lon="7.759983">
        <ele>699.843393</ele>
        <time>2021-11-22T10:06:04.342Z</time>
      </trkpt>
      <trkpt lat="47.713621" lon="7.759971">
        <ele>699.250246</ele>
        <time>2021-11-22T10:06:06.345Z</time>
      </trkpt>
      <trkpt lat="47.713814" lon="7.759841">
        <ele>698.540897</ele>
        <time>2021-11-22T10:06:08.226Z</time>
      </trkpt>
      <trkpt lat="47.714188" lon="7.759554">
        <ele>697.131848</ele>
        <time>2021-11-22T10:06:12.056Z</time>
      </trkpt>
      <trkpt lat="47.714441" lon="7.759374">
        <ele>695.685092</ele>
        <time>2021-11-22T10:06:14.545Z</time>
      </trkpt>
      <trkpt lat="47.714548" lon="7.759271">
        <ele>694.708422</ele>
        <time>2021-11-22T10:06:15.715Z</time>
      </trkpt>
      <trkpt lat="47.714639" lon="7.759072">
        <ele>693.468149</ele>
        <time>2021-11-22T10:06:17.182Z</time>
      </trkpt>
      <trkpt lat="47.714734" lon="7.758591">
        <ele>690.884138</ele>
        <time>2021-11-22T10:06:20.192Z</time>
      </trkpt>
      <trkpt lat="47.714751" lon="7.758508">
        <ele>690.436917</ele>
        <time>2021-11-22T10:06:20.674Z</time>
      </trkpt>
      <trkpt lat="47.714788" lon="7.758325">
        <ele>689.451944</ele>
        <time>2021-11-22T10:06:21.798Z</time>
      </trkpt>
      <trkpt lat="47.714875" lon="7.757966">
        <ele>687.485048</ele>
        <time>2021-11-22T10:06:24.047Z</time>
      </trkpt>
      <trkpt lat="47.715134" lon="7.757431">
        <ele>684.087642</ele>
        <time>2021-11-22T10:06:27.931Z</time>
      </trkpt>
      <trkpt lat="47.715558" lon="7.756715">
        <ele>680.590859</ele>
        <time>2021-11-22T10:06:33.820Z</time>
      </trkpt>
      <trkpt lat="47.715558" lon="7.756714">
        <ele>680.587717</ele>
        <time>2021-11-22T10:06:33.829Z</time>
      </trkpt>
      <trkpt lat="47.715814" lon="7.756441">
        <ele>679.116431</ele>
        <time>2021-11-22T10:06:37.009Z</time>
      </trkpt>
      <trkpt lat="47.716056" lon="7.756240">
        <ele>677.821909</ele>
        <time>2021-11-22T10:06:39.938Z</time>
      </trkpt>
      <trkpt lat="47.716156" lon="7.756169">
        <ele>677.304405</ele>
        <time>2021-11-22T10:06:41.142Z</time>
      </trkpt>
      <trkpt lat="47.716605" lon="7.755979">
        <ele>675.124429</ele>
        <time>2021-11-22T10:06:45.532Z</time>
      </trkpt>
      <trkpt lat="47.717361" lon="7.755430">
        <ele>670.535379</ele>
        <time>2021-11-22T10:06:53.659Z</time>
      </trkpt>
      <trkpt lat="47.717436" lon="7.755274">
        <ele>669.809258</ele>
        <time>2021-11-22T10:06:54.973Z</time>
      </trkpt>
      <trkpt lat="47.717428" lon="7.755242">
        <ele>669.679976</ele>
        <time>2021-11-22T10:06:55.163Z</time>
      </trkpt>
      <trkpt lat="47.717424" lon="7.755224">
        <ele>669.608187</ele>
        <time>2021-11-22T10:06:55.268Z</time>
      </trkpt>
      <trkpt lat="47.717292" lon="7.755166">
        <ele>668.833383</ele>
        <time>2021-11-22T10:06:56.629Z</time>
      </trkpt>
      <trkpt lat="47.716511" lon="7.755625">
        <ele>664.097294</ele>
        <time>2021-11-22T10:07:04.249Z</time>
      </trkpt>
      <trkpt lat="47.715960" lon="7.755756">
        <ele>660.802278</ele>
        <time>2021-11-22T10:07:09.153Z</time>
      </trkpt>
      <trkpt lat="47.715445" lon="7.755865">
        <ele>657.730526</ele>
        <time>2021-11-22T10:07:13.977Z</time>
      </trkpt>
      <trkpt lat="47.715339" lon="7.755887">
        <ele>657.098523</ele>
        <time>2021-11-22T10:07:14.929Z</time>
      </trkpt>
      <trkpt lat="47.715009" lon="7.755979">
        <ele>655.115890</ele>
        <time>2021-11-22T10:07:18.293Z</time>
      </trkpt>
      <trkpt lat="47.714232" lon="7.755990">
        <ele>650.730487</ele>
        <time>2021-11-22T10:07:25.675Z</time>
      </trkpt>
      <trkpt lat="47.714158" lon="7.756030">
        <ele>650.295620</ele>
        <time>2021-11-22T10:07:26.407Z</time>
      </trkpt>
      <trkpt lat="47.714103" lon="7.756097">
        <ele>649.902881</ele>
        <time>2021-11-22T10:07:29.199Z</time>
      </trkpt>
      <trkpt lat="47.713944" lon="7.756392">
        <ele>648.498367</ele>
        <time>2021-11-22T10:07:31.446Z</time>
      </trkpt>
      <trkpt lat="47.713857" lon="7.756496">
        <ele>647.881767</ele>
        <time>2021-11-22T10:07:33.303Z</time>
      </trkpt>
      <trkpt lat="47.713811" lon="7.756520">
        <ele>647.612525</ele>
        <time>2021-11-22T10:07:33.803Z</time>
      </trkpt>
      <trkpt lat="47.713737" lon="7.756527">
        <ele>647.203020</ele>
        <time>2021-11-22T10:07:34.542Z</time>
      </trkpt>
      <trkpt lat="47.713689" lon="7.756505">
        <ele>646.925613</ele>
        <time>2021-11-22T10:07:34.955Z</time>
      </trkpt>
      <trkpt lat="47.713510" lon="7.756211">
        <ele>645.452274</ele>
        <time>2021-11-22T10:07:37.467Z</time>
      </trkpt>
      <trkpt lat="47.713197" lon="7.755119">
        <ele>639.238337</ele>
        <time>2021-11-22T10:07:44.504Z</time>
      </trkpt>
      <trkpt lat="47.713144" lon="7.754922">
        <ele>637.920979</ele>
        <time>2021-11-22T10:07:45.735Z</time>
      </trkpt>
      <trkpt lat="47.713125" lon="7.754853">
        <ele>637.458058</ele>
        <time>2021-11-22T10:07:46.211Z</time>
      </trkpt>
      <trkpt lat="47.713049" lon="7.754578">
        <ele>635.612119</ele>
        <time>2021-11-22T10:07:47.900Z</time>
      </trkpt>
      <trkpt lat="47.713010" lon="7.754423">
        <ele>634.584608</ele>
        <time>2021-11-22T10:07:48.858Z</time>
      </trkpt>
      <trkpt lat="47.712975" lon="7.754237">
        <ele>633.385390</ele>
        <time>2021-11-22T10:07:49.994Z</time>
      </trkpt>
      <trkpt lat="47.713035" lon="7.754227">
        <ele>632.828227</ele>
        <time>2021-11-22T10:07:50.499Z</time>
      </trkpt>
      <trkpt lat="47.713174" lon="7.754145">
        <ele>631.448151</ele>
        <time>2021-11-22T10:07:51.782Z</time>
      </trkpt>
      <trkpt lat="47.713273" lon="7.753976">
        <ele>630.056830</ele>
        <time>2021-11-22T10:07:53.099Z</time>
      </trkpt>
      <trkpt lat="47.713332" lon="7.753684">
        <ele>628.163780</ele>
        <time>2021-11-22T10:07:54.846Z</time>
      </trkpt>
      <trkpt lat="47.713300" lon="7.753437">
        <ele>626.785557</ele>
        <time>2021-11-22T10:07:56.326Z</time>
      </trkpt>
      <trkpt lat="47.713252" lon="7.753276">
        <ele>626.071539</ele>
        <time>2021-11-22T10:07:57.330Z</time>
      </trkpt>
      <trkpt lat="47.713133" lon="7.753109">
        <ele>625.085250</ele>
        <time>2021-11-22T10:07:58.758Z</time>
      </trkpt>
      <trkpt lat="47.712243" lon="7.751902">
        <ele>617.824608</ele>
        <time>2021-11-22T10:08:09.918Z</time>
      </trkpt>
      <trkpt lat="47.711957" lon="7.751267">
        <ele>616.191823</ele>
        <time>2021-11-22T10:08:15.148Z</time>
      </trkpt>
      <trkpt lat="47.711877" lon="7.750823">
        <ele>616.072462</ele>
        <time>2021-11-22T10:08:18.703Z</time>
      </trkpt>
      <trkpt lat="47.711861" lon="7.750347">
        <ele>615.948699</ele>
        <time>2021-11-22T10:08:22.745Z</time>
      </trkpt>
      <trkpt lat="47.712019" lon="7.749747">
        <ele>615.781382</ele>
        <time>2021-11-22T10:08:29.768Z</time>
      </trkpt>
      <trkpt lat="47.712024" lon="7.749516">
        <ele>615.721364</ele>
        <time>2021-11-22T10:08:32.707Z</time>
      </trkpt>
      <trkpt lat="47.711962" lon="7.749312">
        <ele>615.663235</ele>
        <time>2021-11-22T10:08:35.710Z</time>
      </trkpt>
      <trkpt lat="47.711469" lon="7.748703">
        <ele>618.340660</ele>
        <time>2021-11-22T10:08:50.877Z</time>
      </trkpt>
      <trkpt lat="47.711347" lon="7.748400">
        <ele>619.721632</ele>
        <time>2021-11-22T10:09:02.286Z</time>
      </trkpt>
      <trkpt lat="47.711275" lon="7.747957">
        <ele>621.504002</ele>
        <time>2021-11-22T10:09:15.420Z</time>
      </trkpt>
      <trkpt lat="47.711325" lon="7.747143">
        <ele>624.700742</ele>
        <time>2021-11-22T10:09:38.983Z</time>
      </trkpt>
      <trkpt lat="47.711442" lon="7.746911">
        <ele>625.834637</ele>
        <time>2021-11-22T10:09:49.653Z</time>
      </trkpt>
      <trkpt lat="47.711581" lon="7.746785">
        <ele>626.808936</ele>
        <time>2021-11-22T10:09:54.974Z</time>
      </trkpt>
      <trkpt lat="47.711701" lon="7.746731">
        <ele>627.565651</ele>
        <time>2021-11-22T10:10:01.984Z</time>
      </trkpt>
      <trkpt lat="47.711798" lon="7.746687">
        <ele>628.177742</ele>
        <time>2021-11-22T10:10:07.188Z</time>
      </trkpt>
      <trkpt lat="47.712033" lon="7.746420">
        <ele>629.963030</ele>
        <time>2021-11-22T10:10:18.831Z</time>
      </trkpt>
      <trkpt lat="47.712066" lon="7.746300">
        <ele>630.489472</ele>
        <time>2021-11-22T10:10:23.232Z</time>
      </trkpt>
      <trkpt lat="47.712066" lon="7.746300">
        <ele>630.489472</ele>
        <time>2021-11-22T10:10:23.639Z</time>
      </trkpt>
      <trkpt lat="47.712066" lon="7.746300">
        <ele>630.489472</ele>
        <time>2021-11-22T10:10:23.796Z</time>
      </trkpt>
      <trkpt lat="47.712081" lon="7.746187">
        <ele>630.957202</ele>
        <time>2021-11-22T10:10:25.205Z</time>
      </trkpt>
      <trkpt lat="47.712067" lon="7.746075">
        <ele>631.419809</ele>
        <time>2021-11-22T10:10:28.876Z</time>
      </trkpt>
      <trkpt lat="47.712035" lon="7.745837">
        <ele>632.405419</ele>
        <time>2021-11-22T10:10:37.706Z</time>
      </trkpt>
      <trkpt lat="47.711852" lon="7.745238">
        <ele>635.076925</ele>
        <time>2021-11-22T10:10:54.701Z</time>
      </trkpt>
      <trkpt lat="47.711822" lon="7.744939">
        <ele>636.304575</ele>
        <time>2021-11-22T10:11:01.995Z</time>
      </trkpt>
      <trkpt lat="47.711873" lon="7.744436">
        <ele>636.648293</ele>
        <time>2021-11-22T10:11:10.014Z</time>
      </trkpt>
      <trkpt lat="47.711971" lon="7.744137">
        <ele>636.408692</ele>
        <time>2021-11-22T10:11:14.138Z</time>
      </trkpt>
      <trkpt lat="47.712028" lon="7.743968">
        <ele>636.272502</ele>
        <time>2021-11-22T10:11:15.773Z</time>
      </trkpt>
      <trkpt lat="47.712110" lon="7.743827">
        <ele>636.138240</ele>
        <time>2021-11-22T10:11:17.265Z</time>
      </trkpt>
      <trkpt lat="47.712169" lon="7.743670">
        <ele>636.008690</ele>
        <time>2021-11-22T10:11:18.835Z</time>
      </trkpt>
      <trkpt lat="47.712226" lon="7.743480">
        <ele>635.858822</ele>
        <time>2021-11-22T10:11:20.338Z</time>
      </trkpt>
      <trkpt lat="47.712234" lon="7.743054">
        <ele>635.551807</ele>
        <time>2021-11-22T10:11:23.476Z</time>
      </trkpt>
      <trkpt lat="47.712095" lon="7.741898">
        <ele>633.604611</ele>
        <time>2021-11-22T10:11:31.264Z</time>
      </trkpt>
      <trkpt lat="47.712099" lon="7.741769">
        <ele>633.140610</ele>
        <time>2021-11-22T10:11:32.092Z</time>
      </trkpt>
      <trkpt lat="47.712276" lon="7.741206">
        <ele>630.907776</ele>
        <time>2021-11-22T10:11:35.908Z</time>
      </trkpt>
      <trkpt lat="47.712263" lon="7.741077">
        <ele>630.439098</ele>
        <time>2021-11-22T10:11:36.709Z</time>
      </trkpt>
      <trkpt lat="47.712041" lon="7.740608">
        <ele>628.378720</ele>
        <time>2021-11-22T10:11:40.177Z</time>
      </trkpt>
      <trkpt lat="47.711793" lon="7.740467">
        <ele>626.960786</ele>
        <time>2021-11-22T10:11:42.656Z</time>
      </trkpt>
      <trkpt lat="47.711648" lon="7.740303">
        <ele>625.987751</ele>
        <time>2021-11-22T10:11:44.308Z</time>
      </trkpt>
      <trkpt lat="47.711525" lon="7.739752">
        <ele>624.652111</ele>
        <time>2021-11-22T10:11:48.045Z</time>
      </trkpt>
      <trkpt lat="47.711539" lon="7.739041">
        <ele>623.396111</ele>
        <time>2021-11-22T10:11:53.054Z</time>
      </trkpt>
      <trkpt lat="47.711566" lon="7.738770">
        <ele>622.912370</ele>
        <time>2021-11-22T10:11:54.880Z</time>
      </trkpt>
      <trkpt lat="47.711609" lon="7.738609">
        <ele>622.606504</ele>
        <time>2021-11-22T10:11:56.548Z</time>
      </trkpt>
      <trkpt lat="47.711805" lon="7.738262">
        <ele>621.806512</ele>
        <time>2021-11-22T10:11:59.866Z</time>
      </trkpt>
      <trkpt lat="47.712165" lon="7.738000">
        <ele>620.754587</ele>
        <time>2021-11-22T10:12:04.467Z</time>
      </trkpt>
      <trkpt lat="47.712359" lon="7.737862">
        <ele>620.911153</ele>
        <time>2021-11-22T10:12:06.974Z</time>
      </trkpt>
      <trkpt lat="47.712601" lon="7.737679">
        <ele>621.299089</ele>
        <time>2021-11-22T10:12:10.496Z</time>
      </trkpt>
      <trkpt lat="47.713052" lon="7.737270">
        <ele>622.053932</ele>
        <time>2021-11-22T10:12:21.565Z</time>
      </trkpt>
      <trkpt lat="47.713108" lon="7.737149">
        <ele>622.195111</ele>
        <time>2021-11-22T10:12:22.782Z</time>
      </trkpt>
      <trkpt lat="47.713133" lon="7.737073">
        <ele>622.276435</ele>
        <time>2021-11-22T10:12:24.058Z</time>
      </trkpt>
      <trkpt lat="47.713172" lon="7.736933">
        <ele>622.422098</ele>
        <time>2021-11-22T10:12:26.928Z</time>
      </trkpt>
      <trkpt lat="47.713202" lon="7.736801">
        <ele>622.556034</ele>
        <time>2021-11-22T10:12:29.561Z</time>
      </trkpt>
      <trkpt lat="47.713224" lon="7.736631">
        <ele>622.722453</ele>
        <time>2021-11-22T10:12:32.252Z</time>
      </trkpt>
      <trkpt lat="47.713223" lon="7.736523">
        <ele>622.826284</ele>
        <time>2021-11-22T10:12:34.763Z</time>
      </trkpt>
      <trkpt lat="47.713208" lon="7.736384">
        <ele>622.961614</ele>
        <time>2021-11-22T10:12:38.143Z</time>
      </trkpt>
      <trkpt lat="47.713169" lon="7.736257">
        <ele>623.095815</ele>
        <time>2021-11-22T10:12:40.362Z</time>
      </trkpt>
      <trkpt lat="47.713114" lon="7.736149">
        <ele>623.226022</ele>
        <time>2021-11-22T10:12:42.403Z</time>
      </trkpt>
      <trkpt lat="47.713057" lon="7.736076">
        <ele>623.691712</ele>
        <time>2021-11-22T10:12:44.600Z</time>
      </trkpt>
      <trkpt lat="47.713013" lon="7.736030">
        <ele>624.026475</ele>
        <time>2021-11-22T10:12:46.293Z</time>
      </trkpt>
      <trkpt lat="47.712962" lon="7.735999">
        <ele>624.369359</ele>
        <time>2021-11-22T10:12:47.922Z</time>
      </trkpt>
      <trkpt lat="47.712947" lon="7.735993">
        <ele>624.466024</ele>
        <time>2021-11-22T10:12:48.380Z</time>
      </trkpt>
      <trkpt lat="47.712880" lon="7.735969">
        <ele>624.894895</ele>
        <time>2021-11-22T10:12:50.139Z</time>
      </trkpt>
      <trkpt lat="47.712772" lon="7.735948">
        <ele>625.572694</ele>
        <time>2021-11-22T10:12:53.063Z</time>
      </trkpt>
      <trkpt lat="47.712673" lon="7.735923">
        <ele>626.197588</ele>
        <time>2021-11-22T10:12:57.049Z</time>
      </trkpt>
      <trkpt lat="47.712551" lon="7.735910">
        <ele>626.958728</ele>
        <time>2021-11-22T10:13:02.121Z</time>
      </trkpt>
      <trkpt lat="47.712252" lon="7.735529">
        <ele>629.409624</ele>
        <time>2021-11-22T10:13:17.007Z</time>
      </trkpt>
      <trkpt lat="47.712203" lon="7.735383">
        <ele>630.092766</ele>
        <time>2021-11-22T10:13:21.621Z</time>
      </trkpt>
      <trkpt lat="47.712174" lon="7.735231">
        <ele>630.754296</ele>
        <time>2021-11-22T10:13:26.276Z</time>
      </trkpt>
      <trkpt lat="47.712174" lon="7.734296">
        <ele>634.653212</ele>
        <time>2021-11-22T10:13:58.061Z</time>
      </trkpt>
      <trkpt lat="47.712151" lon="7.734114">
        <ele>635.378849</ele>
        <time>2021-11-22T10:14:03.797Z</time>
      </trkpt>
      <trkpt lat="47.712102" lon="7.733873">
        <ele>636.365381</ele>
        <time>2021-11-22T10:14:12.503Z</time>
      </trkpt>
      <trkpt lat="47.711977" lon="7.733539">
        <ele>637.862993</ele>
        <time>2021-11-22T10:14:22.596Z</time>
      </trkpt>
      <trkpt lat="47.711711" lon="7.733127">
        <ele>640.100426</ele>
        <time>2021-11-22T10:14:38.910Z</time>
      </trkpt>
      <trkpt lat="47.711652" lon="7.733077">
        <ele>640.495959</ele>
        <time>2021-11-22T10:14:42.390Z</time>
      </trkpt>
      <trkpt lat="47.711611" lon="7.733042">
        <ele>640.771316</ele>
        <time>2021-11-22T10:14:44.372Z</time>
      </trkpt>
      <trkpt lat="47.711395" lon="7.732943">
        <ele>642.087694</ele>
        <time>2021-11-22T10:14:50.908Z</time>
      </trkpt>
      <trkpt lat="47.711298" lon="7.732899">
        <ele>642.678318</ele>
        <time>2021-11-22T10:14:55.372Z</time>
      </trkpt>
      <trkpt lat="47.711044" lon="7.732866">
        <ele>644.163177</ele>
        <time>2021-11-22T10:15:02.632Z</time>
      </trkpt>
      <trkpt lat="47.710642" lon="7.732975">
        <ele>644.828593</ele>
        <time>2021-11-22T10:15:12.382Z</time>
      </trkpt>
      <trkpt lat="47.710237" lon="7.733085">
        <ele>644.733102</ele>
        <time>2021-11-22T10:15:20.612Z</time>
      </trkpt>
      <trkpt lat="47.709935" lon="7.733084">
        <ele>644.663056</ele>
        <time>2021-11-22T10:15:24.455Z</time>
      </trkpt>
      <trkpt lat="47.709791" lon="7.733051">
        <ele>644.629262</ele>
        <time>2021-11-22T10:15:26.091Z</time>
      </trkpt>
      <trkpt lat="47.709626" lon="7.732996">
        <ele>644.590041</ele>
        <time>2021-11-22T10:15:28.042Z</time>
      </trkpt>
      <trkpt lat="47.709347" lon="7.732871">
        <ele>644.522454</ele>
        <time>2021-11-22T10:15:31.220Z</time>
      </trkpt>
      <trkpt lat="47.709246" lon="7.732791">
        <ele>644.495908</ele>
        <time>2021-11-22T10:15:32.396Z</time>
      </trkpt>
      <trkpt lat="47.709099" lon="7.732645">
        <ele>644.161256</ele>
        <time>2021-11-22T10:15:34.254Z</time>
      </trkpt>
      <trkpt lat="47.708874" lon="7.732423">
        <ele>643.269294</ele>
        <time>2021-11-22T10:15:37.027Z</time>
      </trkpt>
      <trkpt lat="47.708509" lon="7.731781">
        <ele>641.401469</ele>
        <time>2021-11-22T10:15:42.711Z</time>
      </trkpt>
      <trkpt lat="47.708321" lon="7.731223">
        <ele>640.014633</ele>
        <time>2021-11-22T10:15:46.865Z</time>
      </trkpt>
      <trkpt lat="47.708114" lon="7.730237">
        <ele>637.426386</ele>
        <time>2021-11-22T10:15:53.806Z</time>
      </trkpt>
      <trkpt lat="47.707948" lon="7.729868">
        <ele>636.086656</ele>
        <time>2021-11-22T10:15:56.722Z</time>
      </trkpt>
      <trkpt lat="47.707694" lon="7.729579">
        <ele>634.651756</ele>
        <time>2021-11-22T10:15:59.819Z</time>
      </trkpt>
      <trkpt lat="47.707660" lon="7.729541">
        <ele>634.460932</ele>
        <time>2021-11-22T10:16:00.209Z</time>
      </trkpt>
      <trkpt lat="47.707590" lon="7.729507">
        <ele>634.130603</ele>
        <time>2021-11-22T10:16:00.905Z</time>
      </trkpt>
      <trkpt lat="47.707344" lon="7.729389">
        <ele>632.971116</ele>
        <time>2021-11-22T10:16:03.405Z</time>
      </trkpt>
      <trkpt lat="47.707220" lon="7.729364">
        <ele>632.409820</ele>
        <time>2021-11-22T10:16:04.569Z</time>
      </trkpt>
      <trkpt lat="47.706729" lon="7.729305">
        <ele>630.173185</ele>
        <time>2021-11-22T10:16:09.203Z</time>
      </trkpt>
      <trkpt lat="47.705737" lon="7.728863">
        <ele>625.059899</ele>
        <time>2021-11-22T10:16:18.802Z</time>
      </trkpt>
      <trkpt lat="47.705338" lon="7.728853">
        <ele>623.089611</ele>
        <time>2021-11-22T10:16:22.548Z</time>
      </trkpt>
      <trkpt lat="47.704886" lon="7.728972">
        <ele>621.460170</ele>
        <time>2021-11-22T10:16:27.036Z</time>
      </trkpt>
      <trkpt lat="47.704467" lon="7.728924">
        <ele>621.112360</ele>
        <time>2021-11-22T10:16:31.460Z</time>
      </trkpt>
      <trkpt lat="47.704085" lon="7.728564">
        <ele>620.737982</ele>
        <time>2021-11-22T10:16:36.861Z</time>
      </trkpt>
      <trkpt lat="47.703923" lon="7.728090">
        <ele>620.441884</ele>
        <time>2021-11-22T10:16:42.713Z</time>
      </trkpt>
      <trkpt lat="47.704080" lon="7.725145">
        <ele>622.138936</ele>
        <time>2021-11-22T10:17:29.079Z</time>
      </trkpt>
      <trkpt lat="47.704053" lon="7.724985">
        <ele>622.282674</ele>
        <time>2021-11-22T10:17:30.717Z</time>
      </trkpt>
      <trkpt lat="47.703993" lon="7.724909">
        <ele>622.384760</ele>
        <time>2021-11-22T10:17:31.756Z</time>
      </trkpt>
      <trkpt lat="47.703592" lon="7.725045">
        <ele>620.746384</ele>
        <time>2021-11-22T10:17:36.341Z</time>
      </trkpt>
      <trkpt lat="47.703418" lon="7.725274">
        <ele>619.709943</ele>
        <time>2021-11-22T10:17:38.666Z</time>
      </trkpt>
      <trkpt lat="47.703297" lon="7.725540">
        <ele>618.746479</ele>
        <time>2021-11-22T10:17:40.740Z</time>
      </trkpt>
      <trkpt lat="47.703096" lon="7.725772">
        <ele>617.611583</ele>
        <time>2021-11-22T10:17:43.122Z</time>
      </trkpt>
      <trkpt lat="47.702697" lon="7.726079">
        <ele>615.608047</ele>
        <time>2021-11-22T10:17:47.169Z</time>
      </trkpt>
      <trkpt lat="47.702553" lon="7.726116">
        <ele>614.956411</ele>
        <time>2021-11-22T10:17:48.482Z</time>
      </trkpt>
      <trkpt lat="47.702421" lon="7.726114">
        <ele>614.353694</ele>
        <time>2021-11-22T10:17:49.666Z</time>
      </trkpt>
      <trkpt lat="47.702266" lon="7.726004">
        <ele>613.322863</ele>
        <time>2021-11-22T10:17:51.199Z</time>
      </trkpt>
      <trkpt lat="47.702038" lon="7.725647">
        <ele>611.335143</ele>
        <time>2021-11-22T10:17:54.162Z</time>
      </trkpt>
      <trkpt lat="47.701948" lon="7.725368">
        <ele>610.085579</ele>
        <time>2021-11-22T10:17:56.044Z</time>
      </trkpt>
      <trkpt lat="47.701896" lon="7.725076">
        <ele>608.865678</ele>
        <time>2021-11-22T10:17:57.878Z</time>
      </trkpt>
      <trkpt lat="47.701916" lon="7.724727">
        <ele>607.451056</ele>
        <time>2021-11-22T10:18:00.031Z</time>
      </trkpt>
      <trkpt lat="47.702252" lon="7.722887">
        <ele>600.915877</ele>
        <time>2021-11-22T10:18:12.294Z</time>
      </trkpt>
      <trkpt lat="47.702347" lon="7.722672">
        <ele>600.190298</ele>
        <time>2021-11-22T10:18:14.015Z</time>
      </trkpt>
      <trkpt lat="47.702491" lon="7.722501">
        <ele>599.417586</ele>
        <time>2021-11-22T10:18:15.895Z</time>
      </trkpt>
      <trkpt lat="47.702999" lon="7.722133">
        <ele>597.048529</ele>
        <time>2021-11-22T10:18:21.495Z</time>
      </trkpt>
      <trkpt lat="47.703093" lon="7.721736">
        <ele>595.789958</ele>
        <time>2021-11-22T10:18:24.218Z</time>
      </trkpt>
      <trkpt lat="47.703055" lon="7.721519">
        <ele>594.946080</ele>
        <time>2021-11-22T10:18:25.648Z</time>
      </trkpt>
      <trkpt lat="47.702804" lon="7.720859">
        <ele>592.092973</ele>
        <time>2021-11-22T10:18:30.386Z</time>
      </trkpt>
      <trkpt lat="47.702739" lon="7.720438">
        <ele>590.467362</ele>
        <time>2021-11-22T10:18:33.060Z</time>
      </trkpt>
      <trkpt lat="47.702742" lon="7.719843">
        <ele>588.227995</ele>
        <time>2021-11-22T10:18:36.736Z</time>
      </trkpt>
      <trkpt lat="47.702939" lon="7.718746">
        <ele>583.756071</ele>
        <time>2021-11-22T10:18:43.726Z</time>
      </trkpt>
      <trkpt lat="47.702937" lon="7.718550">
        <ele>582.947156</ele>
        <time>2021-11-22T10:18:44.922Z</time>
      </trkpt>
      <trkpt lat="47.702652" lon="7.717592">
        <ele>578.624778</ele>
        <time>2021-11-22T10:18:51.322Z</time>
      </trkpt>
      <trkpt lat="47.702623" lon="7.717313">
        <ele>577.459787</ele>
        <time>2021-11-22T10:18:53.069Z</time>
      </trkpt>
      <trkpt lat="47.702623" lon="7.717058">
        <ele>576.407487</ele>
        <time>2021-11-22T10:18:54.640Z</time>
      </trkpt>
      <trkpt lat="47.702622" lon="7.716942">
        <ele>575.928755</ele>
        <time>2021-11-22T10:18:55.374Z</time>
      </trkpt>
      <trkpt lat="47.702621" lon="7.716562">
        <ele>574.721744</ele>
        <time>2021-11-22T10:18:57.741Z</time>
      </trkpt>
      <trkpt lat="47.702502" lon="7.715371">
        <ele>572.617975</ele>
        <time>2021-11-22T10:19:05.315Z</time>
      </trkpt>
      <trkpt lat="47.702556" lon="7.714087">
        <ele>570.370145</ele>
        <time>2021-11-22T10:19:15.969Z</time>
      </trkpt>
      <trkpt lat="47.702593" lon="7.713352">
        <ele>571.916133</ele>
        <time>2021-11-22T10:19:31.189Z</time>
      </trkpt>
      <trkpt lat="47.702645" lon="7.713006">
        <ele>572.718237</ele>
        <time>2021-11-22T10:19:36.601Z</time>
      </trkpt>
      <trkpt lat="47.702681" lon="7.712888">
        <ele>573.011363</ele>
        <time>2021-11-22T10:19:42.706Z</time>
      </trkpt>
      <trkpt lat="47.702748" lon="7.712754">
        <ele>573.389054</ele>
        <time>2021-11-22T10:19:45.886Z</time>
      </trkpt>
      <trkpt lat="47.702981" lon="7.712628">
        <ele>574.222638</ele>
        <time>2021-11-22T10:19:59.299Z</time>
      </trkpt>
      <trkpt lat="47.703315" lon="7.712751">
        <ele>575.379483</ele>
        <time>2021-11-22T10:20:08.565Z</time>
      </trkpt>
      <trkpt lat="47.704378" lon="7.712858">
        <ele>573.162957</ele>
        <time>2021-11-22T10:20:25.321Z</time>
      </trkpt>
      <trkpt lat="47.704389" lon="7.712845">
        <ele>573.104724</ele>
        <time>2021-11-22T10:20:26.867Z</time>
      </trkpt>
      <trkpt lat="47.704443" lon="7.712778">
        <ele>572.813246</ele>
        <time>2021-11-22T10:20:27.575Z</time>
      </trkpt>
      <trkpt lat="47.704459" lon="7.712681">
        <ele>572.534776</ele>
        <time>2021-11-22T10:20:28.215Z</time>
      </trkpt>
      <trkpt lat="47.704441" lon="7.712558">
        <ele>572.183802</ele>
        <time>2021-11-22T10:20:28.916Z</time>
      </trkpt>
      <trkpt lat="47.704093" lon="7.712308">
        <ele>570.582262</ele>
        <time>2021-11-22T10:20:32.411Z</time>
      </trkpt>
      <trkpt lat="47.703776" lon="7.711801">
        <ele>568.353225</ele>
        <time>2021-11-22T10:20:36.511Z</time>
      </trkpt>
      <trkpt lat="47.703244" lon="7.710273">
        <ele>558.012268</ele>
        <time>2021-11-22T10:20:46.345Z</time>
      </trkpt>
      <trkpt lat="47.702732" lon="7.709500">
        <ele>552.365073</ele>
        <time>2021-11-22T10:20:53.017Z</time>
      </trkpt>
      <trkpt lat="47.702612" lon="7.709241">
        <ele>551.692913</ele>
        <time>2021-11-22T10:20:55.061Z</time>
      </trkpt>
      <trkpt lat="47.702547" lon="7.709005">
        <ele>551.147824</ele>
        <time>2021-11-22T10:20:56.799Z</time>
      </trkpt>
      <trkpt lat="47.702532" lon="7.708871">
        <ele>550.857448</ele>
        <time>2021-11-22T10:20:57.848Z</time>
      </trkpt>
      <trkpt lat="47.702539" lon="7.708522">
        <ele>550.111091</ele>
        <time>2021-11-22T10:21:00.283Z</time>
      </trkpt>
      <trkpt lat="47.702608" lon="7.708164">
        <ele>549.315061</ele>
        <time>2021-11-22T10:21:03.246Z</time>
      </trkpt>
      <trkpt lat="47.702612" lon="7.708147">
        <ele>549.276565</ele>
        <time>2021-11-22T10:21:03.419Z</time>
      </trkpt>
      <trkpt lat="47.702679" lon="7.707959">
        <ele>548.821824</ele>
        <time>2021-11-22T10:21:04.887Z</time>
      </trkpt>
      <trkpt lat="47.702915" lon="7.707307">
        <ele>547.239306</ele>
        <time>2021-11-22T10:21:10.332Z</time>
      </trkpt>
      <trkpt lat="47.702915" lon="7.706959">
        <ele>546.298893</ele>
        <time>2021-11-22T10:21:12.919Z</time>
      </trkpt>
      <trkpt lat="47.702892" lon="7.706815">
        <ele>545.885061</ele>
        <time>2021-11-22T10:21:14.026Z</time>
      </trkpt>
      <trkpt lat="47.702810" lon="7.706299">
        <ele>544.402562</ele>
        <time>2021-11-22T10:21:17.564Z</time>
      </trkpt>
      <trkpt lat="47.702830" lon="7.706119">
        <ele>543.892439</ele>
        <time>2021-11-22T10:21:18.876Z</time>
      </trkpt>
      <trkpt lat="47.702886" lon="7.705990">
        <ele>543.463200</ele>
        <time>2021-11-22T10:21:19.869Z</time>
      </trkpt>
      <trkpt lat="47.702945" lon="7.706001">
        <ele>543.216138</ele>
        <time>2021-11-22T10:21:20.397Z</time>
      </trkpt>
      <trkpt lat="47.703038" lon="7.705977">
        <ele>542.823946</ele>
        <time>2021-11-22T10:21:21.334Z</time>
      </trkpt>
      <trkpt lat="47.703130" lon="7.705816">
        <ele>542.233371</ele>
        <time>2021-11-22T10:21:22.766Z</time>
      </trkpt>
      <trkpt lat="47.703204" lon="7.705100">
        <ele>540.207861</ele>
        <time>2021-11-22T10:21:27.245Z</time>
      </trkpt>
      <trkpt lat="47.703237" lon="7.704920">
        <ele>539.686214</ele>
        <time>2021-11-22T10:21:28.442Z</time>
      </trkpt>
      <trkpt lat="47.703265" lon="7.704768">
        <ele>539.151250</ele>
        <time>2021-11-22T10:21:29.428Z</time>
      </trkpt>
      <trkpt lat="47.703383" lon="7.704126">
        <ele>536.867004</ele>
        <time>2021-11-22T10:21:33.484Z</time>
      </trkpt>
      <trkpt lat="47.703454" lon="7.703909">
        <ele>536.038833</ele>
        <time>2021-11-22T10:21:34.998Z</time>
      </trkpt>
      <trkpt lat="47.703629" lon="7.703713">
        <ele>534.921160</ele>
        <time>2021-11-22T10:21:37.100Z</time>
      </trkpt>
      <trkpt lat="47.703966" lon="7.703536">
        <ele>533.098175</ele>
        <time>2021-11-22T10:21:40.625Z</time>
      </trkpt>
      <trkpt lat="47.704021" lon="7.703518">
        <ele>532.810940</ele>
        <time>2021-11-22T10:21:41.255Z</time>
      </trkpt>
      <trkpt lat="47.704073" lon="7.703501">
        <ele>532.539385</ele>
        <time>2021-11-22T10:21:42.069Z</time>
      </trkpt>
      <trkpt lat="47.704129" lon="7.703437">
        <ele>532.179069</ele>
        <time>2021-11-22T10:21:42.874Z</time>
      </trkpt>
      <trkpt lat="47.704143" lon="7.703228">
        <ele>531.458184</ele>
        <time>2021-11-22T10:21:44.083Z</time>
      </trkpt>
      <trkpt lat="47.704152" lon="7.702758">
        <ele>529.748787</ele>
        <time>2021-11-22T10:21:47.038Z</time>
      </trkpt>
      <trkpt lat="47.704212" lon="7.702603">
        <ele>529.043711</ele>
        <time>2021-11-22T10:21:48.217Z</time>
      </trkpt>
      <trkpt lat="47.704291" lon="7.702552">
        <ele>528.539028</ele>
        <time>2021-11-22T10:21:49.589Z</time>
      </trkpt>
      <trkpt lat="47.704396" lon="7.702541">
        <ele>527.922271</ele>
        <time>2021-11-22T10:21:50.523Z</time>
      </trkpt>
      <trkpt lat="47.704897" lon="7.702817">
        <ele>524.791511</ele>
        <time>2021-11-22T10:21:55.368Z</time>
      </trkpt>
      <trkpt lat="47.704991" lon="7.702794">
        <ele>524.233318</ele>
        <time>2021-11-22T10:21:56.914Z</time>
      </trkpt>
      <trkpt lat="47.705039" lon="7.702741">
        <ele>523.882928</ele>
        <time>2021-11-22T10:21:57.483Z</time>
      </trkpt>
      <trkpt lat="47.705073" lon="7.702646">
        <ele>523.458660</ele>
        <time>2021-11-22T10:21:58.078Z</time>
      </trkpt>
      <trkpt lat="47.705041" lon="7.702450">
        <ele>522.663409</ele>
        <time>2021-11-22T10:21:59.378Z</time>
      </trkpt>
      <trkpt lat="47.704509" lon="7.701457">
        <ele>517.575688</ele>
        <time>2021-11-22T10:22:07.215Z</time>
      </trkpt>
      <trkpt lat="47.704361" lon="7.700916">
        <ele>515.189484</ele>
        <time>2021-11-22T10:22:10.702Z</time>
      </trkpt>
      <trkpt lat="47.704371" lon="7.699567">
        <ele>509.677110</ele>
        <time>2021-11-22T10:22:18.999Z</time>
      </trkpt>
      <trkpt lat="47.704424" lon="7.698936">
        <ele>508.118615</ele>
        <time>2021-11-22T10:22:23.157Z</time>
      </trkpt>
      <trkpt lat="47.704368" lon="7.698416">
        <ele>507.115381</ele>
        <time>2021-11-22T10:22:26.738Z</time>
      </trkpt>
      <trkpt lat="47.704511" lon="7.697551">
        <ele>505.418514</ele>
        <time>2021-11-22T10:22:33.127Z</time>
      </trkpt>
      <trkpt lat="47.704532" lon="7.697423">
        <ele>505.167526</ele>
        <time>2021-11-22T10:22:34.114Z</time>
      </trkpt>
      <trkpt lat="47.704663" lon="7.696628">
        <ele>503.826653</ele>
        <time>2021-11-22T10:22:40.470Z</time>
      </trkpt>
      <trkpt lat="47.704721" lon="7.695896">
        <ele>503.360681</ele>
        <time>2021-11-22T10:22:46.301Z</time>
      </trkpt>
      <trkpt lat="47.705014" lon="7.694965">
        <ele>502.710915</ele>
        <time>2021-11-22T10:22:54.690Z</time>
      </trkpt>
      <trkpt lat="47.705028" lon="7.694780">
        <ele>502.593220</ele>
        <time>2021-11-22T10:22:56.244Z</time>
      </trkpt>
      <trkpt lat="47.705015" lon="7.694480">
        <ele>502.403167</ele>
        <time>2021-11-22T10:22:58.840Z</time>
      </trkpt>
      <trkpt lat="47.704730" lon="7.693699">
        <ele>502.472121</ele>
        <time>2021-11-22T10:23:07.209Z</time>
      </trkpt>
      <trkpt lat="47.704705" lon="7.693128">
        <ele>502.675204</ele>
        <time>2021-11-22T10:23:15.916Z</time>
      </trkpt>
      <trkpt lat="47.704799" lon="7.692803">
        <ele>502.800753</ele>
        <time>2021-11-22T10:23:19.772Z</time>
      </trkpt>
      <trkpt lat="47.705019" lon="7.692455">
        <ele>502.970214</ele>
        <time>2021-11-22T10:23:25.497Z</time>
      </trkpt>
      <trkpt lat="47.705203" lon="7.692033">
        <ele>503.148676</ele>
        <time>2021-11-22T10:23:31.367Z</time>
      </trkpt>
      <trkpt lat="47.705351" lon="7.691915">
        <ele>503.078830</ele>
        <time>2021-11-22T10:23:34.797Z</time>
      </trkpt>
      <trkpt lat="47.705689" lon="7.691712">
        <ele>502.567203</ele>
        <time>2021-11-22T10:23:40.777Z</time>
      </trkpt>
      <trkpt lat="47.705873" lon="7.691537">
        <ele>502.260617</ele>
        <time>2021-11-22T10:23:43.322Z</time>
      </trkpt>
      <trkpt lat="47.706118" lon="7.691282">
        <ele>501.840836</ele>
        <time>2021-11-22T10:23:47.252Z</time>
      </trkpt>
      <trkpt lat="47.706250" lon="7.690885">
        <ele>501.422643</ele>
        <time>2021-11-22T10:23:50.697Z</time>
      </trkpt>
      <trkpt lat="47.706274" lon="7.690649">
        <ele>501.197235</ele>
        <time>2021-11-22T10:23:52.337Z</time>
      </trkpt>
      <trkpt lat="47.706090" lon="7.689765">
        <ele>499.383867</ele>
        <time>2021-11-22T10:23:58.638Z</time>
      </trkpt>
      <trkpt lat="47.706075" lon="7.689692">
        <ele>499.116280</ele>
        <time>2021-11-22T10:23:59.097Z</time>
      </trkpt>
      <trkpt lat="47.706088" lon="7.689620">
        <ele>498.854935</ele>
        <time>2021-11-22T10:23:59.548Z</time>
      </trkpt>
      <trkpt lat="47.706205" lon="7.688984">
        <ele>496.543442</ele>
        <time>2021-11-22T10:24:03.813Z</time>
      </trkpt>
      <trkpt lat="47.706339" lon="7.688694">
        <ele>495.310165</ele>
        <time>2021-11-22T10:24:06.069Z</time>
      </trkpt>
      <trkpt lat="47.706653" lon="7.688356">
        <ele>493.290240</ele>
        <time>2021-11-22T10:24:09.585Z</time>
      </trkpt>
      <trkpt lat="47.706815" lon="7.687723">
        <ele>490.966733</ele>
        <time>2021-11-22T10:24:13.667Z</time>
      </trkpt>
      <trkpt lat="47.706806" lon="7.687393">
        <ele>489.962026</ele>
        <time>2021-11-22T10:24:15.701Z</time>
      </trkpt>
      <trkpt lat="47.706505" lon="7.686637">
        <ele>487.289819</ele>
        <time>2021-11-22T10:24:21.148Z</time>
      </trkpt>
      <trkpt lat="47.706395" lon="7.686460">
        <ele>486.556874</ele>
        <time>2021-11-22T10:24:22.638Z</time>
      </trkpt>
      <trkpt lat="47.706315" lon="7.686377">
        <ele>486.115800</ele>
        <time>2021-11-22T10:24:23.571Z</time>
      </trkpt>
      <trkpt lat="47.706214" lon="7.686304">
        <ele>485.608071</ele>
        <time>2021-11-22T10:24:24.848Z</time>
      </trkpt>
      <trkpt lat="47.705734" lon="7.686280">
        <ele>483.436923</ele>
        <time>2021-11-22T10:24:29.899Z</time>
      </trkpt>
      <trkpt lat="47.705588" lon="7.686098">
        <ele>483.173677</ele>
        <time>2021-11-22T10:24:32.194Z</time>
      </trkpt>
      <trkpt lat="47.705527" lon="7.685792">
        <ele>483.182492</ele>
        <time>2021-11-22T10:24:34.569Z</time>
      </trkpt>
      <trkpt lat="47.705598" lon="7.685425">
        <ele>483.193039</ele>
        <time>2021-11-22T10:24:37.840Z</time>
      </trkpt>
      <trkpt lat="47.705826" lon="7.684660">
        <ele>483.216147</ele>
        <time>2021-11-22T10:24:46.783Z</time>
      </trkpt>
      <trkpt lat="47.705881" lon="7.684506">
        <ele>483.220963</ele>
        <time>2021-11-22T10:24:49.417Z</time>
      </trkpt>
      <trkpt lat="47.706044" lon="7.684180">
        <ele>483.232180</ele>
        <time>2021-11-22T10:24:54.900Z</time>
      </trkpt>
      <trkpt lat="47.706149" lon="7.684067">
        <ele>483.237501</ele>
        <time>2021-11-22T10:24:57.830Z</time>
      </trkpt>
      <trkpt lat="47.706351" lon="7.683947">
        <ele>483.282835</ele>
        <time>2021-11-22T10:25:02.258Z</time>
      </trkpt>
      <trkpt lat="47.706927" lon="7.683483">
        <ele>483.536711</ele>
        <time>2021-11-22T10:25:15.454Z</time>
      </trkpt>
      <trkpt lat="47.707531" lon="7.682751">
        <ele>483.838714</ele>
        <time>2021-11-22T10:25:25.928Z</time>
      </trkpt>
      <trkpt lat="47.707720" lon="7.682649">
        <ele>483.916629</ele>
        <time>2021-11-22T10:25:28.581Z</time>
      </trkpt>
      <trkpt lat="47.708065" lon="7.682585">
        <ele>483.216014</ele>
        <time>2021-11-22T10:25:33.592Z</time>
      </trkpt>
      <trkpt lat="47.708243" lon="7.682684">
        <ele>482.741765</ele>
        <time>2021-11-22T10:25:36.622Z</time>
      </trkpt>
      <trkpt lat="47.708481" lon="7.683115">
        <ele>481.805595</ele>
        <time>2021-11-22T10:25:42.894Z</time>
      </trkpt>
      <trkpt lat="47.708943" lon="7.683354">
        <ele>480.584923</ele>
        <time>2021-11-22T10:25:47.682Z</time>
      </trkpt>
      <trkpt lat="47.709160" lon="7.684386">
        <ele>477.129811</ele>
        <time>2021-11-22T10:25:54.462Z</time>
      </trkpt>
      <trkpt lat="47.709249" lon="7.684498">
        <ele>476.138592</ele>
        <time>2021-11-22T10:25:55.564Z</time>
      </trkpt>
      <trkpt lat="47.709418" lon="7.684480">
        <ele>474.698508</ele>
        <time>2021-11-22T10:25:57.183Z</time>
      </trkpt>
      <trkpt lat="47.709444" lon="7.684446">
        <ele>474.404152</ele>
        <time>2021-11-22T10:25:57.496Z</time>
      </trkpt>
      <trkpt lat="47.709477" lon="7.684403">
        <ele>474.031127</ele>
        <time>2021-11-22T10:25:57.855Z</time>
      </trkpt>
      <trkpt lat="47.709521" lon="7.684250">
        <ele>473.079530</ele>
        <time>2021-11-22T10:25:58.894Z</time>
      </trkpt>
      <trkpt lat="47.709553" lon="7.683244">
        <ele>467.319633</ele>
        <time>2021-11-22T10:26:04.758Z</time>
      </trkpt>
      <trkpt lat="47.709981" lon="7.681865">
        <ele>458.793752</ele>
        <time>2021-11-22T10:26:13.453Z</time>
      </trkpt>
      <trkpt lat="47.710111" lon="7.681645">
        <ele>457.167513</ele>
        <time>2021-11-22T10:26:15.163Z</time>
      </trkpt>
      <trkpt lat="47.710620" lon="7.681447">
        <ele>452.824443</ele>
        <time>2021-11-22T10:26:19.826Z</time>
      </trkpt>
      <trkpt lat="47.711325" lon="7.680975">
        <ele>448.498803</ele>
        <time>2021-11-22T10:26:27.124Z</time>
      </trkpt>
      <trkpt lat="47.711472" lon="7.680508">
        <ele>447.684129</ele>
        <time>2021-11-22T10:26:30.812Z</time>
      </trkpt>
      <trkpt lat="47.711548" lon="7.680349">
        <ele>447.375949</ele>
        <time>2021-11-22T10:26:32.673Z</time>
      </trkpt>
      <trkpt lat="47.711955" lon="7.679497">
        <ele>445.724911</ele>
        <time>2021-11-22T10:26:41.949Z</time>
      </trkpt>
      <trkpt lat="47.712100" lon="7.679454">
        <ele>445.377687</ele>
        <time>2021-11-22T10:26:45.587Z</time>
      </trkpt>
      <trkpt lat="47.712883" lon="7.680135">
        <ele>440.746885</ele>
        <time>2021-11-22T10:26:54.453Z</time>
      </trkpt>
      <trkpt lat="47.712975" lon="7.680138">
        <ele>440.238027</ele>
        <time>2021-11-22T10:26:58.327Z</time>
      </trkpt>
      <trkpt lat="47.713027" lon="7.680082">
        <ele>439.882927</ele>
        <time>2021-11-22T10:26:58.901Z</time>
      </trkpt>
      <trkpt lat="47.713040" lon="7.680029">
        <ele>439.673038</ele>
        <time>2021-11-22T10:26:59.236Z</time>
      </trkpt>
      <trkpt lat="47.713062" lon="7.679942">
        <ele>439.327236</ele>
        <time>2021-11-22T10:26:59.742Z</time>
      </trkpt>
      <trkpt lat="47.712859" lon="7.679615">
        <ele>437.671838</ele>
        <time>2021-11-22T10:27:02.721Z</time>
      </trkpt>
      <trkpt lat="47.712582" lon="7.679169">
        <ele>435.413542</ele>
        <time>2021-11-22T10:27:06.216Z</time>
      </trkpt>
      <trkpt lat="47.712428" lon="7.678763">
        <ele>432.478809</ele>
        <time>2021-11-22T10:27:09.017Z</time>
      </trkpt>
      <trkpt lat="47.712394" lon="7.678438">
        <ele>430.253753</ele>
        <time>2021-11-22T10:27:10.892Z</time>
      </trkpt>
      <trkpt lat="47.712374" lon="7.678233">
        <ele>428.852415</ele>
        <time>2021-11-22T10:27:12.078Z</time>
      </trkpt>
      <trkpt lat="47.712502" lon="7.677710">
        <ele>425.087509</ele>
        <time>2021-11-22T10:27:15.211Z</time>
      </trkpt>
      <trkpt lat="47.712612" lon="7.677426">
        <ele>422.870654</ele>
        <time>2021-11-22T10:27:17.112Z</time>
      </trkpt>
      <trkpt lat="47.713251" lon="7.676281">
        <ele>414.722824</ele>
        <time>2021-11-22T10:27:25.860Z</time>
      </trkpt>
      <trkpt lat="47.713654" lon="7.675903">
        <ele>412.088387</ele>
        <time>2021-11-22T10:27:30.262Z</time>
      </trkpt>
      <trkpt lat="47.714388" lon="7.675415">
        <ele>407.643196</ele>
        <time>2021-11-22T10:27:38.212Z</time>
      </trkpt>
      <trkpt lat="47.714651" lon="7.675347">
        <ele>406.310892</ele>
        <time>2021-11-22T10:27:41.050Z</time>
      </trkpt>
      <trkpt lat="47.714924" lon="7.675509">
        <ele>404.930710</ele>
        <time>2021-11-22T10:27:43.779Z</time>
      </trkpt>
      <trkpt lat="47.714962" lon="7.675531">
        <ele>404.739234</ele>
        <time>2021-11-22T10:27:44.790Z</time>
      </trkpt>
      <trkpt lat="47.715676" lon="7.676459">
        <ele>400.285857</ele>
        <time>2021-11-22T10:27:54.169Z</time>
      </trkpt>
      <trkpt lat="47.715913" lon="7.676464">
        <ele>399.172977</ele>
        <time>2021-11-22T10:27:56.536Z</time>
      </trkpt>
      <trkpt lat="47.716031" lon="7.676354">
        <ele>398.368949</ele>
        <time>2021-11-22T10:27:57.700Z</time>
      </trkpt>
      <trkpt lat="47.716069" lon="7.676265">
        <ele>397.714586</ele>
        <time>2021-11-22T10:27:58.343Z</time>
      </trkpt>
      <trkpt lat="47.715866" lon="7.676034">
        <ele>395.355616</ele>
        <time>2021-11-22T10:28:00.569Z</time>
      </trkpt>
      <trkpt lat="47.715513" lon="7.675557">
        <ele>390.953670</ele>
        <time>2021-11-22T10:28:04.689Z</time>
      </trkpt>
      <trkpt lat="47.715435" lon="7.675393">
        <ele>389.706877</ele>
        <time>2021-11-22T10:28:05.875Z</time>
      </trkpt>
      <trkpt lat="47.715372" lon="7.675190">
        <ele>388.319059</ele>
        <time>2021-11-22T10:28:07.128Z</time>
      </trkpt>
      <trkpt lat="47.715321" lon="7.674989">
        <ele>386.985477</ele>
        <time>2021-11-22T10:28:08.429Z</time>
      </trkpt>
      <trkpt lat="47.715299" lon="7.674805">
        <ele>385.825316</ele>
        <time>2021-11-22T10:28:09.490Z</time>
      </trkpt>
      <trkpt lat="47.715290" lon="7.674706">
        <ele>385.205142</ele>
        <time>2021-11-22T10:28:10.050Z</time>
      </trkpt>
      <trkpt lat="47.715255" lon="7.674565">
        <ele>384.272147</ele>
        <time>2021-11-22T10:28:10.952Z</time>
      </trkpt>
      <trkpt lat="47.715230" lon="7.674517">
        <ele>383.895314</ele>
        <time>2021-11-22T10:28:11.306Z</time>
      </trkpt>
      <trkpt lat="47.715182" lon="7.674449">
        <ele>383.283469</ele>
        <time>2021-11-22T10:28:11.890Z</time>
      </trkpt>
      <trkpt lat="47.715014" lon="7.674194">
        <ele>381.331002</ele>
        <time>2021-11-22T10:28:14.003Z</time>
      </trkpt>
      <trkpt lat="47.714805" lon="7.673694">
        <ele>378.628045</ele>
        <time>2021-11-22T10:28:17.475Z</time>
      </trkpt>
      <trkpt lat="47.714772" lon="7.673618">
        <ele>378.212696</ele>
        <time>2021-11-22T10:28:18.004Z</time>
      </trkpt>
      <trkpt lat="47.714685" lon="7.673382">
        <ele>376.977002</ele>
        <time>2021-11-22T10:28:19.544Z</time>
      </trkpt>
      <trkpt lat="47.714642" lon="7.673220">
        <ele>376.177316</ele>
        <time>2021-11-22T10:28:20.634Z</time>
      </trkpt>
      <trkpt lat="47.714497" lon="7.672662">
        <ele>373.430560</ele>
        <time>2021-11-22T10:28:24.225Z</time>
      </trkpt>
      <trkpt lat="47.714434" lon="7.672421">
        <ele>372.243311</ele>
        <time>2021-11-22T10:28:25.886Z</time>
      </trkpt>
      <trkpt lat="47.714360" lon="7.671644">
        <ele>369.343601</ele>
        <time>2021-11-22T10:28:31.332Z</time>
      </trkpt>
      <trkpt lat="47.714314" lon="7.670907">
        <ele>368.000984</ele>
        <time>2021-11-22T10:28:36.646Z</time>
      </trkpt>
      <trkpt lat="47.714281" lon="7.670488">
        <ele>367.235752</ele>
        <time>2021-11-22T10:28:39.689Z</time>
      </trkpt>
      <trkpt lat="47.714253" lon="7.670145">
        <ele>366.609005</ele>
        <time>2021-11-22T10:28:42.102Z</time>
      </trkpt>
      <trkpt lat="47.714114" lon="7.669456">
        <ele>365.304221</ele>
        <time>2021-11-22T10:28:47.205Z</time>
      </trkpt>
      <trkpt lat="47.714082" lon="7.669298">
        <ele>365.004914</ele>
        <time>2021-11-22T10:28:48.328Z</time>
      </trkpt>
      <trkpt lat="47.713822" lon="7.668642">
        <ele>363.865162</ele>
        <time>2021-11-22T10:28:53.792Z</time>
      </trkpt>
      <trkpt lat="47.713746" lon="7.668443">
        <ele>363.525388</ele>
        <time>2021-11-22T10:28:55.414Z</time>
      </trkpt>
      <trkpt lat="47.713714" lon="7.668137">
        <ele>363.065559</ele>
        <time>2021-11-22T10:28:57.679Z</time>
      </trkpt>
      <trkpt lat="47.713737" lon="7.667710">
        <ele>362.429487</ele>
        <time>2021-11-22T10:29:00.858Z</time>
      </trkpt>
      <trkpt lat="47.713762" lon="7.667287">
        <ele>361.798964</ele>
        <time>2021-11-22T10:29:04.015Z</time>
      </trkpt>
      <trkpt lat="47.713770" lon="7.667139">
        <ele>361.578493</ele>
        <time>2021-11-22T10:29:05.111Z</time>
      </trkpt>
      <trkpt lat="47.713776" lon="7.666553">
        <ele>360.751469</ele>
        <time>2021-11-22T10:29:09.385Z</time>
      </trkpt>
      <trkpt lat="47.713751" lon="7.666127">
        <ele>360.215813</ele>
        <time>2021-11-22T10:29:12.487Z</time>
      </trkpt>
      <trkpt lat="47.713713" lon="7.665724">
        <ele>359.706060</ele>
        <time>2021-11-22T10:29:15.504Z</time>
      </trkpt>
      <trkpt lat="47.713694" lon="7.665534">
        <ele>359.465442</ele>
        <time>2021-11-22T10:29:16.900Z</time>
      </trkpt>
      <trkpt lat="47.713660" lon="7.665126">
        <ele>358.950453</ele>
        <time>2021-11-22T10:29:19.913Z</time>
      </trkpt>
      <trkpt lat="47.713615" lon="7.664644">
        <ele>358.340888</ele>
        <time>2021-11-22T10:29:23.631Z</time>
      </trkpt>
      <trkpt lat="47.713532" lon="7.663657">
        <ele>357.124688</ele>
        <time>2021-11-22T10:29:31.381Z</time>
      </trkpt>
      <trkpt lat="47.713524" lon="7.663564">
        <ele>357.013710</ele>
        <time>2021-11-22T10:29:32.093Z</time>
      </trkpt>
      <trkpt lat="47.713499" lon="7.663352">
        <ele>356.758944</ele>
        <time>2021-11-22T10:29:33.760Z</time>
      </trkpt>
      <trkpt lat="47.713489" lon="7.663259">
        <ele>356.647465</ele>
        <time>2021-11-22T10:29:34.472Z</time>
      </trkpt>
      <trkpt lat="47.713482" lon="7.663229">
        <ele>356.609879</ele>
        <time>2021-11-22T10:29:34.723Z</time>
      </trkpt>
      <trkpt lat="47.713461" lon="7.663133">
        <ele>356.490391</ele>
        <time>2021-11-22T10:29:35.517Z</time>
      </trkpt>
      <trkpt lat="47.713413" lon="7.663003">
        <ele>356.314865</ele>
        <time>2021-11-22T10:29:36.629Z</time>
      </trkpt>
      <trkpt lat="47.713115" lon="7.662424">
        <ele>355.451989</ele>
        <time>2021-11-22T10:29:42.150Z</time>
      </trkpt>
      <trkpt lat="47.712590" lon="7.661411">
        <ele>354.078044</ele>
        <time>2021-11-22T10:29:51.568Z</time>
      </trkpt>
      <trkpt lat="47.712466" lon="7.661175">
        <ele>353.816397</ele>
        <time>2021-11-22T10:29:53.672Z</time>
      </trkpt>
      <trkpt lat="47.712059" lon="7.660406">
        <ele>352.961462</ele>
        <time>2021-11-22T10:30:01.532Z</time>
      </trkpt>
      <trkpt lat="47.711745" lon="7.659816">
        <ele>352.304129</ele>
        <time>2021-11-22T10:30:07.953Z</time>
      </trkpt>
      <trkpt lat="47.711707" lon="7.659738">
        <ele>352.219981</ele>
        <time>2021-11-22T10:30:08.763Z</time>
      </trkpt>
      <trkpt lat="47.711647" lon="7.659597">
        <ele>352.175934</ele>
        <time>2021-11-22T10:30:10.145Z</time>
      </trkpt>
      <trkpt lat="47.711601" lon="7.659452">
        <ele>352.266997</ele>
        <time>2021-11-22T10:30:11.505Z</time>
      </trkpt>
      <trkpt lat="47.711321" lon="7.659557">
        <ele>352.510789</ele>
        <time>2021-11-22T10:30:15.423Z</time>
      </trkpt>
      <trkpt lat="47.711206" lon="7.659579">
        <ele>352.608676</ele>
        <time>2021-11-22T10:30:17.287Z</time>
      </trkpt>
      <trkpt lat="47.711025" lon="7.659560">
        <ele>352.761861</ele>
        <time>2021-11-22T10:30:20.008Z</time>
      </trkpt>
      <trkpt lat="47.710270" lon="7.659281">
        <ele>353.418659</ele>
        <time>2021-11-22T10:30:35.644Z</time>
      </trkpt>
      <trkpt lat="47.709284" lon="7.658906">
        <ele>354.946093</ele>
        <time>2021-11-22T10:31:00.398Z</time>
      </trkpt>
      <trkpt lat="47.709055" lon="7.658809">
        <ele>355.362533</ele>
        <time>2021-11-22T10:31:05.666Z</time>
      </trkpt>
      <trkpt lat="47.708716" lon="7.658619">
        <ele>355.996160</ele>
        <time>2021-11-22T10:31:13.356Z</time>
      </trkpt>
      <trkpt lat="47.708406" lon="7.658397">
        <ele>356.597972</ele>
        <time>2021-11-22T10:31:20.333Z</time>
      </trkpt>
      <trkpt lat="47.707551" lon="7.657642">
        <ele>357.048491</ele>
        <time>2021-11-22T10:31:38.800Z</time>
      </trkpt>
      <trkpt lat="47.707435" lon="7.657543">
        <ele>357.086319</ele>
        <time>2021-11-22T10:31:41.085Z</time>
      </trkpt>
      <trkpt lat="47.707399" lon="7.657512">
        <ele>357.098084</ele>
        <time>2021-11-22T10:31:41.834Z</time>
      </trkpt>
      <trkpt lat="47.707303" lon="7.657425">
        <ele>357.129882</ele>
        <time>2021-11-22T10:31:43.344Z</time>
      </trkpt>
      <trkpt lat="47.706151" lon="7.656379">
        <ele>356.250427</ele>
        <time>2021-11-22T10:32:00.679Z</time>
      </trkpt>
      <trkpt lat="47.705728" lon="7.655994">
        <ele>355.519724</ele>
        <time>2021-11-22T10:32:06.360Z</time>
      </trkpt>
      <trkpt lat="47.704952" lon="7.655270">
        <ele>353.679568</ele>
        <time>2021-11-22T10:32:16.201Z</time>
      </trkpt>
      <trkpt lat="47.704453" lon="7.654617">
        <ele>351.717781</ele>
        <time>2021-11-22T10:32:22.934Z</time>
      </trkpt>
      <trkpt lat="47.704058" lon="7.654022">
        <ele>350.058292</ele>
        <time>2021-11-22T10:32:28.442Z</time>
      </trkpt>
      <trkpt lat="47.703648" lon="7.653386">
        <ele>349.331932</ele>
        <time>2021-11-22T10:32:34.833Z</time>
      </trkpt>
      <trkpt lat="47.703578" lon="7.653277">
        <ele>349.326127</ele>
        <time>2021-11-22T10:32:35.851Z</time>
      </trkpt>
      <trkpt lat="47.703147" lon="7.652748">
        <ele>349.294124</ele>
        <time>2021-11-22T10:32:42.812Z</time>
      </trkpt>
      <trkpt lat="47.702902" lon="7.652578">
        <ele>349.278645</ele>
        <time>2021-11-22T10:32:46.811Z</time>
      </trkpt>
      <trkpt lat="47.702697" lon="7.652487">
        <ele>349.266396</ele>
        <time>2021-11-22T10:32:54.550Z</time>
      </trkpt>
      <trkpt lat="47.702245" lon="7.652399">
        <ele>349.715730</ele>
        <time>2021-11-22T10:33:07.948Z</time>
      </trkpt>
      <trkpt lat="47.701522" lon="7.652534">
        <ele>351.904197</ele>
        <time>2021-11-22T10:33:33.494Z</time>
      </trkpt>
      <trkpt lat="47.701331" lon="7.652535">
        <ele>352.477833</ele>
        <time>2021-11-22T10:33:42.159Z</time>
      </trkpt>
      <trkpt lat="47.701186" lon="7.652499">
        <ele>352.919349</ele>
        <time>2021-11-22T10:33:46.755Z</time>
      </trkpt>
      <trkpt lat="47.699361" lon="7.651801">
        <ele>355.982956</ele>
        <time>2021-11-22T10:34:37.902Z</time>
      </trkpt>
      <trkpt lat="47.698132" lon="7.651500">
        <ele>354.950273</ele>
        <time>2021-11-22T10:35:00.213Z</time>
      </trkpt>
      <trkpt lat="47.698009" lon="7.651490">
        <ele>354.700184</ele>
        <time>2021-11-22T10:35:02.243Z</time>
      </trkpt>
      <trkpt lat="47.697889" lon="7.651480">
        <ele>354.456177</ele>
        <time>2021-11-22T10:35:04.128Z</time>
      </trkpt>
      <trkpt lat="47.697462" lon="7.651443">
        <ele>353.587808</ele>
        <time>2021-11-22T10:35:10.630Z</time>
      </trkpt>
      <trkpt lat="47.697072" lon="7.651347">
        <ele>352.704021</ele>
        <time>2021-11-22T10:35:16.295Z</time>
      </trkpt>
      <trkpt lat="47.696435" lon="7.651009">
        <ele>348.899690</ele>
        <time>2021-11-22T10:35:25.504Z</time>
      </trkpt>
      <trkpt lat="47.696170" lon="7.650709">
        <ele>347.025878</ele>
        <time>2021-11-22T10:35:29.857Z</time>
      </trkpt>
      <trkpt lat="47.695567" lon="7.649782">
        <ele>342.227442</ele>
        <time>2021-11-22T10:35:41.031Z</time>
      </trkpt>
      <trkpt lat="47.695262" lon="7.649448">
        <ele>340.402619</ele>
        <time>2021-11-22T10:35:45.964Z</time>
      </trkpt>
      <trkpt lat="47.694789" lon="7.649198">
        <ele>337.984721</ele>
        <time>2021-11-22T10:35:52.678Z</time>
      </trkpt>
      <trkpt lat="47.693813" lon="7.648908">
        <ele>333.569813</ele>
        <time>2021-11-22T10:36:06.921Z</time>
      </trkpt>
      <trkpt lat="47.693401" lon="7.648673">
        <ele>332.378975</ele>
        <time>2021-11-22T10:36:13.502Z</time>
      </trkpt>
      <trkpt lat="47.693195" lon="7.648488">
        <ele>331.729450</ele>
        <time>2021-11-22T10:36:17.167Z</time>
      </trkpt>
      <trkpt lat="47.692763" lon="7.648057">
        <ele>330.325306</ele>
        <time>2021-11-22T10:36:25.148Z</time>
      </trkpt>
      <trkpt lat="47.692210" lon="7.647462">
        <ele>328.523140</ele>
        <time>2021-11-22T10:36:32.433Z</time>
      </trkpt>
      <trkpt lat="47.691716" lon="7.647044">
        <ele>327.075341</ele>
        <time>2021-11-22T10:36:38.378Z</time>
      </trkpt>
      <trkpt lat="47.690591" lon="7.646393">
        <ele>323.953065</ele>
        <time>2021-11-22T10:36:51.072Z</time>
      </trkpt>
      <trkpt lat="47.690314" lon="7.646231">
        <ele>323.136521</ele>
        <time>2021-11-22T10:36:54.201Z</time>
      </trkpt>
      <trkpt lat="47.690158" lon="7.646119">
        <ele>322.661277</ele>
        <time>2021-11-22T10:36:56.040Z</time>
      </trkpt>
      <trkpt lat="47.689667" lon="7.645619">
        <ele>321.028469</ele>
        <time>2021-11-22T10:37:02.269Z</time>
      </trkpt>
      <trkpt lat="47.689472" lon="7.645421">
        <ele>320.380598</ele>
        <time>2021-11-22T10:37:04.714Z</time>
      </trkpt>
      <trkpt lat="47.689331" lon="7.645277">
        <ele>319.911271</ele>
        <time>2021-11-22T10:37:06.441Z</time>
      </trkpt>
      <trkpt lat="47.689269" lon="7.645223">
        <ele>319.714137</ele>
        <time>2021-11-22T10:37:07.204Z</time>
      </trkpt>
      <trkpt lat="47.689023" lon="7.644997">
        <ele>318.912822</ele>
        <time>2021-11-22T10:37:10.115Z</time>
      </trkpt>
      <trkpt lat="47.688378" lon="7.644436">
        <ele>316.841376</ele>
        <time>2021-11-22T10:37:17.730Z</time>
      </trkpt>
      <trkpt lat="47.688064" lon="7.644214">
        <ele>315.877606</ele>
        <time>2021-11-22T10:37:21.324Z</time>
      </trkpt>
      <trkpt lat="47.687943" lon="7.644144">
        <ele>315.517728</ele>
        <time>2021-11-22T10:37:22.689Z</time>
      </trkpt>
      <trkpt lat="47.687717" lon="7.644021">
        <ele>314.850665</ele>
        <time>2021-11-22T10:37:25.230Z</time>
      </trkpt>
      <trkpt lat="47.687342" lon="7.643852">
        <ele>314.230194</ele>
        <time>2021-11-22T10:37:29.602Z</time>
      </trkpt>
      <trkpt lat="47.686167" lon="7.643537">
        <ele>312.568086</ele>
        <time>2021-11-22T10:37:43.650Z</time>
      </trkpt>
      <trkpt lat="47.686037" lon="7.643502">
        <ele>312.384168</ele>
        <time>2021-11-22T10:37:45.355Z</time>
      </trkpt>
      <trkpt lat="47.685116" lon="7.643256">
        <ele>311.562906</ele>
        <time>2021-11-22T10:37:57.253Z</time>
      </trkpt>
      <trkpt lat="47.684688" lon="7.643294">
        <ele>311.223796</ele>
        <time>2021-11-22T10:38:02.655Z</time>
      </trkpt>
      <trkpt lat="47.684065" lon="7.643546">
        <ele>310.721815</ele>
        <time>2021-11-22T10:38:10.714Z</time>
      </trkpt>
      <trkpt lat="47.682895" lon="7.644174">
        <ele>309.879117</ele>
        <time>2021-11-22T10:38:26.630Z</time>
      </trkpt>
      <trkpt lat="47.681839" lon="7.644744">
        <ele>309.160264</ele>
        <time>2021-11-22T10:38:41.516Z</time>
      </trkpt>
      <trkpt lat="47.681210" lon="7.644957">
        <ele>308.765462</ele>
        <time>2021-11-22T10:38:50.099Z</time>
      </trkpt>
      <trkpt lat="47.680886" lon="7.645003">
        <ele>308.566283</ele>
        <time>2021-11-22T10:38:54.309Z</time>
      </trkpt>
      <trkpt lat="47.680235" lon="7.644970">
        <ele>307.810370</ele>
        <time>2021-11-22T10:39:02.419Z</time>
      </trkpt>
      <trkpt lat="47.679075" lon="7.644701">
        <ele>306.197272</ele>
        <time>2021-11-22T10:39:15.987Z</time>
      </trkpt>
      <trkpt lat="47.678638" lon="7.644712">
        <ele>305.423679</ele>
        <time>2021-11-22T10:39:20.758Z</time>
      </trkpt>
      <trkpt lat="47.678215" lon="7.644856">
        <ele>304.560459</ele>
        <time>2021-11-22T10:39:25.479Z</time>
      </trkpt>
      <trkpt lat="47.677287" lon="7.645352">
        <ele>302.598660</ele>
        <time>2021-11-22T10:39:36.212Z</time>
      </trkpt>
      <trkpt lat="47.676144" lon="7.645982">
        <ele>300.737921</ele>
        <time>2021-11-22T10:39:49.963Z</time>
      </trkpt>
      <trkpt lat="47.675857" lon="7.646130">
        <ele>300.286402</ele>
        <time>2021-11-22T10:39:53.513Z</time>
      </trkpt>
      <trkpt lat="47.674979" lon="7.646600">
        <ele>299.356001</ele>
        <time>2021-11-22T10:40:05.111Z</time>
      </trkpt>
      <trkpt lat="47.674778" lon="7.646693">
        <ele>299.214612</ele>
        <time>2021-11-22T10:40:07.844Z</time>
      </trkpt>
      <trkpt lat="47.674520" lon="7.646797">
        <ele>299.035073</ele>
        <time>2021-11-22T10:40:11.342Z</time>
      </trkpt>
      <trkpt lat="47.673408" lon="7.647202">
        <ele>298.510005</ele>
        <time>2021-11-22T10:40:26.416Z</time>
      </trkpt>
      <trkpt lat="47.673012" lon="7.647342">
        <ele>298.494637</ele>
        <time>2021-11-22T10:40:31.976Z</time>
      </trkpt>
      <trkpt lat="47.672269" lon="7.647611">
        <ele>298.465763</ele>
        <time>2021-11-22T10:40:43.769Z</time>
      </trkpt>
      <trkpt lat="47.671938" lon="7.647731">
        <ele>298.504725</ele>
        <time>2021-11-22T10:40:49.302Z</time>
      </trkpt>
      <trkpt lat="47.671204" lon="7.647979">
        <ele>298.871735</ele>
        <time>2021-11-22T10:41:02.279Z</time>
      </trkpt>
      <trkpt lat="47.670562" lon="7.648100">
        <ele>299.187255</ele>
        <time>2021-11-22T10:41:13.800Z</time>
      </trkpt>
      <trkpt lat="47.670251" lon="7.648133">
        <ele>299.329764</ele>
        <time>2021-11-22T10:41:19.077Z</time>
      </trkpt>
      <trkpt lat="47.670075" lon="7.648135">
        <ele>299.272759</ele>
        <time>2021-11-22T10:41:21.841Z</time>
      </trkpt>
      <trkpt lat="47.669789" lon="7.648115">
        <ele>299.180026</ele>
        <time>2021-11-22T10:41:26.027Z</time>
      </trkpt>
      <trkpt lat="47.669515" lon="7.648111">
        <ele>299.091278</ele>
        <time>2021-11-22T10:41:29.639Z</time>
      </trkpt>
      <trkpt lat="47.669119" lon="7.648215">
        <ele>298.961029</ele>
        <time>2021-11-22T10:41:34.745Z</time>
      </trkpt>
      <trkpt lat="47.668918" lon="7.648316">
        <ele>298.892303</ele>
        <time>2021-11-22T10:41:37.468Z</time>
      </trkpt>
      <trkpt lat="47.668668" lon="7.648492">
        <ele>298.802694</ele>
        <time>2021-11-22T10:41:40.956Z</time>
      </trkpt>
      <trkpt lat="47.668493" lon="7.648647">
        <ele>298.785307</ele>
        <time>2021-11-22T10:41:43.663Z</time>
      </trkpt>
      <trkpt lat="47.668270" lon="7.648935">
        <ele>299.014708</ele>
        <time>2021-11-22T10:41:47.672Z</time>
      </trkpt>
      <trkpt lat="47.668238" lon="7.648988">
        <ele>299.051917</ele>
        <time>2021-11-22T10:41:48.381Z</time>
      </trkpt>
      <trkpt lat="47.668164" lon="7.649101">
        <ele>299.134308</ele>
        <time>2021-11-22T10:41:49.972Z</time>
      </trkpt>
      <trkpt lat="47.668098" lon="7.649193">
        <ele>299.204573</ele>
        <time>2021-11-22T10:41:51.511Z</time>
      </trkpt>
      <trkpt lat="47.667987" lon="7.649348">
        <ele>299.322844</ele>
        <time>2021-11-22T10:41:54.053Z</time>
      </trkpt>
      <trkpt lat="47.667834" lon="7.649512">
        <ele>299.469313</ele>
        <time>2021-11-22T10:41:57.089Z</time>
      </trkpt>
      <trkpt lat="47.667757" lon="7.649591">
        <ele>299.541960</ele>
        <time>2021-11-22T10:41:59.372Z</time>
      </trkpt>
      <trkpt lat="47.667609" lon="7.649723">
        <ele>299.675969</ele>
        <time>2021-11-22T10:42:02.382Z</time>
      </trkpt>
      <trkpt lat="47.667524" lon="7.649782">
        <ele>299.748799</ele>
        <time>2021-11-22T10:42:04.221Z</time>
      </trkpt>
      <trkpt lat="47.667413" lon="7.649861">
        <ele>299.844344</ele>
        <time>2021-11-22T10:42:07.395Z</time>
      </trkpt>
      <trkpt lat="47.667233" lon="7.649960">
        <ele>299.993338</ele>
        <time>2021-11-22T10:42:11.203Z</time>
      </trkpt>
      <trkpt lat="47.667018" lon="7.650053">
        <ele>300.172216</ele>
        <time>2021-11-22T10:42:16.619Z</time>
      </trkpt>
      <trkpt lat="47.666915" lon="7.650090">
        <ele>300.275241</ele>
        <time>2021-11-22T10:42:18.642Z</time>
      </trkpt>
      <trkpt lat="47.666769" lon="7.650121">
        <ele>300.418627</ele>
        <time>2021-11-22T10:42:22.387Z</time>
      </trkpt>
      <trkpt lat="47.666469" lon="7.650140">
        <ele>300.710554</ele>
        <time>2021-11-22T10:42:28.504Z</time>
      </trkpt>
      <trkpt lat="47.666386" lon="7.650133">
        <ele>300.791377</ele>
        <time>2021-11-22T10:42:30.813Z</time>
      </trkpt>
      <trkpt lat="47.666293" lon="7.650120">
        <ele>300.882192</ele>
        <time>2021-11-22T10:42:32.614Z</time>
      </trkpt>
      <trkpt lat="47.666200" lon="7.650101">
        <ele>300.973458</ele>
        <time>2021-11-22T10:42:34.186Z</time>
      </trkpt>
      <trkpt lat="47.666026" lon="7.650050">
        <ele>301.145886</ele>
        <time>2021-11-22T10:42:38.083Z</time>
      </trkpt>
      <trkpt lat="47.665819" lon="7.649965">
        <ele>301.354686</ele>
        <time>2021-11-22T10:42:41.716Z</time>
      </trkpt>
      <trkpt lat="47.665608" lon="7.649864">
        <ele>301.570216</ele>
        <time>2021-11-22T10:42:45.883Z</time>
      </trkpt>
      <trkpt lat="47.664938" lon="7.649547">
        <ele>301.450433</ele>
        <time>2021-11-22T10:42:55.435Z</time>
      </trkpt>
      <trkpt lat="47.663770" lon="7.649020">
        <ele>299.974330</ele>
        <time>2021-11-22T10:43:09.203Z</time>
      </trkpt>
      <trkpt lat="47.663508" lon="7.648914">
        <ele>299.688299</ele>
        <time>2021-11-22T10:43:12.312Z</time>
      </trkpt>
      <trkpt lat="47.663232" lon="7.648829">
        <ele>299.540045</ele>
        <time>2021-11-22T10:43:15.741Z</time>
      </trkpt>
      <trkpt lat="47.662921" lon="7.648813">
        <ele>299.376374</ele>
        <time>2021-11-22T10:43:19.676Z</time>
      </trkpt>
      <trkpt lat="47.662696" lon="7.648801">
        <ele>299.257957</ele>
        <time>2021-11-22T10:43:22.688Z</time>
      </trkpt>
      <trkpt lat="47.661612" lon="7.649123">
        <ele>298.793336</ele>
        <time>2021-11-22T10:43:38.671Z</time>
      </trkpt>
      <trkpt lat="47.661297" lon="7.649197">
        <ele>298.824824</ele>
        <time>2021-11-22T10:43:43.800Z</time>
      </trkpt>
      <trkpt lat="47.661024" lon="7.649242">
        <ele>298.851944</ele>
        <time>2021-11-22T10:43:48.140Z</time>
      </trkpt>
      <trkpt lat="47.659268" lon="7.649321">
        <ele>298.618428</ele>
        <time>2021-11-22T10:44:14.476Z</time>
      </trkpt>
      <trkpt lat="47.658704" lon="7.649353">
        <ele>298.363225</ele>
        <time>2021-11-22T10:44:21.738Z</time>
      </trkpt>
      <trkpt lat="47.658594" lon="7.649360">
        <ele>298.313442</ele>
        <time>2021-11-22T10:44:23.020Z</time>
      </trkpt>
      <trkpt lat="47.658378" lon="7.649367">
        <ele>298.215753</ele>
        <time>2021-11-22T10:44:25.682Z</time>
      </trkpt>
      <trkpt lat="47.658190" lon="7.649367">
        <ele>298.128721</ele>
        <time>2021-11-22T10:44:27.870Z</time>
      </trkpt>
      <trkpt lat="47.657856" lon="7.649278">
        <ele>297.938471</ele>
        <time>2021-11-22T10:44:32.339Z</time>
      </trkpt>
      <trkpt lat="47.657517" lon="7.649055">
        <ele>297.730589</ele>
        <time>2021-11-22T10:44:37.548Z</time>
      </trkpt>
      <trkpt lat="47.657407" lon="7.648956">
        <ele>297.658471</ele>
        <time>2021-11-22T10:44:39.153Z</time>
      </trkpt>
      <trkpt lat="47.657216" lon="7.648783">
        <ele>297.533031</ele>
        <time>2021-11-22T10:44:42.540Z</time>
      </trkpt>
      <trkpt lat="47.657192" lon="7.648762">
        <ele>297.517412</ele>
        <time>2021-11-22T10:44:42.844Z</time>
      </trkpt>
      <trkpt lat="47.657056" lon="7.648643">
        <ele>297.428906</ele>
        <time>2021-11-22T10:44:44.950Z</time>
      </trkpt>
      <trkpt lat="47.656846" lon="7.648502">
        <ele>297.299688</ele>
        <time>2021-11-22T10:44:47.997Z</time>
      </trkpt>
      <trkpt lat="47.656764" lon="7.648472">
        <ele>297.252339</ele>
        <time>2021-11-22T10:44:49.050Z</time>
      </trkpt>
      <trkpt lat="47.656655" lon="7.648456">
        <ele>297.190930</ele>
        <time>2021-11-22T10:44:50.851Z</time>
      </trkpt>
      <trkpt lat="47.656305" lon="7.648458">
        <ele>296.812494</ele>
        <time>2021-11-22T10:44:55.292Z</time>
      </trkpt>
      <trkpt lat="47.656217" lon="7.648446">
        <ele>296.696608</ele>
        <time>2021-11-22T10:44:56.549Z</time>
      </trkpt>
      <trkpt lat="47.656037" lon="7.648382">
        <ele>296.453888</ele>
        <time>2021-11-22T10:44:58.611Z</time>
      </trkpt>
      <trkpt lat="47.655784" lon="7.648221">
        <ele>296.092919</ele>
        <time>2021-11-22T10:45:01.948Z</time>
      </trkpt>
      <trkpt lat="47.655695" lon="7.648164">
        <ele>295.965811</ele>
        <time>2021-11-22T10:45:03.111Z</time>
      </trkpt>
      <trkpt lat="47.655308" lon="7.647995">
        <ele>295.436814</ele>
        <time>2021-11-22T10:45:07.975Z</time>
      </trkpt>
      <trkpt lat="47.655058" lon="7.647893">
        <ele>295.096818</ele>
        <time>2021-11-22T10:45:10.939Z</time>
      </trkpt>
      <trkpt lat="47.654884" lon="7.647829">
        <ele>294.861742</ele>
        <time>2021-11-22T10:45:12.918Z</time>
      </trkpt>
      <trkpt lat="47.654669" lon="7.647768">
        <ele>294.484864</ele>
        <time>2021-11-22T10:45:15.257Z</time>
      </trkpt>
      <trkpt lat="47.654398" lon="7.647707">
        <ele>293.961857</ele>
        <time>2021-11-22T10:45:18.116Z</time>
      </trkpt>
      <trkpt lat="47.654163" lon="7.647662">
        <ele>293.509737</ele>
        <time>2021-11-22T10:45:20.604Z</time>
      </trkpt>
      <trkpt lat="47.654125" lon="7.647654">
        <ele>293.436503</ele>
        <time>2021-11-22T10:45:21.020Z</time>
      </trkpt>
      <trkpt lat="47.653619" lon="7.647573">
        <ele>292.465404</ele>
        <time>2021-11-22T10:45:26.512Z</time>
      </trkpt>
      <trkpt lat="47.653350" lon="7.647547">
        <ele>291.951037</ele>
        <time>2021-11-22T10:45:29.567Z</time>
      </trkpt>
      <trkpt lat="47.653086" lon="7.647536">
        <ele>291.447098</ele>
        <time>2021-11-22T10:45:32.706Z</time>
      </trkpt>
      <trkpt lat="47.652920" lon="7.647539">
        <ele>291.245468</ele>
        <time>2021-11-22T10:45:34.681Z</time>
      </trkpt>
      <trkpt lat="47.652440" lon="7.647567">
        <ele>290.831959</ele>
        <time>2021-11-22T10:45:40.826Z</time>
      </trkpt>
      <trkpt lat="47.651939" lon="7.647477">
        <ele>290.397546</ele>
        <time>2021-11-22T10:45:47.347Z</time>
      </trkpt>
      <trkpt lat="47.651776" lon="7.647418">
        <ele>290.253123</ele>
        <time>2021-11-22T10:45:49.766Z</time>
      </trkpt>
      <trkpt lat="47.651522" lon="7.647290">
        <ele>290.022222</ele>
        <time>2021-11-22T10:45:53.219Z</time>
      </trkpt>
      <trkpt lat="47.650126" lon="7.646357">
        <ele>288.123122</ele>
        <time>2021-11-22T10:46:11.376Z</time>
      </trkpt>
      <trkpt lat="47.649847" lon="7.646170">
        <ele>287.718765</ele>
        <time>2021-11-22T10:46:14.807Z</time>
      </trkpt>
      <trkpt lat="47.649375" lon="7.645717">
        <ele>286.919553</ele>
        <time>2021-11-22T10:46:21.253Z</time>
      </trkpt>
      <trkpt lat="47.649250" lon="7.645591">
        <ele>286.694191</ele>
        <time>2021-11-22T10:46:22.916Z</time>
      </trkpt>
      <trkpt lat="47.649183" lon="7.645524">
        <ele>286.573699</ele>
        <time>2021-11-22T10:46:23.883Z</time>
      </trkpt>
      <trkpt lat="47.649163" lon="7.645505">
        <ele>286.538283</ele>
        <time>2021-11-22T10:46:24.153Z</time>
      </trkpt>
      <trkpt lat="47.649028" lon="7.645357">
        <ele>286.287968</ele>
        <time>2021-11-22T10:46:26.039Z</time>
      </trkpt>
      <trkpt lat="47.648344" lon="7.644630">
        <ele>285.033216</ele>
        <time>2021-11-22T10:46:35.705Z</time>
      </trkpt>
      <trkpt lat="47.647782" lon="7.644142">
        <ele>284.647352</ele>
        <time>2021-11-22T10:46:43.433Z</time>
      </trkpt>
      <trkpt lat="47.647285" lon="7.643850">
        <ele>284.545285</ele>
        <time>2021-11-22T10:46:50.522Z</time>
      </trkpt>
      <trkpt lat="47.646861" lon="7.643698">
        <ele>284.461994</ele>
        <time>2021-11-22T10:46:57.454Z</time>
      </trkpt>
      <trkpt lat="47.646551" lon="7.643630">
        <ele>284.402156</ele>
        <time>2021-11-22T10:47:02.875Z</time>
      </trkpt>
      <trkpt lat="47.645877" lon="7.643495">
        <ele>285.506597</ele>
        <time>2021-11-22T10:47:16.534Z</time>
      </trkpt>
      <trkpt lat="47.645322" lon="7.643383">
        <ele>286.522795</ele>
        <time>2021-11-22T10:47:29.575Z</time>
      </trkpt>
      <trkpt lat="47.645036" lon="7.643325">
        <ele>287.046504</ele>
        <time>2021-11-22T10:47:36.320Z</time>
      </trkpt>
      <trkpt lat="47.644959" lon="7.643309">
        <ele>287.187568</ele>
        <time>2021-11-22T10:47:38.504Z</time>
      </trkpt>
      <trkpt lat="47.644765" lon="7.643259">
        <ele>287.544808</ele>
        <time>2021-11-22T10:47:43.292Z</time>
      </trkpt>
      <trkpt lat="47.644571" lon="7.643184">
        <ele>288.004034</ele>
        <time>2021-11-22T10:47:48.260Z</time>
      </trkpt>
      <trkpt lat="47.644346" lon="7.643096">
        <ele>288.584037</ele>
        <time>2021-11-22T10:47:53.316Z</time>
      </trkpt>
      <trkpt lat="47.644292" lon="7.643071">
        <ele>288.725039</ele>
        <time>2021-11-22T10:47:54.888Z</time>
      </trkpt>
      <trkpt lat="47.644243" lon="7.643049">
        <ele>288.852647</ele>
        <time>2021-11-22T10:47:56.002Z</time>
      </trkpt>
      <trkpt lat="47.643694" lon="7.642768">
        <ele>290.300225</ele>
        <time>2021-11-22T10:48:09.858Z</time>
      </trkpt>
      <trkpt lat="47.643152" lon="7.642469">
        <ele>291.741571</ele>
        <time>2021-11-22T10:48:25.622Z</time>
      </trkpt>
      <trkpt lat="47.643090" lon="7.642413">
        <ele>291.922486</ele>
        <time>2021-11-22T10:48:26.981Z</time>
      </trkpt>
      <trkpt lat="47.643047" lon="7.642364">
        <ele>292.057619</ele>
        <time>2021-11-22T10:48:27.966Z</time>
      </trkpt>
      <trkpt lat="47.643024" lon="7.642332">
        <ele>292.136202</ele>
        <time>2021-11-22T10:48:28.551Z</time>
      </trkpt>
      <trkpt lat="47.642974" lon="7.642240">
        <ele>292.395012</ele>
        <time>2021-11-22T10:48:31.561Z</time>
      </trkpt>
      <trkpt lat="47.642930" lon="7.642142">
        <ele>292.652986</ele>
        <time>2021-11-22T10:48:33.262Z</time>
      </trkpt>
      <trkpt lat="47.642889" lon="7.642165">
        <ele>292.795493</ele>
        <time>2021-11-22T10:48:34.925Z</time>
      </trkpt>
      <trkpt lat="47.642684" lon="7.642290">
        <ele>293.516063</ele>
        <time>2021-11-22T10:48:40.064Z</time>
      </trkpt>
      <trkpt lat="47.642469" lon="7.642576">
        <ele>294.454759</ele>
        <time>2021-11-22T10:48:46.996Z</time>
      </trkpt>
      <trkpt lat="47.642419" lon="7.642621">
        <ele>294.644877</ele>
        <time>2021-11-22T10:48:49.296Z</time>
      </trkpt>
      <trkpt lat="47.642367" lon="7.642646">
        <ele>294.822593</ele>
        <time>2021-11-22T10:48:50.787Z</time>
      </trkpt>
      <trkpt lat="47.642112" lon="7.642521">
        <ele>295.695723</ele>
        <time>2021-11-22T10:48:57.520Z</time>
      </trkpt>
      <trkpt lat="47.642037" lon="7.642436">
        <ele>296.002533</ele>
        <time>2021-11-22T10:49:00.591Z</time>
      </trkpt>
      <trkpt lat="47.641757" lon="7.642123">
        <ele>297.142222</ele>
        <time>2021-11-22T10:49:11.010Z</time>
      </trkpt>
      <trkpt lat="47.641328" lon="7.641666">
        <ele>298.998715</ele>
        <time>2021-11-22T10:49:27.339Z</time>
      </trkpt>
      <trkpt lat="47.641227" lon="7.641558">
        <ele>299.468050</ele>
        <time>2021-11-22T10:49:31.660Z</time>
      </trkpt>
      <trkpt lat="47.640959" lon="7.641408">
        <ele>300.547942</ele>
        <time>2021-11-22T10:49:40.009Z</time>
      </trkpt>
      <trkpt lat="47.640707" lon="7.641489">
        <ele>301.520075</ele>
        <time>2021-11-22T10:49:47.410Z</time>
      </trkpt>
      <trkpt lat="47.640389" lon="7.641696">
        <ele>302.829267</ele>
        <time>2021-11-22T10:49:57.578Z</time>
      </trkpt>
      <trkpt lat="47.640316" lon="7.641724">
        <ele>303.113540</ele>
        <time>2021-11-22T10:50:00.033Z</time>
      </trkpt>
      <trkpt lat="47.639799" lon="7.641577">
        <ele>305.077048</ele>
        <time>2021-11-22T10:50:15.941Z</time>
      </trkpt>
      <trkpt lat="47.639585" lon="7.641581">
        <ele>305.832555</ele>
        <time>2021-11-22T10:50:22.106Z</time>
      </trkpt>
      <trkpt lat="47.639353" lon="7.641633">
        <ele>306.660831</ele>
        <time>2021-11-22T10:50:28.681Z</time>
      </trkpt>
      <trkpt lat="47.639286" lon="7.641648">
        <ele>306.900025</ele>
        <time>2021-11-22T10:50:30.768Z</time>
      </trkpt>
      <trkpt lat="47.639139" lon="7.641664">
        <ele>307.420348</ele>
        <time>2021-11-22T10:50:35.193Z</time>
      </trkpt>
      <trkpt lat="47.638770" lon="7.641671">
        <ele>308.723070</ele>
        <time>2021-11-22T10:50:45.945Z</time>
      </trkpt>
      <trkpt lat="47.638625" lon="7.641659">
        <ele>309.235734</ele>
        <time>2021-11-22T10:50:49.984Z</time>
      </trkpt>
      <trkpt lat="47.638430" lon="7.641657">
        <ele>309.924125</ele>
        <time>2021-11-22T10:50:55.140Z</time>
      </trkpt>
      <trkpt lat="47.638031" lon="7.641651">
        <ele>311.390817</ele>
        <time>2021-11-22T10:51:06.333Z</time>
      </trkpt>
      <trkpt lat="47.637697" lon="7.641641">
        <ele>312.885276</ele>
        <time>2021-11-22T10:51:16.685Z</time>
      </trkpt>
      <trkpt lat="47.637604" lon="7.641636">
        <ele>313.301587</ele>
        <time>2021-11-22T10:51:19.190Z</time>
      </trkpt>
      <trkpt lat="47.637380" lon="7.641622">
        <ele>314.304543</ele>
        <time>2021-11-22T10:51:26.123Z</time>
      </trkpt>
      <trkpt lat="47.636780" lon="7.641540">
        <ele>317.000012</ele>
        <time>2021-11-22T10:51:45.131Z</time>
      </trkpt>
      <trkpt lat="47.636736" lon="7.641538">
        <ele>317.196939</ele>
        <time>2021-11-22T10:51:47.009Z</time>
      </trkpt>
      <trkpt lat="47.636702" lon="7.641537">
        <ele>317.349068</ele>
        <time>2021-11-22T10:51:48.356Z</time>
      </trkpt>
      <trkpt lat="47.636612" lon="7.641539">
        <ele>317.751730</ele>
        <time>2021-11-22T10:51:51.361Z</time>
      </trkpt>
      <trkpt lat="47.636486" lon="7.641554">
        <ele>318.317204</ele>
        <time>2021-11-22T10:51:55.491Z</time>
      </trkpt>
      <trkpt lat="47.636447" lon="7.641560">
        <ele>318.492606</ele>
        <time>2021-11-22T10:51:56.886Z</time>
      </trkpt>
      <trkpt lat="47.636353" lon="7.641582">
        <ele>318.918314</ele>
        <time>2021-11-22T10:52:01.227Z</time>
      </trkpt>
      <trkpt lat="47.636095" lon="7.641795">
        <ele>321.045720</ele>
        <time>2021-11-22T10:52:12.198Z</time>
      </trkpt>
      <trkpt lat="47.635901" lon="7.642199">
        <ele>323.660707</ele>
        <time>2021-11-22T10:52:25.931Z</time>
      </trkpt>
      <trkpt lat="47.635746" lon="7.642633">
        <ele>326.249878</ele>
        <time>2021-11-22T10:52:41.135Z</time>
      </trkpt>
      <trkpt lat="47.635529" lon="7.643332">
        <ele>330.306702</ele>
        <time>2021-11-22T10:53:06.767Z</time>
      </trkpt>
      <trkpt lat="47.635486" lon="7.643475">
        <ele>331.132139</ele>
        <time>2021-11-22T10:53:11.959Z</time>
      </trkpt>
      <trkpt lat="47.635404" lon="7.643756">
        <ele>332.746294</ele>
        <time>2021-11-22T10:53:21.976Z</time>
      </trkpt>
      <trkpt lat="47.635286" lon="7.644142">
        <ele>335.402461</ele>
        <time>2021-11-22T10:53:37.789Z</time>
      </trkpt>
      <trkpt lat="47.635159" lon="7.644531">
        <ele>338.230616</ele>
        <time>2021-11-22T10:53:54.730Z</time>
      </trkpt>
      <trkpt lat="47.635038" lon="7.644836">
        <ele>340.546348</ele>
        <time>2021-11-22T10:54:08.089Z</time>
      </trkpt>
      <trkpt lat="47.634907" lon="7.645120">
        <ele>342.798172</ele>
        <time>2021-11-22T10:54:21.437Z</time>
      </trkpt>
      <trkpt lat="47.634872" lon="7.645179">
        <ele>343.312476</ele>
        <time>2021-11-22T10:54:25.026Z</time>
      </trkpt>
      <trkpt lat="47.634803" lon="7.645293">
        <ele>344.315076</ele>
        <time>2021-11-22T10:54:30.647Z</time>
      </trkpt>
      <trkpt lat="47.634689" lon="7.645449">
        <ele>345.820746</ele>
        <time>2021-11-22T10:54:39.138Z</time>
      </trkpt>
      <trkpt lat="47.634571" lon="7.645594">
        <ele>347.308292</ele>
        <time>2021-11-22T10:54:47.890Z</time>
      </trkpt>
      <trkpt lat="47.634445" lon="7.645723">
        <ele>348.794613</ele>
        <time>2021-11-22T10:54:55.209Z</time>
      </trkpt>
      <trkpt lat="47.634265" lon="7.645884">
        <ele>350.783317</ele>
        <time>2021-11-22T10:55:06.598Z</time>
      </trkpt>
      <trkpt lat="47.633790" lon="7.646154">
        <ele>353.880381</ele>
        <time>2021-11-22T10:55:28.626Z</time>
      </trkpt>
      <trkpt lat="47.633634" lon="7.646201">
        <ele>354.849605</ele>
        <time>2021-11-22T10:55:36.001Z</time>
      </trkpt>
      <trkpt lat="47.633533" lon="7.646222">
        <ele>355.470575</ele>
        <time>2021-11-22T10:55:39.751Z</time>
      </trkpt>
      <trkpt lat="47.632904" lon="7.646267">
        <ele>359.304848</ele>
        <time>2021-11-22T10:56:03.884Z</time>
      </trkpt>
      <trkpt lat="47.632762" lon="7.646273">
        <ele>360.169801</ele>
        <time>2021-11-22T10:56:07.853Z</time>
      </trkpt>
      <trkpt lat="47.632409" lon="7.646287">
        <ele>361.839107</ele>
        <time>2021-11-22T10:56:18.142Z</time>
      </trkpt>
      <trkpt lat="47.631993" lon="7.646291">
        <ele>362.561038</ele>
        <time>2021-11-22T10:56:30.580Z</time>
      </trkpt>
      <trkpt lat="47.631664" lon="7.646297">
        <ele>363.132019</ele>
        <time>2021-11-22T10:56:38.358Z</time>
      </trkpt>
      <trkpt lat="47.631398" lon="7.646307">
        <ele>363.593777</ele>
        <time>2021-11-22T10:56:43.747Z</time>
      </trkpt>
      <trkpt lat="47.631177" lon="7.646313">
        <ele>363.977359</ele>
        <time>2021-11-22T10:56:48.072Z</time>
      </trkpt>
      <trkpt lat="47.631049" lon="7.646310">
        <ele>364.199514</ele>
        <time>2021-11-22T10:56:49.599Z</time>
      </trkpt>
      <trkpt lat="47.630880" lon="7.646303">
        <ele>364.492907</ele>
        <time>2021-11-22T10:56:52.782Z</time>
      </trkpt>
      <trkpt lat="47.630703" lon="7.646282">
        <ele>364.713360</ele>
        <time>2021-11-22T10:56:54.848Z</time>
      </trkpt>
      <trkpt lat="47.630528" lon="7.646250">
        <ele>364.188095</ele>
        <time>2021-11-22T10:56:57.758Z</time>
      </trkpt>
      <trkpt lat="47.630428" lon="7.646225">
        <ele>363.885998</ele>
        <time>2021-11-22T10:56:58.941Z</time>
      </trkpt>
      <trkpt lat="47.630417" lon="7.646442">
        <ele>363.449126</ele>
        <time>2021-11-22T10:57:00.577Z</time>
      </trkpt>
      <trkpt lat="47.630445" lon="7.646622">
        <ele>363.078262</ele>
        <time>2021-11-22T10:57:02.355Z</time>
      </trkpt>
      <trkpt lat="47.630503" lon="7.646791">
        <ele>362.697522</ele>
        <time>2021-11-22T10:57:03.646Z</time>
      </trkpt>
      <trkpt lat="47.630545" lon="7.646906">
        <ele>362.434928</ele>
        <time>2021-11-22T10:57:04.584Z</time>
      </trkpt>
      <trkpt lat="47.630607" lon="7.647020">
        <ele>362.140835</ele>
        <time>2021-11-22T10:57:05.812Z</time>
      </trkpt>
      <trkpt lat="47.630735" lon="7.647206">
        <ele>361.607142</ele>
        <time>2021-11-22T10:57:07.569Z</time>
      </trkpt>
      <trkpt lat="47.631190" lon="7.647902">
        <ele>359.660472</ele>
        <time>2021-11-22T10:57:13.873Z</time>
      </trkpt>
      <trkpt lat="47.631331" lon="7.648295">
        <ele>358.055091</ele>
        <time>2021-11-22T10:57:16.614Z</time>
      </trkpt>
      <trkpt lat="47.631413" lon="7.648855">
        <ele>355.633430</ele>
        <time>2021-11-22T10:57:20.102Z</time>
      </trkpt>
      <trkpt lat="47.631376" lon="7.649468">
        <ele>353.032654</ele>
        <time>2021-11-22T10:57:23.878Z</time>
      </trkpt>
      <trkpt lat="47.631080" lon="7.651009">
        <ele>346.132923</ele>
        <time>2021-11-22T10:57:33.688Z</time>
      </trkpt>
      <trkpt lat="47.631072" lon="7.651086">
        <ele>345.781090</ele>
        <time>2021-11-22T10:57:34.144Z</time>
      </trkpt>
      <trkpt lat="47.631019" lon="7.651639">
        <ele>343.258666</ele>
        <time>2021-11-22T10:57:37.552Z</time>
      </trkpt>
      <trkpt lat="47.631052" lon="7.653677">
        <ele>334.202880</ele>
        <time>2021-11-22T10:57:49.937Z</time>
      </trkpt>
      <trkpt lat="47.631136" lon="7.654682">
        <ele>329.968796</ele>
        <time>2021-11-22T10:57:56.148Z</time>
      </trkpt>
      <trkpt lat="47.631162" lon="7.654906">
        <ele>329.018466</ele>
        <time>2021-11-22T10:57:57.502Z</time>
      </trkpt>
      <trkpt lat="47.631218" lon="7.655257">
        <ele>327.510377</ele>
        <time>2021-11-22T10:57:59.728Z</time>
      </trkpt>
      <trkpt lat="47.631545" lon="7.656681">
        <ele>323.836403</ele>
        <time>2021-11-22T10:58:09.276Z</time>
      </trkpt>
      <trkpt lat="47.631603" lon="7.656843">
        <ele>323.611759</ele>
        <time>2021-11-22T10:58:10.434Z</time>
      </trkpt>
      <trkpt lat="47.631687" lon="7.657081">
        <ele>323.282752</ele>
        <time>2021-11-22T10:58:12.339Z</time>
      </trkpt>
      <trkpt lat="47.631864" lon="7.657555">
        <ele>322.619138</ele>
        <time>2021-11-22T10:58:18.069Z</time>
      </trkpt>
      <trkpt lat="47.631939" lon="7.657755">
        <ele>322.338853</ele>
        <time>2021-11-22T10:58:19.914Z</time>
      </trkpt>
      <trkpt lat="47.631892" lon="7.657928">
        <ele>322.110431</ele>
        <time>2021-11-22T10:58:24.529Z</time>
      </trkpt>
      <trkpt lat="47.631796" lon="7.658008">
        <ele>321.910355</ele>
        <time>2021-11-22T10:58:27.541Z</time>
      </trkpt>
      <trkpt lat="47.631743" lon="7.658014">
        <ele>321.813764</ele>
        <time>2021-11-22T10:58:28.029Z</time>
      </trkpt>
      <trkpt lat="47.631793" lon="7.658153">
        <ele>321.671688</ele>
        <time>2021-11-22T10:58:31.221Z</time>
      </trkpt>
      <trkpt lat="47.632213" lon="7.658823">
        <ele>322.409499</ele>
        <time>2021-11-22T10:58:47.647Z</time>
      </trkpt>
      <trkpt lat="47.632282" lon="7.658972">
        <ele>322.555269</ele>
        <time>2021-11-22T10:58:51.853Z</time>
      </trkpt>
      <trkpt lat="47.632415" lon="7.658956">
        <ele>322.714923</ele>
        <time>2021-11-22T10:58:57.108Z</time>
      </trkpt>
      <trkpt lat="47.632609" lon="7.658884">
        <ele>322.954190</ele>
        <time>2021-11-22T10:59:00.506Z</time>
      </trkpt>
      <trkpt lat="47.632754" lon="7.658757">
        <ele>323.155645</ele>
        <time>2021-11-22T10:59:06.670Z</time>
      </trkpt>
      <trkpt lat="47.632778" lon="7.658849">
        <ele>323.235187</ele>
        <time>2021-11-22T10:59:07.270Z</time>
      </trkpt>
      <trkpt lat="47.632968" lon="7.659257">
        <ele>323.635058</ele>
        <time>2021-11-22T10:59:14.319Z</time>
      </trkpt>
      <trkpt lat="47.633034" lon="7.659462">
        <ele>323.774020</ele>
        <time>2021-11-22T10:59:16.127Z</time>
      </trkpt>
      <trkpt lat="47.633057" lon="7.659589">
        <ele>323.561232</ele>
        <time>2021-11-22T10:59:18.915Z</time>
      </trkpt>
      <trkpt lat="47.633083" lon="7.659755">
        <ele>323.285471</ele>
        <time>2021-11-22T10:59:20.305Z</time>
      </trkpt>
      <trkpt lat="47.633149" lon="7.660044">
        <ele>322.791724</ele>
        <time>2021-11-22T10:59:22.926Z</time>
      </trkpt>
      <trkpt lat="47.633256" lon="7.661077">
        <ele>321.100623</ele>
        <time>2021-11-22T10:59:30.288Z</time>
      </trkpt>
      <trkpt lat="47.633499" lon="7.662099">
        <ele>319.287502</ele>
        <time>2021-11-22T10:59:37.333Z</time>
      </trkpt>
      <trkpt lat="47.633543" lon="7.662587">
        <ele>318.146363</ele>
        <time>2021-11-22T10:59:40.750Z</time>
      </trkpt>
      <trkpt lat="47.633580" lon="7.664919">
        <ele>312.706437</ele>
        <time>2021-11-22T10:59:56.662Z</time>
      </trkpt>
      <trkpt lat="47.633569" lon="7.665587">
        <ele>311.064959</ele>
        <time>2021-11-22T11:00:00.935Z</time>
      </trkpt>
      <trkpt lat="47.633518" lon="7.665796">
        <ele>310.518910</ele>
        <time>2021-11-22T11:00:02.494Z</time>
      </trkpt>
      <trkpt lat="47.633456" lon="7.665956">
        <ele>310.065507</ele>
        <time>2021-11-22T11:00:03.658Z</time>
      </trkpt>
      <trkpt lat="47.633416" lon="7.665944">
        <ele>309.916739</ele>
        <time>2021-11-22T11:00:04.188Z</time>
      </trkpt>
      <trkpt lat="47.633400" lon="7.665942">
        <ele>309.858205</ele>
        <time>2021-11-22T11:00:04.408Z</time>
      </trkpt>
      <trkpt lat="47.633183" lon="7.665910">
        <ele>309.063242</ele>
        <time>2021-11-22T11:00:07.591Z</time>
      </trkpt>
      <trkpt lat="47.632814" lon="7.666027">
        <ele>307.687701</ele>
        <time>2021-11-22T11:00:13.028Z</time>
      </trkpt>
      <trkpt lat="47.632665" lon="7.666077">
        <ele>307.130812</ele>
        <time>2021-11-22T11:00:15.126Z</time>
      </trkpt>
      <trkpt lat="47.632660" lon="7.666190">
        <ele>306.852617</ele>
        <time>2021-11-22T11:00:16.434Z</time>
      </trkpt>
      <trkpt lat="47.632714" lon="7.666382">
        <ele>306.514520</ele>
        <time>2021-11-22T11:00:18.747Z</time>
      </trkpt>
      <trkpt lat="47.632873" lon="7.666620">
        <ele>306.047342</ele>
        <time>2021-11-22T11:00:22.027Z</time>
      </trkpt>
      <trkpt lat="47.633023" lon="7.666800">
        <ele>305.648290</ele>
        <time>2021-11-22T11:00:24.955Z</time>
      </trkpt>
      <trkpt lat="47.633172" lon="7.666983">
        <ele>305.248192</ele>
        <time>2021-11-22T11:00:27.847Z</time>
      </trkpt>
      <trkpt lat="47.633223" lon="7.667099">
        <ele>305.055117</ele>
        <time>2021-11-22T11:00:29.412Z</time>
      </trkpt>
      <trkpt lat="47.633224" lon="7.667186">
        <ele>304.933822</ele>
        <time>2021-11-22T11:00:30.290Z</time>
      </trkpt>
      <trkpt lat="47.633452" lon="7.667196">
        <ele>304.461970</ele>
        <time>2021-11-22T11:00:32.752Z</time>
      </trkpt>
      <trkpt lat="47.633639" lon="7.667236">
        <ele>304.071140</ele>
        <time>2021-11-22T11:00:34.788Z</time>
      </trkpt>
      <trkpt lat="47.633741" lon="7.667324">
        <ele>303.827073</ele>
        <time>2021-11-22T11:00:36.116Z</time>
      </trkpt>
      <trkpt lat="47.633883" lon="7.667489">
        <ele>303.453994</ele>
        <time>2021-11-22T11:00:38.436Z</time>
      </trkpt>
      <trkpt lat="47.633954" lon="7.667571">
        <ele>303.267883</ele>
        <time>2021-11-22T11:00:39.485Z</time>
      </trkpt>
      <trkpt lat="47.634116" lon="7.667864">
        <ele>302.835294</ele>
        <time>2021-11-22T11:00:42.759Z</time>
      </trkpt>
      <trkpt lat="47.634226" lon="7.668142">
        <ele>302.538889</ele>
        <time>2021-11-22T11:00:45.433Z</time>
      </trkpt>
      <trkpt lat="47.634240" lon="7.668207">
        <ele>302.476149</ele>
        <time>2021-11-22T11:00:45.975Z</time>
      </trkpt>
      <trkpt lat="47.634300" lon="7.668502">
        <ele>302.192835</ele>
        <time>2021-11-22T11:00:48.485Z</time>
      </trkpt>
      <trkpt lat="47.634401" lon="7.669133">
        <ele>301.596542</ele>
        <time>2021-11-22T11:00:53.653Z</time>
      </trkpt>
      <trkpt lat="47.634441" lon="7.669401">
        <ele>301.344167</ele>
        <time>2021-11-22T11:00:55.879Z</time>
      </trkpt>
      <trkpt lat="47.634627" lon="7.670463">
        <ele>300.463281</ele>
        <time>2021-11-22T11:01:03.978Z</time>
      </trkpt>
      <trkpt lat="47.634796" lon="7.671049">
        <ele>300.201360</ele>
        <time>2021-11-22T11:01:09.186Z</time>
      </trkpt>
      <trkpt lat="47.634883" lon="7.671522">
        <ele>299.999887</ele>
        <time>2021-11-22T11:01:13.627Z</time>
      </trkpt>
      <trkpt lat="47.634938" lon="7.671873">
        <ele>299.851809</ele>
        <time>2021-11-22T11:01:17.203Z</time>
      </trkpt>
      <trkpt lat="47.635139" lon="7.672456">
        <ele>299.582713</ele>
        <time>2021-11-22T11:01:23.449Z</time>
      </trkpt>
      <trkpt lat="47.635163" lon="7.672505">
        <ele>299.557822</ele>
        <time>2021-11-22T11:01:24.049Z</time>
      </trkpt>
      <trkpt lat="47.635256" lon="7.672698">
        <ele>299.473300</ele>
        <time>2021-11-22T11:01:26.629Z</time>
      </trkpt>
      <trkpt lat="47.635273" lon="7.672734">
        <ele>299.479741</ele>
        <time>2021-11-22T11:01:27.077Z</time>
      </trkpt>
      <trkpt lat="47.635387" lon="7.672979">
        <ele>299.523366</ele>
        <time>2021-11-22T11:01:29.918Z</time>
      </trkpt>
      <trkpt lat="47.635475" lon="7.673250">
        <ele>299.567444</ele>
        <time>2021-11-22T11:01:33.124Z</time>
      </trkpt>
      <trkpt lat="47.635491" lon="7.673324">
        <ele>299.578831</ele>
        <time>2021-11-22T11:01:33.824Z</time>
      </trkpt>
      <trkpt lat="47.635535" lon="7.673501">
        <ele>299.606474</ele>
        <time>2021-11-22T11:01:35.842Z</time>
      </trkpt>
      <trkpt lat="47.635594" lon="7.673886">
        <ele>299.664326</ele>
        <time>2021-11-22T11:01:40.001Z</time>
      </trkpt>
      <trkpt lat="47.635626" lon="7.674224">
        <ele>299.714337</ele>
        <time>2021-11-22T11:01:43.892Z</time>
      </trkpt>
      <trkpt lat="47.635682" lon="7.674470">
        <ele>299.752383</ele>
        <time>2021-11-22T11:01:46.576Z</time>
      </trkpt>
      <trkpt lat="47.635792" lon="7.674789">
        <ele>299.804888</ele>
        <time>2021-11-22T11:01:50.508Z</time>
      </trkpt>
      <trkpt lat="47.636128" lon="7.675692">
        <ele>300.152838</ele>
        <time>2021-11-22T11:02:01.524Z</time>
      </trkpt>
      <trkpt lat="47.636199" lon="7.675898">
        <ele>300.256949</ele>
        <time>2021-11-22T11:02:03.826Z</time>
      </trkpt>
      <trkpt lat="47.636278" lon="7.676133">
        <ele>300.375114</ele>
        <time>2021-11-22T11:02:06.893Z</time>
      </trkpt>
      <trkpt lat="47.636308" lon="7.676290">
        <ele>300.448541</ele>
        <time>2021-11-22T11:02:08.733Z</time>
      </trkpt>
      <trkpt lat="47.636311" lon="7.676340">
        <ele>300.471128</ele>
        <time>2021-11-22T11:02:09.271Z</time>
      </trkpt>
      <trkpt lat="47.636324" lon="7.676428">
        <ele>300.511663</ele>
        <time>2021-11-22T11:02:10.304Z</time>
      </trkpt>
      <trkpt lat="47.636379" lon="7.676790">
        <ele>300.678633</ele>
        <time>2021-11-22T11:02:15.089Z</time>
      </trkpt>
      <trkpt lat="47.636415" lon="7.676977">
        <ele>300.766140</ele>
        <time>2021-11-22T11:02:17.396Z</time>
      </trkpt>
      <trkpt lat="47.636457" lon="7.677161">
        <ele>300.853551</ele>
        <time>2021-11-22T11:02:19.891Z</time>
      </trkpt>
      <trkpt lat="47.636749" lon="7.678128">
        <ele>301.526160</ele>
        <time>2021-11-22T11:02:33.882Z</time>
      </trkpt>
      <trkpt lat="47.636832" lon="7.678413">
        <ele>301.767812</ele>
        <time>2021-11-22T11:02:37.959Z</time>
      </trkpt>
      <trkpt lat="47.636923" lon="7.678721">
        <ele>302.029565</ele>
        <time>2021-11-22T11:02:42.445Z</time>
      </trkpt>
      <trkpt lat="47.637023" lon="7.679013">
        <ele>302.284501</ele>
        <time>2021-11-22T11:02:46.670Z</time>
      </trkpt>
      <trkpt lat="47.637259" lon="7.679526">
        <ele>302.767955</ele>
        <time>2021-11-22T11:02:54.967Z</time>
      </trkpt>
      <trkpt lat="47.637355" lon="7.679755">
        <ele>302.977867</ele>
        <time>2021-11-22T11:02:58.657Z</time>
      </trkpt>
      <trkpt lat="47.637516" lon="7.680250">
        <ele>303.295951</ele>
        <time>2021-11-22T11:03:05.873Z</time>
      </trkpt>
      <trkpt lat="47.637693" lon="7.681059">
        <ele>303.685004</ele>
        <time>2021-11-22T11:03:16.258Z</time>
      </trkpt>
      <trkpt lat="47.637735" lon="7.681275">
        <ele>303.787834</ele>
        <time>2021-11-22T11:03:19.131Z</time>
      </trkpt>
      <trkpt lat="47.637803" lon="7.681627">
        <ele>303.955324</ele>
        <time>2021-11-22T11:03:23.253Z</time>
      </trkpt>
      <trkpt lat="47.637862" lon="7.681907">
        <ele>304.089511</ele>
        <time>2021-11-22T11:03:26.521Z</time>
      </trkpt>
      <trkpt lat="47.637949" lon="7.682314">
        <ele>304.284814</ele>
        <time>2021-11-22T11:03:31.094Z</time>
      </trkpt>
      <trkpt lat="47.638372" lon="7.683486">
        <ele>304.249798</ele>
        <time>2021-11-22T11:03:44.685Z</time>
      </trkpt>
      <trkpt lat="47.638653" lon="7.684040">
        <ele>304.183837</ele>
        <time>2021-11-22T11:03:51.095Z</time>
      </trkpt>
      <trkpt lat="47.638822" lon="7.684303">
        <ele>304.149267</ele>
        <time>2021-11-22T11:03:54.611Z</time>
      </trkpt>
      <trkpt lat="47.638795" lon="7.684369">
        <ele>304.141922</ele>
        <time>2021-11-22T11:03:55.252Z</time>
      </trkpt>
      <trkpt lat="47.638791" lon="7.684447">
        <ele>304.134481</ele>
        <time>2021-11-22T11:03:55.918Z</time>
      </trkpt>
      <trkpt lat="47.638813" lon="7.684519">
        <ele>304.126961</ele>
        <time>2021-11-22T11:03:56.570Z</time>
      </trkpt>
      <trkpt lat="47.638848" lon="7.684561">
        <ele>304.120607</ele>
        <time>2021-11-22T11:03:57.304Z</time>
      </trkpt>
      <trkpt lat="47.638937" lon="7.684569">
        <ele>304.108019</ele>
        <time>2021-11-22T11:03:58.486Z</time>
      </trkpt>
      <trkpt lat="47.638975" lon="7.684532">
        <ele>304.100904</ele>
        <time>2021-11-22T11:03:59.292Z</time>
      </trkpt>
      <trkpt lat="47.639195" lon="7.684892">
        <ele>304.048203</ele>
        <time>2021-11-22T11:04:03.613Z</time>
      </trkpt>
      <trkpt lat="47.639233" lon="7.684970">
        <ele>304.037766</ele>
        <time>2021-11-22T11:04:04.606Z</time>
      </trkpt>
      <trkpt lat="47.639365" lon="7.685244">
        <ele>304.001241</ele>
        <time>2021-11-22T11:04:07.534Z</time>
      </trkpt>
      <trkpt lat="47.639535" lon="7.685723">
        <ele>303.942536</ele>
        <time>2021-11-22T11:04:12.446Z</time>
      </trkpt>
      <trkpt lat="47.639603" lon="7.685917">
        <ele>303.918824</ele>
        <time>2021-11-22T11:04:14.556Z</time>
      </trkpt>
      <trkpt lat="47.640138" lon="7.687577">
        <ele>304.375636</ele>
        <time>2021-11-22T11:04:33.756Z</time>
      </trkpt>
      <trkpt lat="47.640307" lon="7.687981">
        <ele>304.669930</ele>
        <time>2021-11-22T11:04:39.603Z</time>
      </trkpt>
      <trkpt lat="47.640498" lon="7.688336">
        <ele>304.951081</ele>
        <time>2021-11-22T11:04:45.376Z</time>
      </trkpt>
      <trkpt lat="47.640572" lon="7.688417">
        <ele>305.035537</ele>
        <time>2021-11-22T11:04:47.683Z</time>
      </trkpt>
      <trkpt lat="47.641094" lon="7.688925">
        <ele>305.753128</ele>
        <time>2021-11-22T11:05:00.641Z</time>
      </trkpt>
      <trkpt lat="47.641908" lon="7.690348">
        <ele>308.101493</ele>
        <time>2021-11-22T11:05:30.261Z</time>
      </trkpt>
      <trkpt lat="47.642386" lon="7.691121">
        <ele>308.996059</ele>
        <time>2021-11-22T11:05:45.107Z</time>
      </trkpt>
      <trkpt lat="47.642473" lon="7.691337">
        <ele>309.085871</ele>
        <time>2021-11-22T11:05:48.430Z</time>
      </trkpt>
      <trkpt lat="47.642598" lon="7.691781">
        <ele>309.257605</ele>
        <time>2021-11-22T11:05:54.786Z</time>
      </trkpt>
      <trkpt lat="47.642688" lon="7.692211">
        <ele>309.418299</ele>
        <time>2021-11-22T11:05:59.717Z</time>
      </trkpt>
      <trkpt lat="47.642769" lon="7.692680">
        <ele>309.591089</ele>
        <time>2021-11-22T11:06:04.791Z</time>
      </trkpt>
      <trkpt lat="47.642813" lon="7.693423">
        <ele>309.651201</ele>
        <time>2021-11-22T11:06:11.217Z</time>
      </trkpt>
      <trkpt lat="47.642838" lon="7.693571">
        <ele>309.559821</ele>
        <time>2021-11-22T11:06:12.442Z</time>
      </trkpt>
      <trkpt lat="47.642878" lon="7.693814">
        <ele>309.410008</ele>
        <time>2021-11-22T11:06:14.449Z</time>
      </trkpt>
      <trkpt lat="47.642923" lon="7.693980">
        <ele>309.302846</ele>
        <time>2021-11-22T11:06:16.017Z</time>
      </trkpt>
      <trkpt lat="47.642795" lon="7.694159">
        <ele>309.146519</ele>
        <time>2021-11-22T11:06:18.022Z</time>
      </trkpt>
      <trkpt lat="47.642769" lon="7.694178">
        <ele>309.120758</ele>
        <time>2021-11-22T11:06:18.368Z</time>
      </trkpt>
      <trkpt lat="47.642408" lon="7.694445">
        <ele>308.762230</ele>
        <time>2021-11-22T11:06:23.367Z</time>
      </trkpt>
      <trkpt lat="47.642142" lon="7.694611">
        <ele>308.505731</ele>
        <time>2021-11-22T11:06:26.825Z</time>
      </trkpt>
      <trkpt lat="47.642058" lon="7.694662">
        <ele>308.425058</ele>
        <time>2021-11-22T11:06:28.051Z</time>
      </trkpt>
      <trkpt lat="47.642005" lon="7.694694">
        <ele>308.374197</ele>
        <time>2021-11-22T11:06:28.776Z</time>
      </trkpt>
      <trkpt lat="47.641927" lon="7.694746">
        <ele>308.298190</ele>
        <time>2021-11-22T11:06:29.821Z</time>
      </trkpt>
      <trkpt lat="47.641527" lon="7.694989">
        <ele>308.142704</ele>
        <time>2021-11-22T11:06:35.102Z</time>
      </trkpt>
      <trkpt lat="47.641385" lon="7.695039">
        <ele>308.123884</ele>
        <time>2021-11-22T11:06:37.004Z</time>
      </trkpt>
      <trkpt lat="47.641256" lon="7.695065">
        <ele>308.107096</ele>
        <time>2021-11-22T11:06:38.731Z</time>
      </trkpt>
      <trkpt lat="47.640982" lon="7.695057">
        <ele>308.071756</ele>
        <time>2021-11-22T11:06:42.656Z</time>
      </trkpt>
      <trkpt lat="47.640444" lon="7.695011">
        <ele>308.002264</ele>
        <time>2021-11-22T11:06:51.035Z</time>
      </trkpt>
      <trkpt lat="47.640267" lon="7.695017">
        <ele>307.979433</ele>
        <time>2021-11-22T11:06:54.139Z</time>
      </trkpt>
      <trkpt lat="47.639986" lon="7.695026">
        <ele>307.966976</ele>
        <time>2021-11-22T11:06:58.791Z</time>
      </trkpt>
      <trkpt lat="47.639972" lon="7.695026">
        <ele>307.971900</ele>
        <time>2021-11-22T11:06:59.081Z</time>
      </trkpt>
      <trkpt lat="47.639897" lon="7.695031">
        <ele>307.998304</ele>
        <time>2021-11-22T11:07:00.320Z</time>
      </trkpt>
      <trkpt lat="47.639833" lon="7.695037">
        <ele>308.020858</ele>
        <time>2021-11-22T11:07:01.348Z</time>
      </trkpt>
      <trkpt lat="47.639796" lon="7.695040">
        <ele>308.033890</ele>
        <time>2021-11-22T11:07:01.933Z</time>
      </trkpt>
      <trkpt lat="47.639745" lon="7.695043">
        <ele>308.051841</ele>
        <time>2021-11-22T11:07:02.757Z</time>
      </trkpt>
      <trkpt lat="47.639478" lon="7.695062">
        <ele>308.145852</ele>
        <time>2021-11-22T11:07:07.129Z</time>
      </trkpt>
      <trkpt lat="47.639240" lon="7.695052">
        <ele>308.229591</ele>
        <time>2021-11-22T11:07:10.919Z</time>
      </trkpt>
      <trkpt lat="47.639193" lon="7.695045">
        <ele>308.246203</ele>
        <time>2021-11-22T11:07:11.670Z</time>
      </trkpt>
      <trkpt lat="47.639024" lon="7.695016">
        <ele>308.306037</ele>
        <time>2021-11-22T11:07:14.276Z</time>
      </trkpt>
      <trkpt lat="47.638778" lon="7.694959">
        <ele>308.393603</ele>
        <time>2021-11-22T11:07:18.208Z</time>
      </trkpt>
      <trkpt lat="47.638565" lon="7.694903">
        <ele>308.469681</ele>
        <time>2021-11-22T11:07:21.479Z</time>
      </trkpt>
      <trkpt lat="47.638359" lon="7.694849">
        <ele>308.543253</ele>
        <time>2021-11-22T11:07:25.020Z</time>
      </trkpt>
      <trkpt lat="47.638336" lon="7.694843">
        <ele>308.551466</ele>
        <time>2021-11-22T11:07:25.390Z</time>
      </trkpt>
      <trkpt lat="47.638108" lon="7.694783">
        <ele>308.712278</ele>
        <time>2021-11-22T11:07:29.289Z</time>
      </trkpt>
      <trkpt lat="47.637884" lon="7.694724">
        <ele>308.917426</ele>
        <time>2021-11-22T11:07:33.119Z</time>
      </trkpt>
      <trkpt lat="47.637761" lon="7.694689">
        <ele>309.030361</ele>
        <time>2021-11-22T11:07:35.429Z</time>
      </trkpt>
      <trkpt lat="47.637648" lon="7.694652">
        <ele>309.134710</ele>
        <time>2021-11-22T11:07:37.506Z</time>
      </trkpt>
      <trkpt lat="47.637504" lon="7.694589">
        <ele>309.270086</ele>
        <time>2021-11-22T11:07:40.153Z</time>
      </trkpt>
      <trkpt lat="47.637408" lon="7.694555">
        <ele>309.359085</ele>
        <time>2021-11-22T11:07:41.995Z</time>
      </trkpt>
      <trkpt lat="47.637356" lon="7.694533">
        <ele>309.407844</ele>
        <time>2021-11-22T11:07:42.994Z</time>
      </trkpt>
      <trkpt lat="47.637176" lon="7.694468">
        <ele>309.574894</ele>
        <time>2021-11-22T11:07:46.277Z</time>
      </trkpt>
      <trkpt lat="47.636627" lon="7.694220">
        <ele>310.092380</ele>
        <time>2021-11-22T11:07:57.536Z</time>
      </trkpt>
      <trkpt lat="47.636107" lon="7.693985">
        <ele>310.542109</ele>
        <time>2021-11-22T11:08:08.789Z</time>
      </trkpt>
      <trkpt lat="47.635549" lon="7.693752">
        <ele>311.008970</ele>
        <time>2021-11-22T11:08:19.780Z</time>
      </trkpt>
      <trkpt lat="47.635429" lon="7.693811">
        <ele>311.110784</ele>
        <time>2021-11-22T11:08:22.404Z</time>
      </trkpt>
      <trkpt lat="47.635319" lon="7.693560">
        <ele>311.273280</ele>
        <time>2021-11-22T11:08:25.486Z</time>
      </trkpt>
      <trkpt lat="47.635263" lon="7.693458">
        <ele>311.344684</ele>
        <time>2021-11-22T11:08:27.033Z</time>
      </trkpt>
      <trkpt lat="47.635194" lon="7.693332">
        <ele>311.432799</ele>
        <time>2021-11-22T11:08:28.979Z</time>
      </trkpt>
      <trkpt lat="47.635074" lon="7.693170">
        <ele>311.563454</ele>
        <time>2021-11-22T11:08:31.216Z</time>
      </trkpt>
      <trkpt lat="47.634913" lon="7.692997">
        <ele>311.702082</ele>
        <time>2021-11-22T11:08:34.396Z</time>
      </trkpt>
      <trkpt lat="47.634764" lon="7.692840">
        <ele>311.804673</ele>
        <time>2021-11-22T11:08:36.866Z</time>
      </trkpt>
      <trkpt lat="47.634614" lon="7.692696">
        <ele>311.904968</ele>
        <time>2021-11-22T11:08:39.736Z</time>
      </trkpt>
      <trkpt lat="47.634464" lon="7.692573">
        <ele>312.001180</ele>
        <time>2021-11-22T11:08:42.048Z</time>
      </trkpt>
      <trkpt lat="47.634405" lon="7.692546">
        <ele>312.035842</ele>
        <time>2021-11-22T11:08:43.148Z</time>
      </trkpt>
      <trkpt lat="47.634345" lon="7.692519">
        <ele>312.071041</ele>
        <time>2021-11-22T11:08:44.292Z</time>
      </trkpt>
      <trkpt lat="47.634216" lon="7.692469">
        <ele>312.145892</ele>
        <time>2021-11-22T11:08:46.128Z</time>
      </trkpt>
      <trkpt lat="47.633633" lon="7.692190">
        <ele>312.489790</ele>
        <time>2021-11-22T11:08:56.417Z</time>
      </trkpt>
      <trkpt lat="47.633588" lon="7.692141">
        <ele>312.521124</ele>
        <time>2021-11-22T11:08:57.243Z</time>
      </trkpt>
      <trkpt lat="47.633399" lon="7.692413">
        <ele>312.705314</ele>
        <time>2021-11-22T11:09:03.167Z</time>
      </trkpt>
      <trkpt lat="47.633266" lon="7.692577">
        <ele>313.348450</ele>
        <time>2021-11-22T11:09:06.536Z</time>
      </trkpt>
      <trkpt lat="47.633202" lon="7.692660">
        <ele>313.664567</ele>
        <time>2021-11-22T11:09:08.719Z</time>
      </trkpt>
      <trkpt lat="47.633173" lon="7.692695">
        <ele>313.803591</ele>
        <time>2021-11-22T11:09:09.803Z</time>
      </trkpt>
      <trkpt lat="47.633091" lon="7.692798">
        <ele>314.203151</ele>
        <time>2021-11-22T11:09:11.913Z</time>
      </trkpt>
      <trkpt lat="47.632822" lon="7.693157">
        <ele>315.548693</ele>
        <time>2021-11-22T11:09:20.996Z</time>
      </trkpt>
      <trkpt lat="47.632763" lon="7.693227">
        <ele>315.829637</ele>
        <time>2021-11-22T11:09:22.878Z</time>
      </trkpt>
      <trkpt lat="47.632642" lon="7.693416">
        <ele>316.483014</ele>
        <time>2021-11-22T11:09:28.798Z</time>
      </trkpt>
      <trkpt lat="47.632526" lon="7.693622">
        <ele>317.155837</ele>
        <time>2021-11-22T11:09:35.131Z</time>
      </trkpt>
      <trkpt lat="47.632440" lon="7.693874">
        <ele>317.863797</ele>
        <time>2021-11-22T11:09:42.947Z</time>
      </trkpt>
      <trkpt lat="47.632297" lon="7.694443">
        <ele>319.384020</ele>
        <time>2021-11-22T11:09:57.971Z</time>
      </trkpt>
      <trkpt lat="47.632229" lon="7.694703">
        <ele>320.045624</ele>
        <time>2021-11-22T11:10:04.563Z</time>
      </trkpt>
      <trkpt lat="47.632164" lon="7.694950">
        <ele>320.674661</ele>
        <time>2021-11-22T11:10:10.939Z</time>
      </trkpt>
      <trkpt lat="47.632096" lon="7.695178">
        <ele>321.266136</ele>
        <time>2021-11-22T11:10:16.661Z</time>
      </trkpt>
      <trkpt lat="47.632076" lon="7.695243">
        <ele>321.435645</ele>
        <time>2021-11-22T11:10:18.260Z</time>
      </trkpt>
      <trkpt lat="47.631985" lon="7.695469">
        <ele>322.060186</ele>
        <time>2021-11-22T11:10:23.118Z</time>
      </trkpt>
      <trkpt lat="47.631973" lon="7.695502">
        <ele>322.149141</ele>
        <time>2021-11-22T11:10:25.297Z</time>
      </trkpt>
      <trkpt lat="47.631911" lon="7.695669">
        <ele>322.601449</ele>
        <time>2021-11-22T11:10:27.964Z</time>
      </trkpt>
      <trkpt lat="47.631816" lon="7.695863">
        <ele>323.170341</ele>
        <time>2021-11-22T11:10:32.410Z</time>
      </trkpt>
      <trkpt lat="47.631501" lon="7.695775">
        <ele>324.298695</ele>
        <time>2021-11-22T11:10:42.140Z</time>
      </trkpt>
      <trkpt lat="47.630920" lon="7.695687">
        <ele>325.714185</ele>
        <time>2021-11-22T11:10:59.349Z</time>
      </trkpt>
      <trkpt lat="47.630798" lon="7.695688">
        <ele>325.733758</ele>
        <time>2021-11-22T11:11:02.443Z</time>
      </trkpt>
      <trkpt lat="47.630492" lon="7.695689">
        <ele>325.782848</ele>
        <time>2021-11-22T11:11:10.109Z</time>
      </trkpt>
      <trkpt lat="47.629730" lon="7.695969">
        <ele>325.908783</ele>
        <time>2021-11-22T11:11:23.586Z</time>
      </trkpt>
      <trkpt lat="47.629568" lon="7.696115">
        <ele>325.939190</ele>
        <time>2021-11-22T11:11:27.121Z</time>
      </trkpt>
      <trkpt lat="47.629210" lon="7.696607">
        <ele>326.154688</ele>
        <time>2021-11-22T11:11:36.283Z</time>
      </trkpt>
      <trkpt lat="47.628516" lon="7.697169">
        <ele>326.665581</ele>
        <time>2021-11-22T11:11:53.877Z</time>
      </trkpt>
      <trkpt lat="47.628021" lon="7.697269">
        <ele>326.988396</ele>
        <time>2021-11-22T11:12:05.918Z</time>
      </trkpt>
      <trkpt lat="47.627884" lon="7.697343">
        <ele>327.082607</ele>
        <time>2021-11-22T11:12:08.899Z</time>
      </trkpt>
      <trkpt lat="47.627231" lon="7.697773">
        <ele>328.729598</ele>
        <time>2021-11-22T11:12:25.145Z</time>
      </trkpt>
      <trkpt lat="47.626452" lon="7.698602">
        <ele>331.140702</ele>
        <time>2021-11-22T11:12:50.035Z</time>
      </trkpt>
      <trkpt lat="47.626086" lon="7.698992">
        <ele>332.445956</ele>
        <time>2021-11-22T11:13:02.583Z</time>
      </trkpt>
      <trkpt lat="47.625461" lon="7.699273">
        <ele>334.547081</ele>
        <time>2021-11-22T11:13:21.185Z</time>
      </trkpt>
      <trkpt lat="47.625309" lon="7.699433">
        <ele>335.146685</ele>
        <time>2021-11-22T11:13:26.613Z</time>
      </trkpt>
      <trkpt lat="47.624857" lon="7.700230">
        <ele>337.405352</ele>
        <time>2021-11-22T11:13:46.497Z</time>
      </trkpt>
      <trkpt lat="47.624323" lon="7.701445">
        <ele>340.854459</ele>
        <time>2021-11-22T11:14:11.086Z</time>
      </trkpt>
      <trkpt lat="47.623958" lon="7.701951">
        <ele>342.618828</ele>
        <time>2021-11-22T11:14:27.350Z</time>
      </trkpt>
      <trkpt lat="47.623648" lon="7.702270">
        <ele>344.069276</ele>
        <time>2021-11-22T11:14:39.277Z</time>
      </trkpt>
      <trkpt lat="47.623513" lon="7.702279">
        <ele>344.913577</ele>
        <time>2021-11-22T11:14:42.894Z</time>
      </trkpt>
      <trkpt lat="47.623205" lon="7.702085">
        <ele>347.004121</ele>
        <time>2021-11-22T11:14:54.830Z</time>
      </trkpt>
      <trkpt lat="47.623108" lon="7.702060">
        <ele>347.619231</ele>
        <time>2021-11-22T11:14:57.690Z</time>
      </trkpt>
      <trkpt lat="47.622996" lon="7.702123">
        <ele>348.367584</ele>
        <time>2021-11-22T11:15:03.714Z</time>
      </trkpt>
      <trkpt lat="47.622874" lon="7.702287">
        <ele>349.396145</ele>
        <time>2021-11-22T11:15:09.165Z</time>
      </trkpt>
      <trkpt lat="47.622692" lon="7.702977">
        <ele>352.516347</ele>
        <time>2021-11-22T11:15:30.394Z</time>
      </trkpt>
      <trkpt lat="47.622344" lon="7.703662">
        <ele>356.515469</ele>
        <time>2021-11-22T11:15:56.860Z</time>
      </trkpt>
      <trkpt lat="47.621888" lon="7.704755">
        <ele>363.844585</ele>
        <time>2021-11-22T11:16:40.371Z</time>
      </trkpt>
      <trkpt lat="47.621789" lon="7.705094">
        <ele>365.951077</ele>
        <time>2021-11-22T11:16:52.712Z</time>
      </trkpt>
      <trkpt lat="47.621611" lon="7.706298">
        <ele>372.688055</ele>
        <time>2021-11-22T11:17:33.296Z</time>
      </trkpt>
      <trkpt lat="47.621593" lon="7.707590">
        <ele>379.270290</ele>
        <time>2021-11-22T11:18:14.820Z</time>
      </trkpt>
      <trkpt lat="47.621520" lon="7.707900">
        <ele>380.942875</ele>
        <time>2021-11-22T11:18:24.564Z</time>
      </trkpt>
      <trkpt lat="47.621330" lon="7.708277">
        <ele>383.340573</ele>
        <time>2021-11-22T11:18:37.581Z</time>
      </trkpt>
      <trkpt lat="47.621059" lon="7.709139">
        <ele>385.551983</ele>
        <time>2021-11-22T11:19:00.420Z</time>
      </trkpt>
      <trkpt lat="47.620944" lon="7.709648">
        <ele>386.628272</ele>
        <time>2021-11-22T11:19:11.090Z</time>
      </trkpt>
      <trkpt lat="47.620838" lon="7.710891">
        <ele>389.140212</ele>
        <time>2021-11-22T11:19:28.031Z</time>
      </trkpt>
      <trkpt lat="47.620668" lon="7.711439">
        <ele>389.148390</ele>
        <time>2021-11-22T11:19:33.514Z</time>
      </trkpt>
      <trkpt lat="47.620583" lon="7.712051">
        <ele>389.100455</ele>
        <time>2021-11-22T11:19:38.639Z</time>
      </trkpt>
      <trkpt lat="47.620562" lon="7.712881">
        <ele>389.036737</ele>
        <time>2021-11-22T11:19:45.549Z</time>
      </trkpt>
      <trkpt lat="47.620355" lon="7.714031">
        <ele>389.663847</ele>
        <time>2021-11-22T11:19:59.848Z</time>
      </trkpt>
      <trkpt lat="47.620154" lon="7.714902">
        <ele>390.786297</ele>
        <time>2021-11-22T11:20:12.989Z</time>
      </trkpt>
      <trkpt lat="47.620083" lon="7.715138">
        <ele>391.101393</ele>
        <time>2021-11-22T11:20:18.192Z</time>
      </trkpt>
      <trkpt lat="47.619370" lon="7.716703">
        <ele>392.781938</ele>
        <time>2021-11-22T11:20:49.546Z</time>
      </trkpt>
      <trkpt lat="47.619222" lon="7.716913">
        <ele>392.954106</ele>
        <time>2021-11-22T11:20:53.642Z</time>
      </trkpt>
      <trkpt lat="47.619037" lon="7.717037">
        <ele>393.124769</ele>
        <time>2021-11-22T11:20:56.910Z</time>
      </trkpt>
      <trkpt lat="47.618344" lon="7.717282">
        <ele>393.723679</ele>
        <time>2021-11-22T11:21:06.284Z</time>
      </trkpt>
      <trkpt lat="47.617832" lon="7.717579">
        <ele>394.040351</ele>
        <time>2021-11-22T11:21:13.328Z</time>
      </trkpt>
      <trkpt lat="47.617441" lon="7.717849">
        <ele>394.280921</ele>
        <time>2021-11-22T11:21:19.234Z</time>
      </trkpt>
      <trkpt lat="47.617269" lon="7.718018">
        <ele>394.395998</ele>
        <time>2021-11-22T11:21:22.321Z</time>
      </trkpt>
      <trkpt lat="47.617098" lon="7.718278">
        <ele>394.532582</ele>
        <time>2021-11-22T11:21:26.407Z</time>
      </trkpt>
      <trkpt lat="47.616298" lon="7.719670">
        <ele>398.194550</ele>
        <time>2021-11-22T11:21:58.887Z</time>
      </trkpt>
      <trkpt lat="47.615890" lon="7.720244">
        <ele>400.520188</ele>
        <time>2021-11-22T11:22:19.647Z</time>
      </trkpt>
      <trkpt lat="47.615630" lon="7.720579">
        <ele>401.944519</ele>
        <time>2021-11-22T11:22:32.424Z</time>
      </trkpt>
      <trkpt lat="47.615394" lon="7.720757">
        <ele>403.130377</ele>
        <time>2021-11-22T11:22:41.821Z</time>
      </trkpt>
      <trkpt lat="47.615110" lon="7.720843">
        <ele>404.458314</ele>
        <time>2021-11-22T11:22:52.114Z</time>
      </trkpt>
      <trkpt lat="47.614657" lon="7.720991">
        <ele>406.583405</ele>
        <time>2021-11-22T11:23:07.801Z</time>
      </trkpt>
      <trkpt lat="47.614307" lon="7.721193">
        <ele>408.303963</ele>
        <time>2021-11-22T11:23:20.367Z</time>
      </trkpt>
      <trkpt lat="47.613293" lon="7.722239">
        <ele>413.341114</ele>
        <time>2021-11-22T11:23:56.790Z</time>
      </trkpt>
      <trkpt lat="47.613151" lon="7.722474">
        <ele>414.144087</ele>
        <time>2021-11-22T11:24:03.126Z</time>
      </trkpt>
      <trkpt lat="47.612626" lon="7.724023">
        <ele>418.159068</ele>
        <time>2021-11-22T11:24:38.355Z</time>
      </trkpt>
      <trkpt lat="47.612294" lon="7.725494">
        <ele>420.930413</ele>
        <time>2021-11-22T11:25:08.948Z</time>
      </trkpt>
      <trkpt lat="47.611696" lon="7.727069">
        <ele>420.381127</ele>
        <time>2021-11-22T11:25:25.927Z</time>
      </trkpt>
      <trkpt lat="47.611558" lon="7.727374">
        <ele>419.893868</ele>
        <time>2021-11-22T11:25:28.621Z</time>
      </trkpt>
      <trkpt lat="47.611673" lon="7.727743">
        <ele>419.354614</ele>
        <time>2021-11-22T11:25:31.349Z</time>
      </trkpt>
      <trkpt lat="47.611794" lon="7.728207">
        <ele>418.694672</ele>
        <time>2021-11-22T11:25:34.646Z</time>
      </trkpt>
      <trkpt lat="47.612102" lon="7.728839">
        <ele>416.333524</ele>
        <time>2021-11-22T11:25:39.661Z</time>
      </trkpt>
      <trkpt lat="47.612234" lon="7.729223">
        <ele>414.803875</ele>
        <time>2021-11-22T11:25:42.350Z</time>
      </trkpt>
      <trkpt lat="47.612445" lon="7.730023">
        <ele>411.755343</ele>
        <time>2021-11-22T11:25:47.696Z</time>
      </trkpt>
      <trkpt lat="47.612490" lon="7.730332">
        <ele>410.633492</ele>
        <time>2021-11-22T11:25:49.703Z</time>
      </trkpt>
      <trkpt lat="47.612414" lon="7.731732">
        <ele>404.969403</ele>
        <time>2021-11-22T11:25:58.515Z</time>
      </trkpt>
      <trkpt lat="47.612582" lon="7.733083">
        <ele>399.100386</ele>
        <time>2021-11-22T11:26:06.826Z</time>
      </trkpt>
      <trkpt lat="47.612580" lon="7.733841">
        <ele>395.974111</ele>
        <time>2021-11-22T11:26:11.491Z</time>
      </trkpt>
      <trkpt lat="47.612580" lon="7.733842">
        <ele>395.970116</ele>
        <time>2021-11-22T11:26:11.521Z</time>
      </trkpt>
      <trkpt lat="47.612562" lon="7.734273">
        <ele>394.245198</ele>
        <time>2021-11-22T11:26:14.291Z</time>
      </trkpt>
      <trkpt lat="47.612560" lon="7.734334">
        <ele>394.001247</ele>
        <time>2021-11-22T11:26:14.658Z</time>
      </trkpt>
      <trkpt lat="47.612558" lon="7.734604">
        <ele>392.922674</ele>
        <time>2021-11-22T11:26:16.296Z</time>
      </trkpt>
      <trkpt lat="47.612618" lon="7.734756">
        <ele>392.219086</ele>
        <time>2021-11-22T11:26:17.395Z</time>
      </trkpt>
      <trkpt lat="47.612755" lon="7.734867">
        <ele>391.294126</ele>
        <time>2021-11-22T11:26:18.788Z</time>
      </trkpt>
      <trkpt lat="47.613181" lon="7.734997">
        <ele>388.717095</ele>
        <time>2021-11-22T11:26:22.802Z</time>
      </trkpt>
      <trkpt lat="47.613390" lon="7.735211">
        <ele>387.212339</ele>
        <time>2021-11-22T11:26:25.111Z</time>
      </trkpt>
      <trkpt lat="47.613434" lon="7.735397">
        <ele>386.732289</ele>
        <time>2021-11-22T11:26:26.394Z</time>
      </trkpt>
      <trkpt lat="47.613375" lon="7.735736">
        <ele>386.187816</ele>
        <time>2021-11-22T11:26:28.705Z</time>
      </trkpt>
      <trkpt lat="47.613317" lon="7.735838">
        <ele>385.980299</ele>
        <time>2021-11-22T11:26:29.667Z</time>
      </trkpt>
      <trkpt lat="47.613210" lon="7.735944">
        <ele>385.683482</ele>
        <time>2021-11-22T11:26:30.925Z</time>
      </trkpt>
      <trkpt lat="47.612712" lon="7.736151">
        <ele>384.490414</ele>
        <time>2021-11-22T11:26:36.561Z</time>
      </trkpt>
      <trkpt lat="47.612447" lon="7.736778">
        <ele>383.339549</ele>
        <time>2021-11-22T11:26:42.307Z</time>
      </trkpt>
      <trkpt lat="47.612194" lon="7.737048">
        <ele>382.878942</ele>
        <time>2021-11-22T11:26:46.624Z</time>
      </trkpt>
      <trkpt lat="47.612044" lon="7.737224">
        <ele>383.157270</ele>
        <time>2021-11-22T11:26:49.346Z</time>
      </trkpt>
      <trkpt lat="47.611965" lon="7.737457">
        <ele>383.413144</ele>
        <time>2021-11-22T11:26:52.744Z</time>
      </trkpt>
      <trkpt lat="47.611893" lon="7.737711">
        <ele>383.683471</ele>
        <time>2021-11-22T11:26:56.427Z</time>
      </trkpt>
      <trkpt lat="47.611872" lon="7.738156">
        <ele>384.121120</ele>
        <time>2021-11-22T11:27:02.808Z</time>
      </trkpt>
      <trkpt lat="47.611785" lon="7.738609">
        <ele>384.583233</ele>
        <time>2021-11-22T11:27:09.614Z</time>
      </trkpt>
      <trkpt lat="47.611751" lon="7.738698">
        <ele>384.683594</ele>
        <time>2021-11-22T11:27:11.631Z</time>
      </trkpt>
      <trkpt lat="47.611684" lon="7.738828">
        <ele>384.844136</ele>
        <time>2021-11-22T11:27:14.133Z</time>
      </trkpt>
      <trkpt lat="47.611618" lon="7.738936">
        <ele>384.987148</ele>
        <time>2021-11-22T11:27:16.439Z</time>
      </trkpt>
      <trkpt lat="47.611382" lon="7.739254">
        <ele>385.493827</ele>
        <time>2021-11-22T11:27:24.523Z</time>
      </trkpt>
      <trkpt lat="47.611129" lon="7.739819">
        <ele>386.679448</ele>
        <time>2021-11-22T11:27:37.022Z</time>
      </trkpt>
      <trkpt lat="47.610898" lon="7.741056">
        <ele>388.923135</ele>
        <time>2021-11-22T11:27:59.024Z</time>
      </trkpt>
      <trkpt lat="47.610871" lon="7.741420">
        <ele>389.563245</ele>
        <time>2021-11-22T11:28:04.456Z</time>
      </trkpt>
      <trkpt lat="47.610879" lon="7.741793">
        <ele>390.254681</ele>
        <time>2021-11-22T11:28:10.207Z</time>
      </trkpt>
      <trkpt lat="47.611010" lon="7.743033">
        <ele>393.000566</ele>
        <time>2021-11-22T11:28:32.766Z</time>
      </trkpt>
      <trkpt lat="47.611161" lon="7.743634">
        <ele>394.403726</ele>
        <time>2021-11-22T11:28:46.003Z</time>
      </trkpt>
      <trkpt lat="47.611241" lon="7.743837">
        <ele>394.918144</ele>
        <time>2021-11-22T11:28:50.826Z</time>
      </trkpt>
      <trkpt lat="47.611456" lon="7.744262">
        <ele>396.077540</ele>
        <time>2021-11-22T11:29:01.202Z</time>
      </trkpt>
      <trkpt lat="47.611609" lon="7.744853">
        <ele>397.439571</ele>
        <time>2021-11-22T11:29:13.412Z</time>
      </trkpt>
      <trkpt lat="47.611651" lon="7.745141">
        <ele>398.073517</ele>
        <time>2021-11-22T11:29:19.893Z</time>
      </trkpt>
      <trkpt lat="47.611691" lon="7.745486">
        <ele>398.826659</ele>
        <time>2021-11-22T11:29:26.523Z</time>
      </trkpt>
      <trkpt lat="47.611647" lon="7.746050">
        <ele>400.048168</ele>
        <time>2021-11-22T11:29:37.820Z</time>
      </trkpt>
      <trkpt lat="47.611508" lon="7.746851">
        <ele>401.694649</ele>
        <time>2021-11-22T11:29:51.599Z</time>
      </trkpt>
      <trkpt lat="47.611423" lon="7.747196">
        <ele>401.933687</ele>
        <time>2021-11-22T11:29:57.502Z</time>
      </trkpt>
      <trkpt lat="47.611024" lon="7.748403">
        <ele>402.808516</ele>
        <time>2021-11-22T11:30:12.922Z</time>
      </trkpt>
      <trkpt lat="47.610897" lon="7.748667">
        <ele>403.019576</ele>
        <time>2021-11-22T11:30:16.130Z</time>
      </trkpt>
      <trkpt lat="47.610399" lon="7.749144">
        <ele>403.866567</ele>
        <time>2021-11-22T11:30:25.903Z</time>
      </trkpt>
      <trkpt lat="47.610331" lon="7.749289">
        <ele>404.125996</ele>
        <time>2021-11-22T11:30:27.983Z</time>
      </trkpt>
      <trkpt lat="47.610303" lon="7.749507">
        <ele>404.451944</ele>
        <time>2021-11-22T11:30:30.897Z</time>
      </trkpt>
      <trkpt lat="47.610345" lon="7.749815">
        <ele>404.913482</ele>
        <time>2021-11-22T11:30:35.853Z</time>
      </trkpt>
      <trkpt lat="47.610520" lon="7.750319">
        <ele>405.746147</ele>
        <time>2021-11-22T11:30:45.186Z</time>
      </trkpt>
      <trkpt lat="47.610643" lon="7.750603">
        <ele>406.241931</ele>
        <time>2021-11-22T11:30:50.645Z</time>
      </trkpt>
      <trkpt lat="47.610714" lon="7.750722">
        <ele>406.475329</ele>
        <time>2021-11-22T11:30:53.675Z</time>
      </trkpt>
      <trkpt lat="47.611094" lon="7.750951">
        <ele>407.480400</ele>
        <time>2021-11-22T11:31:05.227Z</time>
      </trkpt>
      <trkpt lat="47.611197" lon="7.751064">
        <ele>408.162846</ele>
        <time>2021-11-22T11:31:08.422Z</time>
      </trkpt>
      <trkpt lat="47.611255" lon="7.751205">
        <ele>408.756028</ele>
        <time>2021-11-22T11:31:11.913Z</time>
      </trkpt>
      <trkpt lat="47.611288" lon="7.751378">
        <ele>409.401703</ele>
        <time>2021-11-22T11:31:15.929Z</time>
      </trkpt>
      <trkpt lat="47.611242" lon="7.752336">
        <ele>412.850821</ele>
        <time>2021-11-22T11:31:38.835Z</time>
      </trkpt>
      <trkpt lat="47.611269" lon="7.753071">
        <ele>415.494295</ele>
        <time>2021-11-22T11:31:59.549Z</time>
      </trkpt>
      <trkpt lat="47.611310" lon="7.753428">
        <ele>416.794836</ele>
        <time>2021-11-22T11:32:09.272Z</time>
      </trkpt>
      <trkpt lat="47.611506" lon="7.753985">
        <ele>419.874882</ele>
        <time>2021-11-22T11:32:26.585Z</time>
      </trkpt>
      <trkpt lat="47.611701" lon="7.754245">
        <ele>421.799780</ele>
        <time>2021-11-22T11:32:37.889Z</time>
      </trkpt>
      <trkpt lat="47.611848" lon="7.754391">
        <ele>423.098534</ele>
        <time>2021-11-22T11:32:45.615Z</time>
      </trkpt>
      <trkpt lat="47.612146" lon="7.754726">
        <ele>425.843538</ele>
        <time>2021-11-22T11:33:02.499Z</time>
      </trkpt>
      <trkpt lat="47.612192" lon="7.754954">
        <ele>427.021395</ele>
        <time>2021-11-22T11:33:10.194Z</time>
      </trkpt>
      <trkpt lat="47.612161" lon="7.755353">
        <ele>429.009181</ele>
        <time>2021-11-22T11:33:22.127Z</time>
      </trkpt>
      <trkpt lat="47.612159" lon="7.755380">
        <ele>429.143612</ele>
        <time>2021-11-22T11:33:24.016Z</time>
      </trkpt>
      <trkpt lat="47.612161" lon="7.755449">
        <ele>429.485420</ele>
        <time>2021-11-22T11:33:26.147Z</time>
      </trkpt>
      <trkpt lat="47.612172" lon="7.755521">
        <ele>429.850795</ele>
        <time>2021-11-22T11:33:28.300Z</time>
      </trkpt>
      <trkpt lat="47.612196" lon="7.755580">
        <ele>430.193436</ele>
        <time>2021-11-22T11:33:30.395Z</time>
      </trkpt>
      <trkpt lat="47.612248" lon="7.755635">
        <ele>430.668873</ele>
        <time>2021-11-22T11:33:33.448Z</time>
      </trkpt>
      <trkpt lat="47.612387" lon="7.755703">
        <ele>431.758460</ele>
        <time>2021-11-22T11:33:40.443Z</time>
      </trkpt>
      <trkpt lat="47.612451" lon="7.755754">
        <ele>432.299296</ele>
        <time>2021-11-22T11:33:44.167Z</time>
      </trkpt>
      <trkpt lat="47.612481" lon="7.755809">
        <ele>432.654351</ele>
        <time>2021-11-22T11:33:46.487Z</time>
      </trkpt>
      <trkpt lat="47.612503" lon="7.755886">
        <ele>433.074052</ele>
        <time>2021-11-22T11:33:48.943Z</time>
      </trkpt>
      <trkpt lat="47.612539" lon="7.756079">
        <ele>434.079025</ele>
        <time>2021-11-22T11:33:55.183Z</time>
      </trkpt>
      <trkpt lat="47.612595" lon="7.756458">
        <ele>436.026203</ele>
        <time>2021-11-22T11:34:06.538Z</time>
      </trkpt>
      <trkpt lat="47.612635" lon="7.756867">
        <ele>438.100273</ele>
        <time>2021-11-22T11:34:19.517Z</time>
      </trkpt>
      <trkpt lat="47.612654" lon="7.757180">
        <ele>439.677431</ele>
        <time>2021-11-22T11:34:28.969Z</time>
      </trkpt>
      <trkpt lat="47.612657" lon="7.757559">
        <ele>441.579587</ele>
        <time>2021-11-22T11:34:40.782Z</time>
      </trkpt>
      <trkpt lat="47.612671" lon="7.757751">
        <ele>442.548766</ele>
        <time>2021-11-22T11:34:46.628Z</time>
      </trkpt>
      <trkpt lat="47.612697" lon="7.758003">
        <ele>443.672578</ele>
        <time>2021-11-22T11:34:52.917Z</time>
      </trkpt>
      <trkpt lat="47.612718" lon="7.758199">
        <ele>444.239000</ele>
        <time>2021-11-22T11:34:59.137Z</time>
      </trkpt>
      <trkpt lat="47.612779" lon="7.758543">
        <ele>445.254203</ele>
        <time>2021-11-22T11:35:07.022Z</time>
      </trkpt>
      <trkpt lat="47.612830" lon="7.758759">
        <ele>445.907404</ele>
        <time>2021-11-22T11:35:13.440Z</time>
      </trkpt>
      <trkpt lat="47.612944" lon="7.759245">
        <ele>447.376055</ele>
        <time>2021-11-22T11:35:24.675Z</time>
      </trkpt>
      <trkpt lat="47.613053" lon="7.759623">
        <ele>448.549448</ele>
        <time>2021-11-22T11:35:32.234Z</time>
      </trkpt>
      <trkpt lat="47.613205" lon="7.760080">
        <ele>450.003867</ele>
        <time>2021-11-22T11:35:41.985Z</time>
      </trkpt>
      <trkpt lat="47.613222" lon="7.760189">
        <ele>450.323177</ele>
        <time>2021-11-22T11:35:44.400Z</time>
      </trkpt>
      <trkpt lat="47.613231" lon="7.760404">
        <ele>450.937982</ele>
        <time>2021-11-22T11:35:47.617Z</time>
      </trkpt>
      <trkpt lat="47.613148" lon="7.760607">
        <ele>451.181995</ele>
        <time>2021-11-22T11:35:51.159Z</time>
      </trkpt>
      <trkpt lat="47.613059" lon="7.760674">
        <ele>451.260983</ele>
        <time>2021-11-22T11:35:53.584Z</time>
      </trkpt>
      <trkpt lat="47.612960" lon="7.760706">
        <ele>451.341173</ele>
        <time>2021-11-22T11:35:55.641Z</time>
      </trkpt>
      <trkpt lat="47.612812" lon="7.760726">
        <ele>451.458790</ele>
        <time>2021-11-22T11:35:58.489Z</time>
      </trkpt>
      <trkpt lat="47.612630" lon="7.760759">
        <ele>451.603902</ele>
        <time>2021-11-22T11:36:01.750Z</time>
      </trkpt>
      <trkpt lat="47.612523" lon="7.760811">
        <ele>451.693014</ele>
        <time>2021-11-22T11:36:03.659Z</time>
      </trkpt>
      <trkpt lat="47.612441" lon="7.760890">
        <ele>451.770398</ele>
        <time>2021-11-22T11:36:05.202Z</time>
      </trkpt>
      <trkpt lat="47.612441" lon="7.760890">
        <ele>451.770398</ele>
        <time>2021-11-22T11:36:05.205Z</time>
      </trkpt>
      <trkpt lat="47.612127" lon="7.761383">
        <ele>452.132259</ele>
        <time>2021-11-22T11:36:12.013Z</time>
      </trkpt>
      <trkpt lat="47.612075" lon="7.761435">
        <ele>452.181892</ele>
        <time>2021-11-22T11:36:12.939Z</time>
      </trkpt>
      <trkpt lat="47.612022" lon="7.761449">
        <ele>452.224498</ele>
        <time>2021-11-22T11:36:13.755Z</time>
      </trkpt>
      <trkpt lat="47.611933" lon="7.761457">
        <ele>452.295064</ele>
        <time>2021-11-22T11:36:15.052Z</time>
      </trkpt>
      <trkpt lat="47.610854" lon="7.761285">
        <ele>453.348995</ele>
        <time>2021-11-22T11:36:32.537Z</time>
      </trkpt>
      <trkpt lat="47.610760" lon="7.761304">
        <ele>453.446674</ele>
        <time>2021-11-22T11:36:34.197Z</time>
      </trkpt>
      <trkpt lat="47.610601" lon="7.761374">
        <ele>453.617442</ele>
        <time>2021-11-22T11:36:37.469Z</time>
      </trkpt>
      <trkpt lat="47.610565" lon="7.761273">
        <ele>453.696745</ele>
        <time>2021-11-22T11:36:39.011Z</time>
      </trkpt>
      <trkpt lat="47.610488" lon="7.761190">
        <ele>453.794748</ele>
        <time>2021-11-22T11:36:40.808Z</time>
      </trkpt>
      <trkpt lat="47.610076" lon="7.761100">
        <ele>454.223526</ele>
        <time>2021-11-22T11:36:49.703Z</time>
      </trkpt>
      <trkpt lat="47.608938" lon="7.760829">
        <ele>456.479069</ele>
        <time>2021-11-22T11:37:18.043Z</time>
      </trkpt>
      <trkpt lat="47.607825" lon="7.760537">
        <ele>458.276266</ele>
        <time>2021-11-22T11:37:43.534Z</time>
      </trkpt>
      <trkpt lat="47.607246" lon="7.760369">
        <ele>458.586375</ele>
        <time>2021-11-22T11:37:53.538Z</time>
      </trkpt>
      <trkpt lat="47.606171" lon="7.760045">
        <ele>459.147499</ele>
        <time>2021-11-22T11:38:08.901Z</time>
      </trkpt>
      <trkpt lat="47.605536" lon="7.759853">
        <ele>459.446724</ele>
        <time>2021-11-22T11:38:18.971Z</time>
      </trkpt>
      <trkpt lat="47.605325" lon="7.759787">
        <ele>459.546291</ele>
        <time>2021-11-22T11:38:22.782Z</time>
      </trkpt>
      <trkpt lat="47.604633" lon="7.759635">
        <ele>459.860585</ele>
        <time>2021-11-22T11:38:35.948Z</time>
      </trkpt>
      <trkpt lat="47.604421" lon="7.759606">
        <ele>459.685610</ele>
        <time>2021-11-22T11:38:40.172Z</time>
      </trkpt>
      <trkpt lat="47.604088" lon="7.759601">
        <ele>459.411915</ele>
        <time>2021-11-22T11:38:46.112Z</time>
      </trkpt>
      <trkpt lat="47.603613" lon="7.759659">
        <ele>459.020208</ele>
        <time>2021-11-22T11:38:52.967Z</time>
      </trkpt>
      <trkpt lat="47.603173" lon="7.759766">
        <ele>458.653758</ele>
        <time>2021-11-22T11:38:58.217Z</time>
      </trkpt>
      <trkpt lat="47.602902" lon="7.759841">
        <ele>458.427188</ele>
        <time>2021-11-22T11:39:01.196Z</time>
      </trkpt>
      <trkpt lat="47.602078" lon="7.760047">
        <ele>454.133031</ele>
        <time>2021-11-22T11:39:09.174Z</time>
      </trkpt>
      <trkpt lat="47.601600" lon="7.760073">
        <ele>451.549763</ele>
        <time>2021-11-22T11:39:13.572Z</time>
      </trkpt>
      <trkpt lat="47.601336" lon="7.760030">
        <ele>450.115406</ele>
        <time>2021-11-22T11:39:15.969Z</time>
      </trkpt>
      <trkpt lat="47.601032" lon="7.760002">
        <ele>448.402402</ele>
        <time>2021-11-22T11:39:18.705Z</time>
      </trkpt>
      <trkpt lat="47.600757" lon="7.759977">
        <ele>446.417141</ele>
        <time>2021-11-22T11:39:21.146Z</time>
      </trkpt>
      <trkpt lat="47.599976" lon="7.759788">
        <ele>440.715130</ele>
        <time>2021-11-22T11:39:28.240Z</time>
      </trkpt>
      <trkpt lat="47.599727" lon="7.759652">
        <ele>438.803119</ele>
        <time>2021-11-22T11:39:30.585Z</time>
      </trkpt>
      <trkpt lat="47.599495" lon="7.759407">
        <ele>436.750889</ele>
        <time>2021-11-22T11:39:33.129Z</time>
      </trkpt>
      <trkpt lat="47.599369" lon="7.759291">
        <ele>435.682839</ele>
        <time>2021-11-22T11:39:34.438Z</time>
      </trkpt>
      <trkpt lat="47.599038" lon="7.759240">
        <ele>433.328975</ele>
        <time>2021-11-22T11:39:37.459Z</time>
      </trkpt>
      <trkpt lat="47.598636" lon="7.759436">
        <ele>430.335775</ele>
        <time>2021-11-22T11:39:41.290Z</time>
      </trkpt>
      <trkpt lat="47.598492" lon="7.759485">
        <ele>429.290751</ele>
        <time>2021-11-22T11:39:42.625Z</time>
      </trkpt>
      <trkpt lat="47.598314" lon="7.759510">
        <ele>428.026070</ele>
        <time>2021-11-22T11:39:44.204Z</time>
      </trkpt>
      <trkpt lat="47.597328" lon="7.759556">
        <ele>420.626303</ele>
        <time>2021-11-22T11:39:53.084Z</time>
      </trkpt>
      <trkpt lat="47.596893" lon="7.759520">
        <ele>416.875249</ele>
        <time>2021-11-22T11:39:56.940Z</time>
      </trkpt>
      <trkpt lat="47.596644" lon="7.759494">
        <ele>414.726121</ele>
        <time>2021-11-22T11:39:59.091Z</time>
      </trkpt>
      <trkpt lat="47.596241" lon="7.759593">
        <ele>411.209118</ele>
        <time>2021-11-22T11:40:02.672Z</time>
      </trkpt>
      <trkpt lat="47.596134" lon="7.759703">
        <ele>410.088152</ele>
        <time>2021-11-22T11:40:03.814Z</time>
      </trkpt>
      <trkpt lat="47.596041" lon="7.759870">
        <ele>408.830674</ele>
        <time>2021-11-22T11:40:05.051Z</time>
      </trkpt>
      <trkpt lat="47.595854" lon="7.760335">
        <ele>405.536588</ele>
        <time>2021-11-22T11:40:08.191Z</time>
      </trkpt>
      <trkpt lat="47.595755" lon="7.760659">
        <ele>403.300198</ele>
        <time>2021-11-22T11:40:10.298Z</time>
      </trkpt>
      <trkpt lat="47.595685" lon="7.760825">
        <ele>402.069280</ele>
        <time>2021-11-22T11:40:11.408Z</time>
      </trkpt>
      <trkpt lat="47.595483" lon="7.761108">
        <ele>399.478418</ele>
        <time>2021-11-22T11:40:13.840Z</time>
      </trkpt>
      <trkpt lat="47.595086" lon="7.761325">
        <ele>395.533669</ele>
        <time>2021-11-22T11:40:17.471Z</time>
      </trkpt>
      <trkpt lat="47.594411" lon="7.761312">
        <ele>389.753362</ele>
        <time>2021-11-22T11:40:23.373Z</time>
      </trkpt>
      <trkpt lat="47.593803" lon="7.761400">
        <ele>386.011803</ele>
        <time>2021-11-22T11:40:28.895Z</time>
      </trkpt>
      <trkpt lat="47.593758" lon="7.761384">
        <ele>385.728376</ele>
        <time>2021-11-22T11:40:29.308Z</time>
      </trkpt>
      <trkpt lat="47.593513" lon="7.761296">
        <ele>384.184412</ele>
        <time>2021-11-22T11:40:31.658Z</time>
      </trkpt>
      <trkpt lat="47.593211" lon="7.761047">
        <ele>382.068022</ele>
        <time>2021-11-22T11:40:34.882Z</time>
      </trkpt>
      <trkpt lat="47.592736" lon="7.760559">
        <ele>378.911551</ele>
        <time>2021-11-22T11:40:40.382Z</time>
      </trkpt>
      <trkpt lat="47.592317" lon="7.760056">
        <ele>376.670661</ele>
        <time>2021-11-22T11:40:45.745Z</time>
      </trkpt>
      <trkpt lat="47.592205" lon="7.759833">
        <ele>375.891221</ele>
        <time>2021-11-22T11:40:47.549Z</time>
      </trkpt>
      <trkpt lat="47.591959" lon="7.759015">
        <ele>373.380468</ele>
        <time>2021-11-22T11:40:53.441Z</time>
      </trkpt>
      <trkpt lat="47.591911" lon="7.758184">
        <ele>370.575727</ele>
        <time>2021-11-22T11:40:58.974Z</time>
      </trkpt>
      <trkpt lat="47.591923" lon="7.757894">
        <ele>369.444852</ele>
        <time>2021-11-22T11:41:00.789Z</time>
      </trkpt>
      <trkpt lat="47.591970" lon="7.757544">
        <ele>368.055823</ele>
        <time>2021-11-22T11:41:03.065Z</time>
      </trkpt>
      <trkpt lat="47.592034" lon="7.757251">
        <ele>366.857071</ele>
        <time>2021-11-22T11:41:04.941Z</time>
      </trkpt>
      <trkpt lat="47.592097" lon="7.757042">
        <ele>365.966033</ele>
        <time>2021-11-22T11:41:06.364Z</time>
      </trkpt>
      <trkpt lat="47.592316" lon="7.756315">
        <ele>362.866930</ele>
        <time>2021-11-22T11:41:11.224Z</time>
      </trkpt>
      <trkpt lat="47.592371" lon="7.756099">
        <ele>361.968283</ele>
        <time>2021-11-22T11:41:12.637Z</time>
      </trkpt>
      <trkpt lat="47.592426" lon="7.755881">
        <ele>361.138559</ele>
        <time>2021-11-22T11:41:14.019Z</time>
      </trkpt>
      <trkpt lat="47.592484" lon="7.755586">
        <ele>360.056382</ele>
        <time>2021-11-22T11:41:15.892Z</time>
      </trkpt>
      <trkpt lat="47.592501" lon="7.755402">
        <ele>359.402321</ele>
        <time>2021-11-22T11:41:17.014Z</time>
      </trkpt>
      <trkpt lat="47.592485" lon="7.755255">
        <ele>358.877920</ele>
        <time>2021-11-22T11:41:17.920Z</time>
      </trkpt>
      <trkpt lat="47.592241" lon="7.754241">
        <ele>355.086311</ele>
        <time>2021-11-22T11:41:24.636Z</time>
      </trkpt>
      <trkpt lat="47.592004" lon="7.753676">
        <ele>352.742993</ele>
        <time>2021-11-22T11:41:28.973Z</time>
      </trkpt>
      <trkpt lat="47.591881" lon="7.753444">
        <ele>352.468130</ele>
        <time>2021-11-22T11:41:30.981Z</time>
      </trkpt>
      <trkpt lat="47.590881" lon="7.751756">
        <ele>352.444564</ele>
        <time>2021-11-22T11:41:55.358Z</time>
      </trkpt>
      <trkpt lat="47.590052" lon="7.749933">
        <ele>355.519519</ele>
        <time>2021-11-22T11:42:34.668Z</time>
      </trkpt>
      <trkpt lat="47.589642" lon="7.749241">
        <ele>356.469184</ele>
        <time>2021-11-22T11:42:48.980Z</time>
      </trkpt>
      <trkpt lat="47.588960" lon="7.748448">
        <ele>356.036735</ele>
        <time>2021-11-22T11:43:01.229Z</time>
      </trkpt>
      <trkpt lat="47.588242" lon="7.747872">
        <ele>355.391951</ele>
        <time>2021-11-22T11:43:11.019Z</time>
      </trkpt>
      <trkpt lat="47.588045" lon="7.747763">
        <ele>354.349876</ele>
        <time>2021-11-22T11:43:13.235Z</time>
      </trkpt>
      <trkpt lat="47.588045" lon="7.747762">
        <ele>354.346533</ele>
        <time>2021-11-22T11:43:13.250Z</time>
      </trkpt>
      <trkpt lat="47.587944" lon="7.747712">
        <ele>353.818824</ele>
        <time>2021-11-22T11:43:14.369Z</time>
      </trkpt>
      <trkpt lat="47.587676" lon="7.747616">
        <ele>352.452434</ele>
        <time>2021-11-22T11:43:16.992Z</time>
      </trkpt>
      <trkpt lat="47.587231" lon="7.747583">
        <ele>350.244306</ele>
        <time>2021-11-22T11:43:21.166Z</time>
      </trkpt>
      <trkpt lat="47.587012" lon="7.747608">
        <ele>349.155755</ele>
        <time>2021-11-22T11:43:23.195Z</time>
      </trkpt>
      <trkpt lat="47.586901" lon="7.747621">
        <ele>348.603937</ele>
        <time>2021-11-22T11:43:24.194Z</time>
      </trkpt>
      <trkpt lat="47.586219" lon="7.747726">
        <ele>344.363281</ele>
        <time>2021-11-22T11:43:30.382Z</time>
      </trkpt>
      <trkpt lat="47.585600" lon="7.747675">
        <ele>339.605776</ele>
        <time>2021-11-22T11:43:35.866Z</time>
      </trkpt>
      <trkpt lat="47.585275" lon="7.747497">
        <ele>336.947007</ele>
        <time>2021-11-22T11:43:38.883Z</time>
      </trkpt>
      <trkpt lat="47.584788" lon="7.747084">
        <ele>332.748075</ele>
        <time>2021-11-22T11:43:43.832Z</time>
      </trkpt>
      <trkpt lat="47.584325" lon="7.746826">
        <ele>330.309471</ele>
        <time>2021-11-22T11:43:48.327Z</time>
      </trkpt>
      <trkpt lat="47.583935" lon="7.746691">
        <ele>328.334970</ele>
        <time>2021-11-22T11:43:52.049Z</time>
      </trkpt>
      <trkpt lat="47.580800" lon="7.746847">
        <ele>316.889526</ele>
        <time>2021-11-22T11:44:23.861Z</time>
      </trkpt>
      <trkpt lat="47.580195" lon="7.746761">
        <ele>314.945278</ele>
        <time>2021-11-22T11:44:30.125Z</time>
      </trkpt>
      <trkpt lat="47.580176" lon="7.746758">
        <ele>314.884154</ele>
        <time>2021-11-22T11:44:30.293Z</time>
      </trkpt>
      <trkpt lat="47.579910" lon="7.746660">
        <ele>314.007346</ele>
        <time>2021-11-22T11:44:33.121Z</time>
      </trkpt>
      <trkpt lat="47.579370" lon="7.746311">
        <ele>312.105374</ele>
        <time>2021-11-22T11:44:39.029Z</time>
      </trkpt>
      <trkpt lat="47.578248" lon="7.745231">
        <ele>307.683796</ele>
        <time>2021-11-22T11:44:52.441Z</time>
      </trkpt>
      <trkpt lat="47.578014" lon="7.745032">
        <ele>306.792156</ele>
        <time>2021-11-22T11:44:55.186Z</time>
      </trkpt>
      <trkpt lat="47.577765" lon="7.744854">
        <ele>305.951445</ele>
        <time>2021-11-22T11:44:58.043Z</time>
      </trkpt>
      <trkpt lat="47.576822" lon="7.744396">
        <ele>302.961097</ele>
        <time>2021-11-22T11:45:08.214Z</time>
      </trkpt>
      <trkpt lat="47.575733" lon="7.744190">
        <ele>299.895269</ele>
        <time>2021-11-22T11:45:19.508Z</time>
      </trkpt>
      <trkpt lat="47.575417" lon="7.744166">
        <ele>299.083392</ele>
        <time>2021-11-22T11:45:22.793Z</time>
      </trkpt>
      <trkpt lat="47.575173" lon="7.744139">
        <ele>298.455578</ele>
        <time>2021-11-22T11:45:25.362Z</time>
      </trkpt>
      <trkpt lat="47.574918" lon="7.744046">
        <ele>297.781769</ele>
        <time>2021-11-22T11:45:28.140Z</time>
      </trkpt>
      <trkpt lat="47.574841" lon="7.744018">
        <ele>297.578339</ele>
        <time>2021-11-22T11:45:28.976Z</time>
      </trkpt>
      <trkpt lat="47.574546" lon="7.743745">
        <ele>296.686004</ele>
        <time>2021-11-22T11:45:32.730Z</time>
      </trkpt>
      <trkpt lat="47.574382" lon="7.743495">
        <ele>296.397491</ele>
        <time>2021-11-22T11:45:35.282Z</time>
      </trkpt>
      <trkpt lat="47.574090" lon="7.742826">
        <ele>295.757744</ele>
        <time>2021-11-22T11:45:41.322Z</time>
      </trkpt>
      <trkpt lat="47.573998" lon="7.742684">
        <ele>295.599673</ele>
        <time>2021-11-22T11:45:42.871Z</time>
      </trkpt>
      <trkpt lat="47.573895" lon="7.742636">
        <ele>295.471177</ele>
        <time>2021-11-22T11:45:44.211Z</time>
      </trkpt>
      <trkpt lat="47.573635" lon="7.742528">
        <ele>295.149828</ele>
        <time>2021-11-22T11:45:47.637Z</time>
      </trkpt>
      <trkpt lat="47.573477" lon="7.743683">
        <ele>294.417438</ele>
        <time>2021-11-22T11:45:58.585Z</time>
      </trkpt>
      <trkpt lat="47.573397" lon="7.744238">
        <ele>294.260761</ele>
        <time>2021-11-22T11:46:03.870Z</time>
      </trkpt>
      <trkpt lat="47.573383" lon="7.744318">
        <ele>294.237945</ele>
        <time>2021-11-22T11:46:04.655Z</time>
      </trkpt>
      <trkpt lat="47.573349" lon="7.744526">
        <ele>294.178860</ele>
        <time>2021-11-22T11:46:06.447Z</time>
      </trkpt>
      <trkpt lat="47.573329" lon="7.744647">
        <ele>294.144468</ele>
        <time>2021-11-22T11:46:08.061Z</time>
      </trkpt>
      <trkpt lat="47.573193" lon="7.745027">
        <ele>294.025713</ele>
        <time>2021-11-22T11:46:11.558Z</time>
      </trkpt>
      <trkpt lat="47.573070" lon="7.745225">
        <ele>293.951408</ele>
        <time>2021-11-22T11:46:14.522Z</time>
      </trkpt>
      <trkpt lat="47.572897" lon="7.745419">
        <ele>293.862638</ele>
        <time>2021-11-22T11:46:17.316Z</time>
      </trkpt>
      <trkpt lat="47.572693" lon="7.745654">
        <ele>293.711401</ele>
        <time>2021-11-22T11:46:20.749Z</time>
      </trkpt>
      <trkpt lat="47.572478" lon="7.745914">
        <ele>293.456494</ele>
        <time>2021-11-22T11:46:24.760Z</time>
      </trkpt>
      <trkpt lat="47.572312" lon="7.746125">
        <ele>293.255604</ele>
        <time>2021-11-22T11:46:27.750Z</time>
      </trkpt>
      <trkpt lat="47.572107" lon="7.746364">
        <ele>293.016004</ele>
        <time>2021-11-22T11:46:30.884Z</time>
      </trkpt>
      <trkpt lat="47.571996" lon="7.746510">
        <ele>292.879673</ele>
        <time>2021-11-22T11:46:32.851Z</time>
      </trkpt>
      <trkpt lat="47.571810" lon="7.746732">
        <ele>292.660291</ele>
        <time>2021-11-22T11:46:35.565Z</time>
      </trkpt>
      <trkpt lat="47.571732" lon="7.746831">
        <ele>292.565955</ele>
        <time>2021-11-22T11:46:36.811Z</time>
      </trkpt>
      <trkpt lat="47.571615" lon="7.746974">
        <ele>292.426643</ele>
        <time>2021-11-22T11:46:38.551Z</time>
      </trkpt>
      <trkpt lat="47.571591" lon="7.747005">
        <ele>292.397398</ele>
        <time>2021-11-22T11:46:38.899Z</time>
      </trkpt>
      <trkpt lat="47.571247" lon="7.747396">
        <ele>291.921235</ele>
        <time>2021-11-22T11:46:44.000Z</time>
      </trkpt>
      <trkpt lat="47.570998" lon="7.747803">
        <ele>291.393813</ele>
        <time>2021-11-22T11:46:48.380Z</time>
      </trkpt>
      <trkpt lat="47.570938" lon="7.747976">
        <ele>291.207081</ele>
        <time>2021-11-22T11:46:50.037Z</time>
      </trkpt>
      <trkpt lat="47.570885" lon="7.748211">
        <ele>290.969217</ele>
        <time>2021-11-22T11:46:52.050Z</time>
      </trkpt>
      <trkpt lat="47.570858" lon="7.749747">
        <ele>289.506977</ele>
        <time>2021-11-22T11:47:03.887Z</time>
      </trkpt>
      <trkpt lat="47.570866" lon="7.750436">
        <ele>288.941793</ele>
        <time>2021-11-22T11:47:09.164Z</time>
      </trkpt>
      <trkpt lat="47.570870" lon="7.750695">
        <ele>288.729313</ele>
        <time>2021-11-22T11:47:11.187Z</time>
      </trkpt>
      <trkpt lat="47.570876" lon="7.751057">
        <ele>288.432320</ele>
        <time>2021-11-22T11:47:14.098Z</time>
      </trkpt>
      <trkpt lat="47.570885" lon="7.751787">
        <ele>287.833493</ele>
        <time>2021-11-22T11:47:19.985Z</time>
      </trkpt>
      <trkpt lat="47.570869" lon="7.752048">
        <ele>287.618546</ele>
        <time>2021-11-22T11:47:22.161Z</time>
      </trkpt>
      <trkpt lat="47.570854" lon="7.752277">
        <ele>287.429843</ele>
        <time>2021-11-22T11:47:24.043Z</time>
      </trkpt>
      <trkpt lat="47.570840" lon="7.752506">
        <ele>287.335772</ele>
        <time>2021-11-22T11:47:26.029Z</time>
      </trkpt>
      <trkpt lat="47.570759" lon="7.753008">
        <ele>287.172018</ele>
        <time>2021-11-22T11:47:30.535Z</time>
      </trkpt>
      <trkpt lat="47.570466" lon="7.754138">
        <ele>286.787955</ele>
        <time>2021-11-22T11:47:42.170Z</time>
      </trkpt>
      <trkpt lat="47.570185" lon="7.755068">
        <ele>286.387205</ele>
        <time>2021-11-22T11:47:51.622Z</time>
      </trkpt>
      <trkpt lat="47.569898" lon="7.756021">
        <ele>285.754180</ele>
        <time>2021-11-22T11:48:00.292Z</time>
      </trkpt>
      <trkpt lat="47.569743" lon="7.756603">
        <ele>285.374652</ele>
        <time>2021-11-22T11:48:05.414Z</time>
      </trkpt>
      <trkpt lat="47.569564" lon="7.757554">
        <ele>284.755343</ele>
        <time>2021-11-22T11:48:13.430Z</time>
      </trkpt>
      <trkpt lat="47.569423" lon="7.758505">
        <ele>284.087756</ele>
        <time>2021-11-22T11:48:21.180Z</time>
      </trkpt>
      <trkpt lat="47.569394" lon="7.758678">
        <ele>283.965537</ele>
        <time>2021-11-22T11:48:22.664Z</time>
      </trkpt>
      <trkpt lat="47.569371" lon="7.758806">
        <ele>283.874717</ele>
        <time>2021-11-22T11:48:23.743Z</time>
      </trkpt>
      <trkpt lat="47.569318" lon="7.759087">
        <ele>283.674670</ele>
        <time>2021-11-22T11:48:26.076Z</time>
      </trkpt>
      <trkpt lat="47.569287" lon="7.759231">
        <ele>283.571035</ele>
        <time>2021-11-22T11:48:27.415Z</time>
      </trkpt>
      <trkpt lat="47.569052" lon="7.760178">
        <ele>282.965490</ele>
        <time>2021-11-22T11:48:36.101Z</time>
      </trkpt>
      <trkpt lat="47.568658" lon="7.761470">
        <ele>282.365120</ele>
        <time>2021-11-22T11:48:48.647Z</time>
      </trkpt>
      <trkpt lat="47.568588" lon="7.761697">
        <ele>282.259436</ele>
        <time>2021-11-22T11:48:50.775Z</time>
      </trkpt>
      <trkpt lat="47.568566" lon="7.761768">
        <ele>282.226352</ele>
        <time>2021-11-22T11:48:51.435Z</time>
      </trkpt>
      <trkpt lat="47.568495" lon="7.761994">
        <ele>282.120789</ele>
        <time>2021-11-22T11:48:53.586Z</time>
      </trkpt>
      <trkpt lat="47.568423" lon="7.762232">
        <ele>282.010343</ele>
        <time>2021-11-22T11:48:55.786Z</time>
      </trkpt>
      <trkpt lat="47.568377" lon="7.762379">
        <ele>281.956709</ele>
        <time>2021-11-22T11:48:57.197Z</time>
      </trkpt>
      <trkpt lat="47.567932" lon="7.763827">
        <ele>281.577487</ele>
        <time>2021-11-22T11:49:11.693Z</time>
      </trkpt>
      <trkpt lat="47.567739" lon="7.764462">
        <ele>281.411497</ele>
        <time>2021-11-22T11:49:18.526Z</time>
      </trkpt>
      <trkpt lat="47.567574" lon="7.765017">
        <ele>281.264983</ele>
        <time>2021-11-22T11:49:24.373Z</time>
      </trkpt>
      <trkpt lat="47.567427" lon="7.765503">
        <ele>281.134661</ele>
        <time>2021-11-22T11:49:29.421Z</time>
      </trkpt>
      <trkpt lat="47.566939" lon="7.766996">
        <ele>280.728725</ele>
        <time>2021-11-22T11:49:44.372Z</time>
      </trkpt>
      <trkpt lat="47.566747" lon="7.767407">
        <ele>280.617773</ele>
        <time>2021-11-22T11:49:48.860Z</time>
      </trkpt>
      <trkpt lat="47.566290" lon="7.768111">
        <ele>280.411890</ele>
        <time>2021-11-22T11:49:57.664Z</time>
      </trkpt>
      <trkpt lat="47.565945" lon="7.768659">
        <ele>280.253933</ele>
        <time>2021-11-22T11:50:04.545Z</time>
      </trkpt>
      <trkpt lat="47.565887" lon="7.768778">
        <ele>280.222995</ele>
        <time>2021-11-22T11:50:06.176Z</time>
      </trkpt>
      <trkpt lat="47.565730" lon="7.769200">
        <ele>280.129103</ele>
        <time>2021-11-22T11:50:10.773Z</time>
      </trkpt>
      <trkpt lat="47.565639" lon="7.769724">
        <ele>280.185629</ele>
        <time>2021-11-22T11:50:16.234Z</time>
      </trkpt>
      <trkpt lat="47.565623" lon="7.769892">
        <ele>280.203353</ele>
        <time>2021-11-22T11:50:18.124Z</time>
      </trkpt>
      <trkpt lat="47.565618" lon="7.770120">
        <ele>280.227185</ele>
        <time>2021-11-22T11:50:20.194Z</time>
      </trkpt>
      <trkpt lat="47.565625" lon="7.770603">
        <ele>280.277655</ele>
        <time>2021-11-22T11:50:25.266Z</time>
      </trkpt>
      <trkpt lat="47.565623" lon="7.771401">
        <ele>280.361021</ele>
        <time>2021-11-22T11:50:34.118Z</time>
      </trkpt>
      <trkpt lat="47.565557" lon="7.771818">
        <ele>280.406839</ele>
        <time>2021-11-22T11:50:38.726Z</time>
      </trkpt>
      <trkpt lat="47.565452" lon="7.772236">
        <ele>280.522066</ele>
        <time>2021-11-22T11:50:43.575Z</time>
      </trkpt>
      <trkpt lat="47.565274" lon="7.772804">
        <ele>280.683858</ele>
        <time>2021-11-22T11:50:50.053Z</time>
      </trkpt>
      <trkpt lat="47.565215" lon="7.772993">
        <ele>280.737657</ele>
        <time>2021-11-22T11:50:52.358Z</time>
      </trkpt>
      <trkpt lat="47.565082" lon="7.773413">
        <ele>280.857516</ele>
        <time>2021-11-22T11:50:57.427Z</time>
      </trkpt>
      <trkpt lat="47.565017" lon="7.773684">
        <ele>280.931819</ele>
        <time>2021-11-22T11:51:00.710Z</time>
      </trkpt>
      <trkpt lat="47.564949" lon="7.774019">
        <ele>281.022195</ele>
        <time>2021-11-22T11:51:04.668Z</time>
      </trkpt>
      <trkpt lat="47.564938" lon="7.774103">
        <ele>281.044301</ele>
        <time>2021-11-22T11:51:05.679Z</time>
      </trkpt>
      <trkpt lat="47.564907" lon="7.774234">
        <ele>281.080165</ele>
        <time>2021-11-22T11:51:07.199Z</time>
      </trkpt>
      <trkpt lat="47.564861" lon="7.774427">
        <ele>281.156048</ele>
        <time>2021-11-22T11:51:09.590Z</time>
      </trkpt>
      <trkpt lat="47.564815" lon="7.774448">
        <ele>281.185249</ele>
        <time>2021-11-22T11:51:10.505Z</time>
      </trkpt>
      <trkpt lat="47.564709" lon="7.774675">
        <ele>281.298252</ele>
        <time>2021-11-22T11:51:13.759Z</time>
      </trkpt>
      <trkpt lat="47.564712" lon="7.774747">
        <ele>281.327781</ele>
        <time>2021-11-22T11:51:14.638Z</time>
      </trkpt>
      <trkpt lat="47.564658" lon="7.774885">
        <ele>281.393083</ele>
        <time>2021-11-22T11:51:16.609Z</time>
      </trkpt>
      <trkpt lat="47.564621" lon="7.774969">
        <ele>281.434146</ele>
        <time>2021-11-22T11:51:17.856Z</time>
      </trkpt>
      <trkpt lat="47.564601" lon="7.775042">
        <ele>281.466398</ele>
        <time>2021-11-22T11:51:18.838Z</time>
      </trkpt>
      <trkpt lat="47.564226" lon="7.776836">
        <ele>282.194127</ele>
        <time>2021-11-22T11:51:40.670Z</time>
      </trkpt>
      <trkpt lat="47.564027" lon="7.778327">
        <ele>282.308716</ele>
        <time>2021-11-22T11:51:56.910Z</time>
      </trkpt>
      <trkpt lat="47.563988" lon="7.778618">
        <ele>282.331084</ele>
        <time>2021-11-22T11:51:59.967Z</time>
      </trkpt>
      <trkpt lat="47.563956" lon="7.778868">
        <ele>282.350269</ele>
        <time>2021-11-22T11:52:02.689Z</time>
      </trkpt>
      <trkpt lat="47.563901" lon="7.779085">
        <ele>282.367745</ele>
        <time>2021-11-22T11:52:04.794Z</time>
      </trkpt>
      <trkpt lat="47.563891" lon="7.779124">
        <ele>282.370891</ele>
        <time>2021-11-22T11:52:05.203Z</time>
      </trkpt>
      <trkpt lat="47.563838" lon="7.779303">
        <ele>282.385628</ele>
        <time>2021-11-22T11:52:07.094Z</time>
      </trkpt>
      <trkpt lat="47.563771" lon="7.779469">
        <ele>282.291653</ele>
        <time>2021-11-22T11:52:08.762Z</time>
      </trkpt>
      <trkpt lat="47.563704" lon="7.779626">
        <ele>282.200007</ele>
        <time>2021-11-22T11:52:10.386Z</time>
      </trkpt>
      <trkpt lat="47.563652" lon="7.779747">
        <ele>282.129232</ele>
        <time>2021-11-22T11:52:11.669Z</time>
      </trkpt>
      <trkpt lat="47.563533" lon="7.779944">
        <ele>281.998787</ele>
        <time>2021-11-22T11:52:13.860Z</time>
      </trkpt>
      <trkpt lat="47.563492" lon="7.780014">
        <ele>281.953057</ele>
        <time>2021-11-22T11:52:14.640Z</time>
      </trkpt>
      <trkpt lat="47.563386" lon="7.780199">
        <ele>281.833322</ele>
        <time>2021-11-22T11:52:16.719Z</time>
      </trkpt>
      <trkpt lat="47.563299" lon="7.780330">
        <ele>281.742640</ele>
        <time>2021-11-22T11:52:18.179Z</time>
      </trkpt>
      <trkpt lat="47.563211" lon="7.780461">
        <ele>281.651445</ele>
        <time>2021-11-22T11:52:19.716Z</time>
      </trkpt>
      <trkpt lat="47.562775" lon="7.781130">
        <ele>281.192582</ele>
        <time>2021-11-22T11:52:27.606Z</time>
      </trkpt>
      <trkpt lat="47.562657" lon="7.781311">
        <ele>281.068533</ele>
        <time>2021-11-22T11:52:29.771Z</time>
      </trkpt>
      <trkpt lat="47.562099" lon="7.782166">
        <ele>280.511206</ele>
        <time>2021-11-22T11:52:39.950Z</time>
      </trkpt>
      <trkpt lat="47.561943" lon="7.782422">
        <ele>280.349585</ele>
        <time>2021-11-22T11:52:42.889Z</time>
      </trkpt>
      <trkpt lat="47.561822" lon="7.782640">
        <ele>280.217325</ele>
        <time>2021-11-22T11:52:45.262Z</time>
      </trkpt>
      <trkpt lat="47.561610" lon="7.782977">
        <ele>280.001447</ele>
        <time>2021-11-22T11:52:49.225Z</time>
      </trkpt>
      <trkpt lat="47.561406" lon="7.783302">
        <ele>279.808305</ele>
        <time>2021-11-22T11:52:53.198Z</time>
      </trkpt>
      <trkpt lat="47.561312" lon="7.783440">
        <ele>279.764472</ele>
        <time>2021-11-22T11:52:54.974Z</time>
      </trkpt>
      <trkpt lat="47.561041" lon="7.783716">
        <ele>279.655539</ele>
        <time>2021-11-22T11:52:59.482Z</time>
      </trkpt>
      <trkpt lat="47.560877" lon="7.783815">
        <ele>279.596875</ele>
        <time>2021-11-22T11:53:02.050Z</time>
      </trkpt>
      <trkpt lat="47.560427" lon="7.783951">
        <ele>279.444732</ele>
        <time>2021-11-22T11:53:08.584Z</time>
      </trkpt>
      <trkpt lat="47.559876" lon="7.784127">
        <ele>279.258007</ele>
        <time>2021-11-22T11:53:16.411Z</time>
      </trkpt>
      <trkpt lat="47.559415" lon="7.784281">
        <ele>278.958068</ele>
        <time>2021-11-22T11:53:22.686Z</time>
      </trkpt>
      <trkpt lat="47.559319" lon="7.784326">
        <ele>278.886307</ele>
        <time>2021-11-22T11:53:24.016Z</time>
      </trkpt>
      <trkpt lat="47.559229" lon="7.784376">
        <ele>278.817805</ele>
        <time>2021-11-22T11:53:25.287Z</time>
      </trkpt>
      <trkpt lat="47.559117" lon="7.784473">
        <ele>278.725350</ele>
        <time>2021-11-22T11:53:26.990Z</time>
      </trkpt>
      <trkpt lat="47.559008" lon="7.784639">
        <ele>278.613955</ele>
        <time>2021-11-22T11:53:29.067Z</time>
      </trkpt>
      <trkpt lat="47.558986" lon="7.784674">
        <ele>278.590951</ele>
        <time>2021-11-22T11:53:29.496Z</time>
      </trkpt>
      <trkpt lat="47.558920" lon="7.784817">
        <ele>278.507628</ele>
        <time>2021-11-22T11:53:31.035Z</time>
      </trkpt>
      <trkpt lat="47.558822" lon="7.785030">
        <ele>278.383641</ele>
        <time>2021-11-22T11:53:33.312Z</time>
      </trkpt>
      <trkpt lat="47.558782" lon="7.785128">
        <ele>278.328557</ele>
        <time>2021-11-22T11:53:34.316Z</time>
      </trkpt>
      <trkpt lat="47.558747" lon="7.785215">
        <ele>278.279844</ele>
        <time>2021-11-22T11:53:35.192Z</time>
      </trkpt>
      <trkpt lat="47.558660" lon="7.785434">
        <ele>278.157620</ele>
        <time>2021-11-22T11:53:37.382Z</time>
      </trkpt>
      <trkpt lat="47.558577" lon="7.785598">
        <ele>278.059026</ele>
        <time>2021-11-22T11:53:39.134Z</time>
      </trkpt>
      <trkpt lat="47.558367" lon="7.785913">
        <ele>277.493182</ele>
        <time>2021-11-22T11:53:42.753Z</time>
      </trkpt>
      <trkpt lat="47.558166" lon="7.786166">
        <ele>276.628718</ele>
        <time>2021-11-22T11:53:45.688Z</time>
      </trkpt>
      <trkpt lat="47.558071" lon="7.786282">
        <ele>276.225217</ele>
        <time>2021-11-22T11:53:47.010Z</time>
      </trkpt>
      <trkpt lat="47.558006" lon="7.786349">
        <ele>275.965677</ele>
        <time>2021-11-22T11:53:47.849Z</time>
      </trkpt>
      <trkpt lat="47.557921" lon="7.786413">
        <ele>275.653151</ele>
        <time>2021-11-22T11:53:48.843Z</time>
      </trkpt>
      <trkpt lat="47.557901" lon="7.786427">
        <ele>275.580647</ele>
        <time>2021-11-22T11:53:49.061Z</time>
      </trkpt>
      <trkpt lat="47.557823" lon="7.786486">
        <ele>275.293587</ele>
        <time>2021-11-22T11:53:49.957Z</time>
      </trkpt>
      <trkpt lat="47.557711" lon="7.786536">
        <ele>274.910164</ele>
        <time>2021-11-22T11:53:51.130Z</time>
      </trkpt>
      <trkpt lat="47.557562" lon="7.786575">
        <ele>274.414198</ele>
        <time>2021-11-22T11:53:52.602Z</time>
      </trkpt>
      <trkpt lat="47.557490" lon="7.786586">
        <ele>274.176939</ele>
        <time>2021-11-22T11:53:53.310Z</time>
      </trkpt>
      <trkpt lat="47.557180" lon="7.786638">
        <ele>273.154303</ele>
        <time>2021-11-22T11:53:56.279Z</time>
      </trkpt>
      <trkpt lat="47.557118" lon="7.786638">
        <ele>272.951074</ele>
        <time>2021-11-22T11:53:56.861Z</time>
      </trkpt>
      <trkpt lat="47.557035" lon="7.786628">
        <ele>272.678111</ele>
        <time>2021-11-22T11:53:57.640Z</time>
      </trkpt>
      <trkpt lat="47.556958" lon="7.786609">
        <ele>272.422238</ele>
        <time>2021-11-22T11:53:58.380Z</time>
      </trkpt>
      <trkpt lat="47.556914" lon="7.786662">
        <ele>272.236370</ele>
        <time>2021-11-22T11:53:58.916Z</time>
      </trkpt>
      <trkpt lat="47.556883" lon="7.786718">
        <ele>272.076147</ele>
        <time>2021-11-22T11:53:59.369Z</time>
      </trkpt>
      <trkpt lat="47.556812" lon="7.787001">
        <ele>271.459098</ele>
        <time>2021-11-22T11:54:01.306Z</time>
      </trkpt>
      <trkpt lat="47.556783" lon="7.787207">
        <ele>271.030565</ele>
        <time>2021-11-22T11:54:02.664Z</time>
      </trkpt>
      <trkpt lat="47.556658" lon="7.787468">
        <ele>270.378818</ele>
        <time>2021-11-22T11:54:04.744Z</time>
      </trkpt>
      <trkpt lat="47.556539" lon="7.787710">
        <ele>269.769054</ele>
        <time>2021-11-22T11:54:06.714Z</time>
      </trkpt>
      <trkpt lat="47.556357" lon="7.788058">
        <ele>268.872483</ele>
        <time>2021-11-22T11:54:09.680Z</time>
      </trkpt>
      <trkpt lat="47.556249" lon="7.788270">
        <ele>268.331562</ele>
        <time>2021-11-22T11:54:11.500Z</time>
      </trkpt>
      <trkpt lat="47.556137" lon="7.788488">
        <ele>267.773613</ele>
        <time>2021-11-22T11:54:13.407Z</time>
      </trkpt>
      <trkpt lat="47.556111" lon="7.788537">
        <ele>267.646677</ele>
        <time>2021-11-22T11:54:13.833Z</time>
      </trkpt>
      <trkpt lat="47.556069" lon="7.788614">
        <ele>267.445057</ele>
        <time>2021-11-22T11:54:14.577Z</time>
      </trkpt>
      <trkpt lat="47.555936" lon="7.788828">
        <ele>266.852612</ele>
        <time>2021-11-22T11:54:16.821Z</time>
      </trkpt>
      <trkpt lat="47.555085" lon="7.789685">
        <ele>268.216864</ele>
        <time>2021-11-22T11:54:59.152Z</time>
      </trkpt>
      <trkpt lat="47.555062" lon="7.789726">
        <ele>268.277177</ele>
        <time>2021-11-22T11:55:00.876Z</time>
      </trkpt>
      <trkpt lat="47.555052" lon="7.789771">
        <ele>268.330773</ele>
        <time>2021-11-22T11:55:02.329Z</time>
      </trkpt>
      <trkpt lat="47.555031" lon="7.789894">
        <ele>268.474302</ele>
        <time>2021-11-22T11:55:06.560Z</time>
      </trkpt>
      <trkpt lat="47.554999" lon="7.790090">
        <ele>268.702425</ele>
        <time>2021-11-22T11:55:13.712Z</time>
      </trkpt>
      <trkpt lat="47.554865" lon="7.790678">
        <ele>269.404510</ele>
        <time>2021-11-22T11:55:34.867Z</time>
      </trkpt>
      <trkpt lat="47.554858" lon="7.790696">
        <ele>269.428011</ele>
        <time>2021-11-22T11:55:35.865Z</time>
      </trkpt>
      <trkpt lat="47.554788" lon="7.790844">
        <ele>269.632462</ele>
        <time>2021-11-22T11:55:41.431Z</time>
      </trkpt>
      <trkpt lat="47.554756" lon="7.790897">
        <ele>269.741267</ele>
        <time>2021-11-22T11:55:43.997Z</time>
      </trkpt>
      <trkpt lat="47.554756" lon="7.790897">
        <ele>269.741267</ele>
        <time>2021-11-22T11:55:44.018Z</time>
      </trkpt>
      <trkpt lat="47.554756" lon="7.790897">
        <ele>269.741267</ele>
        <time>2021-11-22T11:55:44.021Z</time>
      </trkpt>
      <trkpt lat="47.554911" lon="7.791459">
        <ele>270.680695</ele>
        <time>2021-11-22T11:56:03.856Z</time>
      </trkpt>
      <trkpt lat="47.555027" lon="7.791948">
        <ele>271.482731</ele>
        <time>2021-11-22T11:56:20.095Z</time>
      </trkpt>
      <trkpt lat="47.555085" lon="7.792163">
        <ele>271.841005</ele>
        <time>2021-11-22T11:56:27.375Z</time>
      </trkpt>
      <trkpt lat="47.555127" lon="7.792307">
        <ele>272.083741</ele>
        <time>2021-11-22T11:56:31.774Z</time>
      </trkpt>
      <trkpt lat="47.555237" lon="7.792734">
        <ele>272.790957</ele>
        <time>2021-11-22T11:56:45.903Z</time>
      </trkpt>
      <trkpt lat="47.555277" lon="7.793131">
        <ele>273.412060</ele>
        <time>2021-11-22T11:56:58.044Z</time>
      </trkpt>
      <trkpt lat="47.555274" lon="7.793423">
        <ele>273.854610</ele>
        <time>2021-11-22T11:57:06.703Z</time>
      </trkpt>
      <trkpt lat="47.555281" lon="7.793955">
        <ele>274.604284</ele>
        <time>2021-11-22T11:57:22.226Z</time>
      </trkpt>
      <trkpt lat="47.555282" lon="7.794033">
        <ele>274.714198</ele>
        <time>2021-11-22T11:57:24.508Z</time>
      </trkpt>
      <trkpt lat="47.555288" lon="7.794318">
        <ele>275.115928</ele>
        <time>2021-11-22T11:57:33.021Z</time>
      </trkpt>
      <trkpt lat="47.555288" lon="7.794496">
        <ele>275.366712</ele>
        <time>2021-11-22T11:57:38.073Z</time>
      </trkpt>
      <trkpt lat="47.555141" lon="7.794516">
        <ele>275.674884</ele>
        <time>2021-11-22T11:57:44.472Z</time>
      </trkpt>
      <trkpt lat="47.555010" lon="7.794553">
        <ele>275.953287</ele>
        <time>2021-11-22T11:57:50.324Z</time>
      </trkpt>
      <trkpt lat="47.555010" lon="7.794553">
        <ele>275.953287</ele>
        <time>2021-11-22T11:57:50.387Z</time>
      </trkpt>
      <trkpt lat="47.554864" lon="7.794599">
        <ele>276.264895</ele>
        <time>2021-11-22T11:57:56.742Z</time>
      </trkpt>
      <trkpt lat="47.554495" lon="7.794723">
        <ele>277.054791</ele>
        <time>2021-11-22T11:58:14.146Z</time>
      </trkpt>
      <trkpt lat="47.554352" lon="7.794791">
        <ele>277.368319</ele>
        <time>2021-11-22T11:58:21.543Z</time>
      </trkpt>
      <trkpt lat="47.554254" lon="7.794823">
        <ele>277.629963</ele>
        <time>2021-11-22T11:58:26.441Z</time>
      </trkpt>
      <trkpt lat="47.554004" lon="7.794824">
        <ele>278.582351</ele>
        <time>2021-11-22T11:58:38.767Z</time>
      </trkpt>
      <trkpt lat="47.553930" lon="7.794811">
        <ele>278.866232</ele>
        <time>2021-11-22T11:58:42.842Z</time>
      </trkpt>
      <trkpt lat="47.553883" lon="7.794947">
        <ele>279.259070</ele>
        <time>2021-11-22T11:58:46.653Z</time>
      </trkpt>
      <trkpt lat="47.553854" lon="7.795042">
        <ele>279.527142</ele>
        <time>2021-11-22T11:58:48.983Z</time>
      </trkpt>
      <trkpt lat="47.553847" lon="7.795063">
        <ele>279.587361</ele>
        <time>2021-11-22T11:58:49.554Z</time>
      </trkpt>
      <trkpt lat="47.553724" lon="7.795281">
        <ele>280.317914</ele>
        <time>2021-11-22T11:58:56.992Z</time>
      </trkpt>
      <trkpt lat="47.553702" lon="7.795313">
        <ele>280.435358</ele>
        <time>2021-11-22T11:58:58.217Z</time>
      </trkpt>
      <trkpt lat="47.553628" lon="7.795414">
        <ele>280.818637</ele>
        <time>2021-11-22T11:59:01.270Z</time>
      </trkpt>
      <trkpt lat="47.553580" lon="7.795460">
        <ele>281.036409</ele>
        <time>2021-11-22T11:59:03.261Z</time>
      </trkpt>
      <trkpt lat="47.553379" lon="7.795607">
        <ele>281.890321</ele>
        <time>2021-11-22T11:59:11.418Z</time>
      </trkpt>
      <trkpt lat="47.553256" lon="7.795697">
        <ele>282.412916</ele>
        <time>2021-11-22T11:59:16.163Z</time>
      </trkpt>
      <trkpt lat="47.553285" lon="7.795767">
        <ele>282.624094</ele>
        <time>2021-11-22T11:59:17.802Z</time>
      </trkpt>
      <trkpt lat="47.553197" lon="7.795846">
        <ele>283.016065</ele>
        <time>2021-11-22T11:59:21.697Z</time>
      </trkpt>
      <trkpt lat="47.553064" lon="7.796005">
        <ele>283.667089</ele>
        <time>2021-11-22T11:59:27.915Z</time>
      </trkpt>
      <trkpt lat="47.552959" lon="7.796216">
        <ele>284.341112</ele>
        <time>2021-11-22T11:59:34.161Z</time>
      </trkpt>
      <trkpt lat="47.552919" lon="7.796227">
        <ele>284.521779</ele>
        <time>2021-11-22T11:59:36.032Z</time>
      </trkpt>
      <trkpt lat="47.552528" lon="7.797110">
        <ele>287.775577</ele>
        <time>2021-11-22T12:00:00.292Z</time>
      </trkpt>
      <trkpt lat="47.552398" lon="7.797386">
        <ele>288.812543</ele>
        <time>2021-11-22T12:00:07.760Z</time>
      </trkpt>
      <trkpt lat="47.552271" lon="7.797723">
        <ele>290.001743</ele>
        <time>2021-11-22T12:00:17.422Z</time>
      </trkpt>
      <trkpt lat="47.552160" lon="7.798017">
        <ele>291.039662</ele>
        <time>2021-11-22T12:00:24.927Z</time>
      </trkpt>
      <trkpt lat="47.552084" lon="7.798083">
        <ele>291.441806</ele>
        <time>2021-11-22T12:00:28.389Z</time>
      </trkpt>
      <trkpt lat="47.551948" lon="7.798607">
        <ele>292.943879</ele>
        <time>2021-11-22T12:00:39.577Z</time>
      </trkpt>
      <trkpt lat="47.551805" lon="7.799326">
        <ele>294.368329</ele>
        <time>2021-11-22T12:00:54.161Z</time>
      </trkpt>
      <trkpt lat="47.551793" lon="7.799434">
        <ele>294.576331</ele>
        <time>2021-11-22T12:00:56.349Z</time>
      </trkpt>
      <trkpt lat="47.551754" lon="7.799766">
        <ele>295.216737</ele>
        <time>2021-11-22T12:01:02.853Z</time>
      </trkpt>
      <trkpt lat="47.551712" lon="7.800249">
        <ele>296.142200</ele>
        <time>2021-11-22T12:01:11.359Z</time>
      </trkpt>
      <trkpt lat="47.551704" lon="7.800451">
        <ele>296.526735</ele>
        <time>2021-11-22T12:01:14.545Z</time>
      </trkpt>
      <trkpt lat="47.551672" lon="7.801147">
        <ele>297.711402</ele>
        <time>2021-11-22T12:01:23.568Z</time>
      </trkpt>
      <trkpt lat="47.551669" lon="7.801438">
        <ele>297.894038</ele>
        <time>2021-11-22T12:01:28.147Z</time>
      </trkpt>
      <trkpt lat="47.551666" lon="7.801632">
        <ele>298.015813</ele>
        <time>2021-11-22T12:01:30.160Z</time>
      </trkpt>
      <trkpt lat="47.551669" lon="7.801853">
        <ele>298.154528</ele>
        <time>2021-11-22T12:01:33.418Z</time>
      </trkpt>
      <trkpt lat="47.551671" lon="7.802077">
        <ele>298.295110</ele>
        <time>2021-11-22T12:01:35.735Z</time>
      </trkpt>
      <trkpt lat="47.551679" lon="7.802228">
        <ele>298.390160</ele>
        <time>2021-11-22T12:01:36.854Z</time>
      </trkpt>
      <trkpt lat="47.551688" lon="7.802394">
        <ele>298.494668</ele>
        <time>2021-11-22T12:01:39.811Z</time>
      </trkpt>
      <trkpt lat="47.551700" lon="7.802648">
        <ele>298.654454</ele>
        <time>2021-11-22T12:01:42.091Z</time>
      </trkpt>
      <trkpt lat="47.551732" lon="7.803125">
        <ele>298.955266</ele>
        <time>2021-11-22T12:01:48.241Z</time>
      </trkpt>
      <trkpt lat="47.551744" lon="7.803277">
        <ele>299.051303</ele>
        <time>2021-11-22T12:01:49.449Z</time>
      </trkpt>
      <trkpt lat="47.551751" lon="7.803369">
        <ele>299.109403</ele>
        <time>2021-11-22T12:01:51.124Z</time>
      </trkpt>
      <trkpt lat="47.551692" lon="7.803510">
        <ele>299.213512</ele>
        <time>2021-11-22T12:01:54.711Z</time>
      </trkpt>
      <trkpt lat="47.551741" lon="7.804294">
        <ele>299.689840</ele>
        <time>2021-11-22T12:02:07.309Z</time>
      </trkpt>
      <trkpt lat="47.551744" lon="7.804473">
        <ele>299.797129</ele>
        <time>2021-11-22T12:02:10.344Z</time>
      </trkpt>
      <trkpt lat="47.551731" lon="7.804667">
        <ele>299.913944</ele>
        <time>2021-11-22T12:02:14.444Z</time>
      </trkpt>
      <trkpt lat="47.551709" lon="7.805000">
        <ele>300.114430</ele>
        <time>2021-11-22T12:02:18.984Z</time>
      </trkpt>
      <trkpt lat="47.551681" lon="7.805477">
        <ele>300.401325</ele>
        <time>2021-11-22T12:02:26.731Z</time>
      </trkpt>
      <trkpt lat="47.551671" lon="7.806117">
        <ele>300.784912</ele>
        <time>2021-11-22T12:02:36.820Z</time>
      </trkpt>
      <trkpt lat="47.551651" lon="7.806246">
        <ele>300.864222</ele>
        <time>2021-11-22T12:02:39.723Z</time>
      </trkpt>
      <trkpt lat="47.551895" lon="7.806278">
        <ele>300.879147</ele>
        <time>2021-11-22T12:02:43.248Z</time>
      </trkpt>
      <trkpt lat="47.552015" lon="7.806307">
        <ele>300.858962</ele>
        <time>2021-11-22T12:02:46.118Z</time>
      </trkpt>
      <trkpt lat="47.552068" lon="7.806445">
        <ele>300.841171</ele>
        <time>2021-11-22T12:02:47.575Z</time>
      </trkpt>
      <trkpt lat="47.552398" lon="7.808880">
        <ele>300.412923</ele>
        <time>2021-11-22T12:03:09.718Z</time>
      </trkpt>
      <trkpt lat="47.552566" lon="7.810386">
        <ele>299.724378</ele>
        <time>2021-11-22T12:03:22.729Z</time>
      </trkpt>
      <trkpt lat="47.552711" lon="7.812955">
        <ele>298.599788</ele>
        <time>2021-11-22T12:03:45.338Z</time>
      </trkpt>
      <trkpt lat="47.552844" lon="7.816432">
        <ele>297.308966</ele>
        <time>2021-11-22T12:04:15.831Z</time>
      </trkpt>
      <trkpt lat="47.552948" lon="7.819358">
        <ele>297.755404</ele>
        <time>2021-11-22T12:04:47.061Z</time>
      </trkpt>
      <trkpt lat="47.552896" lon="7.820699">
        <ele>298.366980</ele>
        <time>2021-11-22T12:05:03.145Z</time>
      </trkpt>
      <trkpt lat="47.552567" lon="7.824508">
        <ele>300.261234</ele>
        <time>2021-11-22T12:05:49.630Z</time>
      </trkpt>
      <trkpt lat="47.552491" lon="7.827227">
        <ele>301.645063</ele>
        <time>2021-11-22T12:06:21.369Z</time>
      </trkpt>
      <trkpt lat="47.552515" lon="7.828094">
        <ele>302.525894</ele>
        <time>2021-11-22T12:06:33.079Z</time>
      </trkpt>
      <trkpt lat="47.552477" lon="7.828294">
        <ele>302.736805</ele>
        <time>2021-11-22T12:06:35.696Z</time>
      </trkpt>
      <trkpt lat="47.552421" lon="7.828481">
        <ele>302.944476</ele>
        <time>2021-11-22T12:06:38.628Z</time>
      </trkpt>
      <trkpt lat="47.552404" lon="7.828582">
        <ele>303.050142</ele>
        <time>2021-11-22T12:06:40.312Z</time>
      </trkpt>
      <trkpt lat="47.552416" lon="7.828822">
        <ele>303.294434</ele>
        <time>2021-11-22T12:06:43.546Z</time>
      </trkpt>
      <trkpt lat="47.552554" lon="7.829266">
        <ele>303.790634</ele>
        <time>2021-11-22T12:06:50.897Z</time>
      </trkpt>
      <trkpt lat="47.552645" lon="7.830686">
        <ele>306.174854</ele>
        <time>2021-11-22T12:07:14.203Z</time>
      </trkpt>
      <trkpt lat="47.552690" lon="7.832598">
        <ele>309.776436</ele>
        <time>2021-11-22T12:07:49.680Z</time>
      </trkpt>
      <trkpt lat="47.552616" lon="7.832891">
        <ele>310.370845</ele>
        <time>2021-11-22T12:07:55.044Z</time>
      </trkpt>
      <trkpt lat="47.552556" lon="7.832977">
        <ele>310.605860</ele>
        <time>2021-11-22T12:07:57.776Z</time>
      </trkpt>
      <trkpt lat="47.552511" lon="7.833072">
        <ele>310.826383</ele>
        <time>2021-11-22T12:07:59.801Z</time>
      </trkpt>
      <trkpt lat="47.552467" lon="7.833198">
        <ele>311.095934</ele>
        <time>2021-11-22T12:08:02.203Z</time>
      </trkpt>
      <trkpt lat="47.552452" lon="7.833284">
        <ele>311.264705</ele>
        <time>2021-11-22T12:08:03.814Z</time>
      </trkpt>
      <trkpt lat="47.552696" lon="7.833789">
        <ele>312.444753</ele>
        <time>2021-11-22T12:08:14.845Z</time>
      </trkpt>
      <trkpt lat="47.552700" lon="7.833938">
        <ele>312.728081</ele>
        <time>2021-11-22T12:08:17.790Z</time>
      </trkpt>
      <trkpt lat="47.552714" lon="7.835010">
        <ele>314.553602</ele>
        <time>2021-11-22T12:08:36.267Z</time>
      </trkpt>
      <trkpt lat="47.552719" lon="7.836790">
        <ele>316.648865</ele>
        <time>2021-11-22T12:09:01.550Z</time>
      </trkpt>
      <trkpt lat="47.552697" lon="7.838068">
        <ele>318.051122</ele>
        <time>2021-11-22T12:09:19.260Z</time>
      </trkpt>
      <trkpt lat="47.552736" lon="7.838578">
        <ele>318.578570</ele>
        <time>2021-11-22T12:09:26.389Z</time>
      </trkpt>
      <trkpt lat="47.552802" lon="7.839009">
        <ele>319.032738</ele>
        <time>2021-11-22T12:09:32.541Z</time>
      </trkpt>
      <trkpt lat="47.552823" lon="7.839088">
        <ele>319.119991</ele>
        <time>2021-11-22T12:09:33.748Z</time>
      </trkpt>
      <trkpt lat="47.552939" lon="7.839526">
        <ele>319.603508</ele>
        <time>2021-11-22T12:09:40.347Z</time>
      </trkpt>
      <trkpt lat="47.553231" lon="7.841529">
        <ele>321.720762</ele>
        <time>2021-11-22T12:10:10.470Z</time>
      </trkpt>
      <trkpt lat="47.553216" lon="7.841849">
        <ele>322.052716</ele>
        <time>2021-11-22T12:10:14.982Z</time>
      </trkpt>
      <trkpt lat="47.553123" lon="7.842222">
        <ele>322.464219</ele>
        <time>2021-11-22T12:10:20.211Z</time>
      </trkpt>
      <trkpt lat="47.553133" lon="7.842431">
        <ele>322.681049</ele>
        <time>2021-11-22T12:10:23.341Z</time>
      </trkpt>
      <trkpt lat="47.552833" lon="7.842495">
        <ele>323.006022</ele>
        <time>2021-11-22T12:10:30.650Z</time>
      </trkpt>
      <trkpt lat="47.552380" lon="7.842592">
        <ele>323.384393</ele>
        <time>2021-11-22T12:10:41.698Z</time>
      </trkpt>
      <trkpt lat="47.551922" lon="7.842704">
        <ele>323.768130</ele>
        <time>2021-11-22T12:10:52.264Z</time>
      </trkpt>
      <trkpt lat="47.551668" lon="7.842770">
        <ele>323.981309</ele>
        <time>2021-11-22T12:10:58.223Z</time>
      </trkpt>
      <trkpt lat="47.551454" lon="7.842815">
        <ele>324.159989</ele>
        <time>2021-11-22T12:11:02.863Z</time>
      </trkpt>
      <trkpt lat="47.551344" lon="7.844621">
        <ele>325.336990</ele>
        <time>2021-11-22T12:11:25.079Z</time>
      </trkpt>
      <trkpt lat="47.551259" lon="7.845892">
        <ele>326.236099</ele>
        <time>2021-11-22T12:11:42.168Z</time>
      </trkpt>
      <trkpt lat="47.551205" lon="7.846694">
        <ele>327.082398</ele>
        <time>2021-11-22T12:11:53.069Z</time>
      </trkpt>
      <trkpt lat="47.551184" lon="7.847206">
        <ele>327.621003</ele>
        <time>2021-11-22T12:12:00.452Z</time>
      </trkpt>
      <trkpt lat="47.551196" lon="7.847517">
        <ele>327.948093</ele>
        <time>2021-11-22T12:12:05.013Z</time>
      </trkpt>
      <trkpt lat="47.551669" lon="7.848083">
        <ele>328.893985</ele>
        <time>2021-11-22T12:12:18.353Z</time>
      </trkpt>
      <trkpt lat="47.551242" lon="7.848702">
        <ele>329.771363</ele>
        <time>2021-11-22T12:12:31.031Z</time>
      </trkpt>
      <trkpt lat="47.550975" lon="7.849066">
        <ele>330.303828</ele>
        <time>2021-11-22T12:12:38.346Z</time>
      </trkpt>
      <trkpt lat="47.550810" lon="7.849346">
        <ele>330.671999</ele>
        <time>2021-11-22T12:12:44.739Z</time>
      </trkpt>
      <trkpt lat="47.550488" lon="7.850081">
        <ele>331.539929</ele>
        <time>2021-11-22T12:13:00.182Z</time>
      </trkpt>
      <trkpt lat="47.550333" lon="7.850434">
        <ele>331.722997</ele>
        <time>2021-11-22T12:13:07.508Z</time>
      </trkpt>
      <trkpt lat="47.550009" lon="7.851173">
        <ele>332.099070</ele>
        <time>2021-11-22T12:13:22.107Z</time>
      </trkpt>
      <trkpt lat="47.549778" lon="7.851687">
        <ele>332.362606</ele>
        <time>2021-11-22T12:13:31.309Z</time>
      </trkpt>
      <trkpt lat="47.549652" lon="7.851969">
        <ele>332.506934</ele>
        <time>2021-11-22T12:13:35.988Z</time>
      </trkpt>
      <trkpt lat="47.549535" lon="7.852225">
        <ele>332.638877</ele>
        <time>2021-11-22T12:13:40.039Z</time>
      </trkpt>
      <trkpt lat="47.549285" lon="7.852784">
        <ele>332.536502</ele>
        <time>2021-11-22T12:13:48.676Z</time>
      </trkpt>
      <trkpt lat="47.549708" lon="7.853279">
        <ele>332.330051</ele>
        <time>2021-11-22T12:13:59.072Z</time>
      </trkpt>
      <trkpt lat="47.550221" lon="7.853833">
        <ele>332.086915</ele>
        <time>2021-11-22T12:14:11.014Z</time>
      </trkpt>
      <trkpt lat="47.549883" lon="7.854434">
        <ele>331.850648</ele>
        <time>2021-11-22T12:14:17.692Z</time>
      </trkpt>
      <trkpt lat="47.549566" lon="7.855225">
        <ele>331.538916</ele>
        <time>2021-11-22T12:14:28.836Z</time>
      </trkpt>
      <trkpt lat="47.549362" lon="7.855774">
        <ele>331.326548</ele>
        <time>2021-11-22T12:14:36.758Z</time>
      </trkpt>
      <trkpt lat="47.548887" lon="7.857308">
        <ele>331.200499</ele>
        <time>2021-11-22T12:14:58.866Z</time>
      </trkpt>
      <trkpt lat="47.548743" lon="7.857692">
        <ele>331.248863</ele>
        <time>2021-11-22T12:15:04.838Z</time>
      </trkpt>
      <trkpt lat="47.548701" lon="7.857893">
        <ele>331.272028</ele>
        <time>2021-11-22T12:15:07.809Z</time>
      </trkpt>
      <trkpt lat="47.548686" lon="7.857973">
        <ele>331.281170</ele>
        <time>2021-11-22T12:15:08.932Z</time>
      </trkpt>
      <trkpt lat="47.548611" lon="7.858381">
        <ele>331.327726</ele>
        <time>2021-11-22T12:15:15.146Z</time>
      </trkpt>
      <trkpt lat="47.548334" lon="7.859801">
        <ele>332.175679</ele>
        <time>2021-11-22T12:15:38.184Z</time>
      </trkpt>
      <trkpt lat="47.548049" lon="7.860929">
        <ele>333.166194</ele>
        <time>2021-11-22T12:15:59.202Z</time>
      </trkpt>
      <trkpt lat="47.547930" lon="7.861711">
        <ele>333.899631</ele>
        <time>2021-11-22T12:16:13.966Z</time>
      </trkpt>
      <trkpt lat="47.547568" lon="7.863151">
        <ele>335.539221</ele>
        <time>2021-11-22T12:16:43.094Z</time>
      </trkpt>
      <trkpt lat="47.547320" lon="7.863864">
        <ele>336.395070</ele>
        <time>2021-11-22T12:16:57.034Z</time>
      </trkpt>
      <trkpt lat="47.546974" lon="7.864423">
        <ele>336.397231</ele>
        <time>2021-11-22T12:17:07.857Z</time>
      </trkpt>
      <trkpt lat="47.546885" lon="7.864500">
        <ele>336.392645</ele>
        <time>2021-11-22T12:17:10.942Z</time>
      </trkpt>
      <trkpt lat="47.546894" lon="7.864837">
        <ele>336.382516</ele>
        <time>2021-11-22T12:17:14.827Z</time>
      </trkpt>
      <trkpt lat="47.546889" lon="7.865225">
        <ele>336.370861</ele>
        <time>2021-11-22T12:17:20.256Z</time>
      </trkpt>
      <trkpt lat="47.546819" lon="7.865489">
        <ele>336.362342</ele>
        <time>2021-11-22T12:17:24.206Z</time>
      </trkpt>
      <trkpt lat="47.546510" lon="7.865766">
        <ele>336.346272</ele>
        <time>2021-11-22T12:17:30.855Z</time>
      </trkpt>
      <trkpt lat="47.546327" lon="7.865959">
        <ele>336.339297</ele>
        <time>2021-11-22T12:17:34.523Z</time>
      </trkpt>
      <trkpt lat="47.546096" lon="7.866147">
        <ele>336.339297</ele>
        <time>2021-11-22T12:17:39.424Z</time>
      </trkpt>
      <trkpt lat="47.545480" lon="7.866680">
        <ele>336.339297</ele>
        <time>2021-11-22T12:17:51.761Z</time>
      </trkpt>
    </trkseg>
  </trk>
</gpx>